<?xml version="1.0" encoding="UTF-8" standalone="no" ?>
<gpx xmlns="http://www.topografix.com/GPX/1/1" xmlns:xsi="http://www.w3.org/2001/XMLSchema-instance" xsi:schemaLocation="http://www.topografix.com/GPX/1/1 http://www.topografix.com/GPX/1/1/gpx.xsd" version="1.1" creator="VisuGPX - https://www.visugpx.com">
  <metadata>
    <name>12 novembre 2017</name>
    <desc><![CDATA[Patrick, Totor, David, Florian]]></desc>
  </metadata>
  <trk>
    <name><![CDATA[171112094302 on GPSies.com]]></name>
    <trkseg>
      <trkpt lat="48.00307" lon="-0.7108">
        <ele>68.1</ele>
        <time>2017-11-12T09:43:17Z</time>
      </trkpt>
      <trkpt lat="48.00314" lon="-0.71071">
        <ele>68.3</ele>
        <time>2017-11-12T09:43:21Z</time>
      </trkpt>
      <trkpt lat="48.00317" lon="-0.71059">
        <ele>68.5</ele>
        <time>2017-11-12T09:43:25Z</time>
      </trkpt>
      <trkpt lat="48.00312" lon="-0.71053">
        <ele>68.8</ele>
        <time>2017-11-12T09:43:29Z</time>
      </trkpt>
      <trkpt lat="48.00315" lon="-0.71043">
        <ele>68.6</ele>
        <time>2017-11-12T09:43:33Z</time>
      </trkpt>
      <trkpt lat="48.00325" lon="-0.71031">
        <ele>68.3</ele>
        <time>2017-11-12T09:43:37Z</time>
      </trkpt>
      <trkpt lat="48.00331" lon="-0.7102">
        <ele>68.1</ele>
        <time>2017-11-12T09:43:41Z</time>
      </trkpt>
      <trkpt lat="48.00334" lon="-0.71011">
        <ele>68</ele>
        <time>2017-11-12T09:43:45Z</time>
      </trkpt>
      <trkpt lat="48.00339" lon="-0.71">
        <ele>67.6</ele>
        <time>2017-11-12T09:43:49Z</time>
      </trkpt>
      <trkpt lat="48.00337" lon="-0.70989">
        <ele>67.8</ele>
        <time>2017-11-12T09:43:53Z</time>
      </trkpt>
      <trkpt lat="48.00341" lon="-0.70978">
        <ele>67.5</ele>
        <time>2017-11-12T09:43:57Z</time>
      </trkpt>
      <trkpt lat="48.0035" lon="-0.70963">
        <ele>67.1</ele>
        <time>2017-11-12T09:44:01Z</time>
      </trkpt>
      <trkpt lat="48.00347" lon="-0.70947">
        <ele>67.9</ele>
        <time>2017-11-12T09:44:05Z</time>
      </trkpt>
      <trkpt lat="48.00357" lon="-0.7093">
        <ele>66.5</ele>
        <time>2017-11-12T09:44:09Z</time>
      </trkpt>
      <trkpt lat="48.00361" lon="-0.70894">
        <ele>63.3</ele>
        <time>2017-11-12T09:44:13Z</time>
      </trkpt>
      <trkpt lat="48.00358" lon="-0.70847">
        <ele>60.1</ele>
        <time>2017-11-12T09:44:17Z</time>
      </trkpt>
      <trkpt lat="48.00373" lon="-0.70826">
        <ele>59.3</ele>
        <time>2017-11-12T09:44:21Z</time>
      </trkpt>
      <trkpt lat="48.00386" lon="-0.70826">
        <ele>58.7</ele>
        <time>2017-11-12T09:44:25Z</time>
      </trkpt>
      <trkpt lat="48.00399" lon="-0.70831">
        <ele>58.5</ele>
        <time>2017-11-12T09:44:29Z</time>
      </trkpt>
      <trkpt lat="48.00418" lon="-0.70836">
        <ele>58.9</ele>
        <time>2017-11-12T09:44:33Z</time>
      </trkpt>
      <trkpt lat="48.00437" lon="-0.70841">
        <ele>59.6</ele>
        <time>2017-11-12T09:44:37Z</time>
      </trkpt>
      <trkpt lat="48.00444" lon="-0.7084">
        <ele>60</ele>
        <time>2017-11-12T09:44:41Z</time>
      </trkpt>
      <trkpt lat="48.00449" lon="-0.70832">
        <ele>59.7</ele>
        <time>2017-11-12T09:44:45Z</time>
      </trkpt>
      <trkpt lat="48.00446" lon="-0.70817">
        <ele>60.5</ele>
        <time>2017-11-12T09:44:49Z</time>
      </trkpt>
      <trkpt lat="48.0044" lon="-0.70803">
        <ele>61</ele>
        <time>2017-11-12T09:44:53Z</time>
      </trkpt>
      <trkpt lat="48.00432" lon="-0.70791">
        <ele>61.8</ele>
        <time>2017-11-12T09:44:57Z</time>
      </trkpt>
      <trkpt lat="48.00421" lon="-0.70781">
        <ele>63.2</ele>
        <time>2017-11-12T09:45:01Z</time>
      </trkpt>
      <trkpt lat="48.00411" lon="-0.70768">
        <ele>64.2</ele>
        <time>2017-11-12T09:45:05Z</time>
      </trkpt>
      <trkpt lat="48.00401" lon="-0.70757">
        <ele>65.4</ele>
        <time>2017-11-12T09:45:09Z</time>
      </trkpt>
      <trkpt lat="48.0039" lon="-0.70748">
        <ele>67.1</ele>
        <time>2017-11-12T09:45:13Z</time>
      </trkpt>
      <trkpt lat="48.00378" lon="-0.70738">
        <ele>66.8</ele>
        <time>2017-11-12T09:45:17Z</time>
      </trkpt>
      <trkpt lat="48.00366" lon="-0.70729">
        <ele>68.2</ele>
        <time>2017-11-12T09:45:21Z</time>
      </trkpt>
      <trkpt lat="48.00355" lon="-0.7072">
        <ele>70.8</ele>
        <time>2017-11-12T09:45:25Z</time>
      </trkpt>
      <trkpt lat="48.00345" lon="-0.70713">
        <ele>72</ele>
        <time>2017-11-12T09:45:29Z</time>
      </trkpt>
      <trkpt lat="48.00335" lon="-0.70706">
        <ele>72.9</ele>
        <time>2017-11-12T09:45:33Z</time>
      </trkpt>
      <trkpt lat="48.00326" lon="-0.70701">
        <ele>73.5</ele>
        <time>2017-11-12T09:45:37Z</time>
      </trkpt>
      <trkpt lat="48.00318" lon="-0.70691">
        <ele>74</ele>
        <time>2017-11-12T09:45:41Z</time>
      </trkpt>
      <trkpt lat="48.00316" lon="-0.70677">
        <ele>73.9</ele>
        <time>2017-11-12T09:45:45Z</time>
      </trkpt>
      <trkpt lat="48.00314" lon="-0.70663">
        <ele>73.6</ele>
        <time>2017-11-12T09:45:49Z</time>
      </trkpt>
      <trkpt lat="48.00318" lon="-0.70648">
        <ele>73.2</ele>
        <time>2017-11-12T09:45:53Z</time>
      </trkpt>
      <trkpt lat="48.00323" lon="-0.70635">
        <ele>72.8</ele>
        <time>2017-11-12T09:45:57Z</time>
      </trkpt>
      <trkpt lat="48.00325" lon="-0.70631">
        <ele>72.6</ele>
        <time>2017-11-12T09:46:09Z</time>
      </trkpt>
      <trkpt lat="48.0033" lon="-0.70622">
        <ele>71.9</ele>
        <time>2017-11-12T09:46:13Z</time>
      </trkpt>
      <trkpt lat="48.0034" lon="-0.70603">
        <ele>70.5</ele>
        <time>2017-11-12T09:46:17Z</time>
      </trkpt>
      <trkpt lat="48.00354" lon="-0.70577">
        <ele>69.8</ele>
        <time>2017-11-12T09:46:21Z</time>
      </trkpt>
      <trkpt lat="48.00372" lon="-0.70546">
        <ele>68.3</ele>
        <time>2017-11-12T09:46:25Z</time>
      </trkpt>
      <trkpt lat="48.00394" lon="-0.7051">
        <ele>66.8</ele>
        <time>2017-11-12T09:46:29Z</time>
      </trkpt>
      <trkpt lat="48.00418" lon="-0.70472">
        <ele>65</ele>
        <time>2017-11-12T09:46:33Z</time>
      </trkpt>
      <trkpt lat="48.00444" lon="-0.70435">
        <ele>63.7</ele>
        <time>2017-11-12T09:46:37Z</time>
      </trkpt>
      <trkpt lat="48.00474" lon="-0.704">
        <ele>62.3</ele>
        <time>2017-11-12T09:46:41Z</time>
      </trkpt>
      <trkpt lat="48.00506" lon="-0.70364">
        <ele>59.2</ele>
        <time>2017-11-12T09:46:45Z</time>
      </trkpt>
      <trkpt lat="48.00535" lon="-0.70317">
        <ele>57.2</ele>
        <time>2017-11-12T09:46:49Z</time>
      </trkpt>
      <trkpt lat="48.00557" lon="-0.70276">
        <ele>58.1</ele>
        <time>2017-11-12T09:46:53Z</time>
      </trkpt>
      <trkpt lat="48.00572" lon="-0.70243">
        <ele>59.9</ele>
        <time>2017-11-12T09:46:57Z</time>
      </trkpt>
      <trkpt lat="48.00584" lon="-0.70217">
        <ele>61.2</ele>
        <time>2017-11-12T09:47:01Z</time>
      </trkpt>
      <trkpt lat="48.00595" lon="-0.70202">
        <ele>61.7</ele>
        <time>2017-11-12T09:47:05Z</time>
      </trkpt>
      <trkpt lat="48.00607" lon="-0.70187">
        <ele>62.6</ele>
        <time>2017-11-12T09:47:09Z</time>
      </trkpt>
      <trkpt lat="48.00619" lon="-0.70173">
        <ele>63.8</ele>
        <time>2017-11-12T09:47:13Z</time>
      </trkpt>
      <trkpt lat="48.00629" lon="-0.70159">
        <ele>65.2</ele>
        <time>2017-11-12T09:47:17Z</time>
      </trkpt>
      <trkpt lat="48.00637" lon="-0.70147">
        <ele>66.4</ele>
        <time>2017-11-12T09:47:21Z</time>
      </trkpt>
      <trkpt lat="48.00644" lon="-0.70134">
        <ele>67.7</ele>
        <time>2017-11-12T09:47:25Z</time>
      </trkpt>
      <trkpt lat="48.00651" lon="-0.70122">
        <ele>69</ele>
        <time>2017-11-12T09:47:29Z</time>
      </trkpt>
      <trkpt lat="48.00655" lon="-0.70112">
        <ele>70.1</ele>
        <time>2017-11-12T09:47:34Z</time>
      </trkpt>
      <trkpt lat="48.00658" lon="-0.70103">
        <ele>70.7</ele>
        <time>2017-11-12T09:47:37Z</time>
      </trkpt>
      <trkpt lat="48.00659" lon="-0.70095">
        <ele>71.2</ele>
        <time>2017-11-12T09:47:41Z</time>
      </trkpt>
      <trkpt lat="48.00662" lon="-0.70085">
        <ele>71.7</ele>
        <time>2017-11-12T09:47:45Z</time>
      </trkpt>
      <trkpt lat="48.00665" lon="-0.70077">
        <ele>72.4</ele>
        <time>2017-11-12T09:47:49Z</time>
      </trkpt>
      <trkpt lat="48.00666" lon="-0.70069">
        <ele>73</ele>
        <time>2017-11-12T09:47:53Z</time>
      </trkpt>
      <trkpt lat="48.0067" lon="-0.70059">
        <ele>74.2</ele>
        <time>2017-11-12T09:47:57Z</time>
      </trkpt>
      <trkpt lat="48.00672" lon="-0.7005">
        <ele>75.6</ele>
        <time>2017-11-12T09:48:01Z</time>
      </trkpt>
      <trkpt lat="48.00678" lon="-0.7004">
        <ele>77.4</ele>
        <time>2017-11-12T09:48:05Z</time>
      </trkpt>
      <trkpt lat="48.00682" lon="-0.70032">
        <ele>78.8</ele>
        <time>2017-11-12T09:48:09Z</time>
      </trkpt>
      <trkpt lat="48.00687" lon="-0.70023">
        <ele>80.2</ele>
        <time>2017-11-12T09:48:13Z</time>
      </trkpt>
      <trkpt lat="48.00691" lon="-0.70015">
        <ele>81.1</ele>
        <time>2017-11-12T09:48:17Z</time>
      </trkpt>
      <trkpt lat="48.00695" lon="-0.70007">
        <ele>81.8</ele>
        <time>2017-11-12T09:48:21Z</time>
      </trkpt>
      <trkpt lat="48.007" lon="-0.7">
        <ele>82.2</ele>
        <time>2017-11-12T09:48:25Z</time>
      </trkpt>
      <trkpt lat="48.00704" lon="-0.69994">
        <ele>82.5</ele>
        <time>2017-11-12T09:48:29Z</time>
      </trkpt>
      <trkpt lat="48.00709" lon="-0.69989">
        <ele>82.7</ele>
        <time>2017-11-12T09:48:33Z</time>
      </trkpt>
      <trkpt lat="48.00714" lon="-0.69982">
        <ele>82.9</ele>
        <time>2017-11-12T09:48:37Z</time>
      </trkpt>
      <trkpt lat="48.0072" lon="-0.69971">
        <ele>83</ele>
        <time>2017-11-12T09:48:41Z</time>
      </trkpt>
      <trkpt lat="48.00723" lon="-0.69957">
        <ele>83.5</ele>
        <time>2017-11-12T09:48:45Z</time>
      </trkpt>
      <trkpt lat="48.00727" lon="-0.69943">
        <ele>84</ele>
        <time>2017-11-12T09:48:49Z</time>
      </trkpt>
      <trkpt lat="48.00732" lon="-0.69928">
        <ele>84.6</ele>
        <time>2017-11-12T09:48:53Z</time>
      </trkpt>
      <trkpt lat="48.00738" lon="-0.69913">
        <ele>85.1</ele>
        <time>2017-11-12T09:48:57Z</time>
      </trkpt>
      <trkpt lat="48.0074" lon="-0.69899">
        <ele>85.7</ele>
        <time>2017-11-12T09:49:01Z</time>
      </trkpt>
      <trkpt lat="48.00745" lon="-0.69883">
        <ele>86</ele>
        <time>2017-11-12T09:49:05Z</time>
      </trkpt>
      <trkpt lat="48.0075" lon="-0.69868">
        <ele>86</ele>
        <time>2017-11-12T09:49:09Z</time>
      </trkpt>
      <trkpt lat="48.00754" lon="-0.69853">
        <ele>86.5</ele>
        <time>2017-11-12T09:49:13Z</time>
      </trkpt>
      <trkpt lat="48.0076" lon="-0.69839">
        <ele>87.2</ele>
        <time>2017-11-12T09:49:17Z</time>
      </trkpt>
      <trkpt lat="48.00767" lon="-0.69827">
        <ele>87.7</ele>
        <time>2017-11-12T09:49:21Z</time>
      </trkpt>
      <trkpt lat="48.00774" lon="-0.69815">
        <ele>88</ele>
        <time>2017-11-12T09:49:25Z</time>
      </trkpt>
      <trkpt lat="48.0078" lon="-0.69802">
        <ele>88.2</ele>
        <time>2017-11-12T09:49:29Z</time>
      </trkpt>
      <trkpt lat="48.00785" lon="-0.69789">
        <ele>88.9</ele>
        <time>2017-11-12T09:49:33Z</time>
      </trkpt>
      <trkpt lat="48.00791" lon="-0.69774">
        <ele>89.6</ele>
        <time>2017-11-12T09:49:37Z</time>
      </trkpt>
      <trkpt lat="48.00797" lon="-0.69758">
        <ele>90.4</ele>
        <time>2017-11-12T09:49:41Z</time>
      </trkpt>
      <trkpt lat="48.00803" lon="-0.69744">
        <ele>90.9</ele>
        <time>2017-11-12T09:49:45Z</time>
      </trkpt>
      <trkpt lat="48.00814" lon="-0.69736">
        <ele>91.1</ele>
        <time>2017-11-12T09:49:49Z</time>
      </trkpt>
      <trkpt lat="48.00823" lon="-0.69734">
        <ele>91.4</ele>
        <time>2017-11-12T09:49:53Z</time>
      </trkpt>
      <trkpt lat="48.00831" lon="-0.69726">
        <ele>91.8</ele>
        <time>2017-11-12T09:50:45Z</time>
      </trkpt>
      <trkpt lat="48.00831" lon="-0.69727">
        <ele>91.8</ele>
        <time>2017-11-12T09:51:05Z</time>
      </trkpt>
      <trkpt lat="48.00832" lon="-0.69719">
        <ele>91.9</ele>
        <time>2017-11-12T09:51:09Z</time>
      </trkpt>
      <trkpt lat="48.00834" lon="-0.69708">
        <ele>92</ele>
        <time>2017-11-12T09:51:13Z</time>
      </trkpt>
      <trkpt lat="48.00835" lon="-0.69693">
        <ele>92</ele>
        <time>2017-11-12T09:51:17Z</time>
      </trkpt>
      <trkpt lat="48.00836" lon="-0.6968">
        <ele>92.5</ele>
        <time>2017-11-12T09:51:21Z</time>
      </trkpt>
      <trkpt lat="48.0084" lon="-0.69663">
        <ele>93.1</ele>
        <time>2017-11-12T09:51:25Z</time>
      </trkpt>
      <trkpt lat="48.00845" lon="-0.69648">
        <ele>93.7</ele>
        <time>2017-11-12T09:51:29Z</time>
      </trkpt>
      <trkpt lat="48.00848" lon="-0.69635">
        <ele>94</ele>
        <time>2017-11-12T09:51:33Z</time>
      </trkpt>
      <trkpt lat="48.00855" lon="-0.6962">
        <ele>94</ele>
        <time>2017-11-12T09:51:37Z</time>
      </trkpt>
      <trkpt lat="48.00862" lon="-0.69602">
        <ele>94.3</ele>
        <time>2017-11-12T09:51:41Z</time>
      </trkpt>
      <trkpt lat="48.00866" lon="-0.69583">
        <ele>95</ele>
        <time>2017-11-12T09:51:45Z</time>
      </trkpt>
      <trkpt lat="48.00872" lon="-0.69566">
        <ele>95.4</ele>
        <time>2017-11-12T09:51:49Z</time>
      </trkpt>
      <trkpt lat="48.00878" lon="-0.69546">
        <ele>95.6</ele>
        <time>2017-11-12T09:51:53Z</time>
      </trkpt>
      <trkpt lat="48.00886" lon="-0.69523">
        <ele>96</ele>
        <time>2017-11-12T09:51:57Z</time>
      </trkpt>
      <trkpt lat="48.00891" lon="-0.69504">
        <ele>96</ele>
        <time>2017-11-12T09:52:01Z</time>
      </trkpt>
      <trkpt lat="48.00898" lon="-0.69485">
        <ele>96.5</ele>
        <time>2017-11-12T09:52:05Z</time>
      </trkpt>
      <trkpt lat="48.00903" lon="-0.69462">
        <ele>97.2</ele>
        <time>2017-11-12T09:52:09Z</time>
      </trkpt>
      <trkpt lat="48.00911" lon="-0.69439">
        <ele>97.2</ele>
        <time>2017-11-12T09:52:13Z</time>
      </trkpt>
      <trkpt lat="48.00919" lon="-0.69408">
        <ele>97.3</ele>
        <time>2017-11-12T09:52:17Z</time>
      </trkpt>
      <trkpt lat="48.0093" lon="-0.69378">
        <ele>97.7</ele>
        <time>2017-11-12T09:52:21Z</time>
      </trkpt>
      <trkpt lat="48.00937" lon="-0.6935">
        <ele>98</ele>
        <time>2017-11-12T09:52:25Z</time>
      </trkpt>
      <trkpt lat="48.00946" lon="-0.69325">
        <ele>97.9</ele>
        <time>2017-11-12T09:52:29Z</time>
      </trkpt>
      <trkpt lat="48.00956" lon="-0.693">
        <ele>97.6</ele>
        <time>2017-11-12T09:52:33Z</time>
      </trkpt>
      <trkpt lat="48.00963" lon="-0.6928">
        <ele>97.3</ele>
        <time>2017-11-12T09:52:37Z</time>
      </trkpt>
      <trkpt lat="48.00968" lon="-0.69253">
        <ele>97.2</ele>
        <time>2017-11-12T09:52:41Z</time>
      </trkpt>
      <trkpt lat="48.00973" lon="-0.6923">
        <ele>97</ele>
        <time>2017-11-12T09:52:45Z</time>
      </trkpt>
      <trkpt lat="48.00979" lon="-0.69202">
        <ele>96.7</ele>
        <time>2017-11-12T09:52:49Z</time>
      </trkpt>
      <trkpt lat="48.00986" lon="-0.69174">
        <ele>96.5</ele>
        <time>2017-11-12T09:52:53Z</time>
      </trkpt>
      <trkpt lat="48.00991" lon="-0.69146">
        <ele>95.6</ele>
        <time>2017-11-12T09:52:57Z</time>
      </trkpt>
      <trkpt lat="48.00996" lon="-0.69121">
        <ele>95.1</ele>
        <time>2017-11-12T09:53:01Z</time>
      </trkpt>
      <trkpt lat="48.01002" lon="-0.69096">
        <ele>94.9</ele>
        <time>2017-11-12T09:53:05Z</time>
      </trkpt>
      <trkpt lat="48.01008" lon="-0.6907">
        <ele>94.7</ele>
        <time>2017-11-12T09:53:09Z</time>
      </trkpt>
      <trkpt lat="48.01013" lon="-0.69044">
        <ele>94.5</ele>
        <time>2017-11-12T09:53:13Z</time>
      </trkpt>
      <trkpt lat="48.01017" lon="-0.69019">
        <ele>94.4</ele>
        <time>2017-11-12T09:53:17Z</time>
      </trkpt>
      <trkpt lat="48.01019" lon="-0.68996">
        <ele>94.3</ele>
        <time>2017-11-12T09:53:21Z</time>
      </trkpt>
      <trkpt lat="48.01034" lon="-0.68983">
        <ele>93.7</ele>
        <time>2017-11-12T09:53:25Z</time>
      </trkpt>
      <trkpt lat="48.01055" lon="-0.68982">
        <ele>92.7</ele>
        <time>2017-11-12T09:53:29Z</time>
      </trkpt>
      <trkpt lat="48.01081" lon="-0.68975">
        <ele>92.1</ele>
        <time>2017-11-12T09:53:33Z</time>
      </trkpt>
      <trkpt lat="48.01109" lon="-0.6897">
        <ele>91.2</ele>
        <time>2017-11-12T09:53:37Z</time>
      </trkpt>
      <trkpt lat="48.01138" lon="-0.68961">
        <ele>90.4</ele>
        <time>2017-11-12T09:53:41Z</time>
      </trkpt>
      <trkpt lat="48.01168" lon="-0.68948">
        <ele>88.8</ele>
        <time>2017-11-12T09:53:45Z</time>
      </trkpt>
      <trkpt lat="48.012" lon="-0.68934">
        <ele>87.2</ele>
        <time>2017-11-12T09:53:49Z</time>
      </trkpt>
      <trkpt lat="48.01232" lon="-0.68921">
        <ele>86.5</ele>
        <time>2017-11-12T09:53:53Z</time>
      </trkpt>
      <trkpt lat="48.01258" lon="-0.6891">
        <ele>85.7</ele>
        <time>2017-11-12T09:53:57Z</time>
      </trkpt>
      <trkpt lat="48.01281" lon="-0.68897">
        <ele>84.8</ele>
        <time>2017-11-12T09:54:01Z</time>
      </trkpt>
      <trkpt lat="48.01304" lon="-0.68881">
        <ele>84.1</ele>
        <time>2017-11-12T09:54:05Z</time>
      </trkpt>
      <trkpt lat="48.01326" lon="-0.68862">
        <ele>83.2</ele>
        <time>2017-11-12T09:54:09Z</time>
      </trkpt>
      <trkpt lat="48.01348" lon="-0.68845">
        <ele>83</ele>
        <time>2017-11-12T09:54:13Z</time>
      </trkpt>
      <trkpt lat="48.0137" lon="-0.68833">
        <ele>83.3</ele>
        <time>2017-11-12T09:54:17Z</time>
      </trkpt>
      <trkpt lat="48.01389" lon="-0.68824">
        <ele>84.3</ele>
        <time>2017-11-12T09:54:21Z</time>
      </trkpt>
      <trkpt lat="48.01405" lon="-0.68813">
        <ele>85.5</ele>
        <time>2017-11-12T09:54:25Z</time>
      </trkpt>
      <trkpt lat="48.01417" lon="-0.68798">
        <ele>86.3</ele>
        <time>2017-11-12T09:54:29Z</time>
      </trkpt>
      <trkpt lat="48.01429" lon="-0.68783">
        <ele>87.2</ele>
        <time>2017-11-12T09:54:33Z</time>
      </trkpt>
      <trkpt lat="48.01442" lon="-0.68767">
        <ele>88.3</ele>
        <time>2017-11-12T09:54:37Z</time>
      </trkpt>
      <trkpt lat="48.01455" lon="-0.68751">
        <ele>89.4</ele>
        <time>2017-11-12T09:54:41Z</time>
      </trkpt>
      <trkpt lat="48.01468" lon="-0.68735">
        <ele>89.8</ele>
        <time>2017-11-12T09:54:45Z</time>
      </trkpt>
      <trkpt lat="48.01481" lon="-0.6872">
        <ele>90.4</ele>
        <time>2017-11-12T09:54:49Z</time>
      </trkpt>
      <trkpt lat="48.01495" lon="-0.68704">
        <ele>90.9</ele>
        <time>2017-11-12T09:54:53Z</time>
      </trkpt>
      <trkpt lat="48.0151" lon="-0.68686">
        <ele>91</ele>
        <time>2017-11-12T09:54:57Z</time>
      </trkpt>
      <trkpt lat="48.01525" lon="-0.68671">
        <ele>91</ele>
        <time>2017-11-12T09:55:01Z</time>
      </trkpt>
      <trkpt lat="48.0154" lon="-0.68656">
        <ele>90.8</ele>
        <time>2017-11-12T09:55:05Z</time>
      </trkpt>
      <trkpt lat="48.01557" lon="-0.68642">
        <ele>90.1</ele>
        <time>2017-11-12T09:55:09Z</time>
      </trkpt>
      <trkpt lat="48.01575" lon="-0.68627">
        <ele>90.1</ele>
        <time>2017-11-12T09:55:13Z</time>
      </trkpt>
      <trkpt lat="48.01593" lon="-0.68613">
        <ele>89.6</ele>
        <time>2017-11-12T09:55:17Z</time>
      </trkpt>
      <trkpt lat="48.01612" lon="-0.68599">
        <ele>89</ele>
        <time>2017-11-12T09:55:21Z</time>
      </trkpt>
      <trkpt lat="48.01632" lon="-0.68583">
        <ele>88.2</ele>
        <time>2017-11-12T09:55:25Z</time>
      </trkpt>
      <trkpt lat="48.01653" lon="-0.68567">
        <ele>87.5</ele>
        <time>2017-11-12T09:55:29Z</time>
      </trkpt>
      <trkpt lat="48.01676" lon="-0.6855">
        <ele>86.7</ele>
        <time>2017-11-12T09:55:33Z</time>
      </trkpt>
      <trkpt lat="48.017" lon="-0.68531">
        <ele>85.8</ele>
        <time>2017-11-12T09:55:37Z</time>
      </trkpt>
      <trkpt lat="48.01725" lon="-0.6851">
        <ele>84.9</ele>
        <time>2017-11-12T09:55:41Z</time>
      </trkpt>
      <trkpt lat="48.01751" lon="-0.68488">
        <ele>83.9</ele>
        <time>2017-11-12T09:55:45Z</time>
      </trkpt>
      <trkpt lat="48.01777" lon="-0.68468">
        <ele>83</ele>
        <time>2017-11-12T09:55:49Z</time>
      </trkpt>
      <trkpt lat="48.01801" lon="-0.6845">
        <ele>82.8</ele>
        <time>2017-11-12T09:55:53Z</time>
      </trkpt>
      <trkpt lat="48.01826" lon="-0.68431">
        <ele>83.5</ele>
        <time>2017-11-12T09:55:57Z</time>
      </trkpt>
      <trkpt lat="48.01849" lon="-0.68413">
        <ele>83.6</ele>
        <time>2017-11-12T09:56:01Z</time>
      </trkpt>
      <trkpt lat="48.01872" lon="-0.68396">
        <ele>83.7</ele>
        <time>2017-11-12T09:56:05Z</time>
      </trkpt>
      <trkpt lat="48.01894" lon="-0.68379">
        <ele>83.7</ele>
        <time>2017-11-12T09:56:09Z</time>
      </trkpt>
      <trkpt lat="48.01917" lon="-0.68361">
        <ele>83</ele>
        <time>2017-11-12T09:56:13Z</time>
      </trkpt>
      <trkpt lat="48.0194" lon="-0.68344">
        <ele>83.6</ele>
        <time>2017-11-12T09:56:17Z</time>
      </trkpt>
      <trkpt lat="48.01962" lon="-0.68327">
        <ele>83.7</ele>
        <time>2017-11-12T09:56:21Z</time>
      </trkpt>
      <trkpt lat="48.01983" lon="-0.68311">
        <ele>84.7</ele>
        <time>2017-11-12T09:56:25Z</time>
      </trkpt>
      <trkpt lat="48.02002" lon="-0.68296">
        <ele>85.3</ele>
        <time>2017-11-12T09:56:29Z</time>
      </trkpt>
      <trkpt lat="48.02019" lon="-0.68283">
        <ele>85.3</ele>
        <time>2017-11-12T09:56:33Z</time>
      </trkpt>
      <trkpt lat="48.02035" lon="-0.6827">
        <ele>85.5</ele>
        <time>2017-11-12T09:56:37Z</time>
      </trkpt>
      <trkpt lat="48.0205" lon="-0.68259">
        <ele>85.8</ele>
        <time>2017-11-12T09:56:41Z</time>
      </trkpt>
      <trkpt lat="48.02063" lon="-0.68248">
        <ele>86.1</ele>
        <time>2017-11-12T09:56:45Z</time>
      </trkpt>
      <trkpt lat="48.02075" lon="-0.68238">
        <ele>86.4</ele>
        <time>2017-11-12T09:56:49Z</time>
      </trkpt>
      <trkpt lat="48.02081" lon="-0.68232">
        <ele>86.7</ele>
        <time>2017-11-12T09:56:53Z</time>
      </trkpt>
      <trkpt lat="48.02085" lon="-0.6823">
        <ele>86.7</ele>
        <time>2017-11-12T09:56:57Z</time>
      </trkpt>
      <trkpt lat="48.02093" lon="-0.68235">
        <ele>86.3</ele>
        <time>2017-11-12T09:57:01Z</time>
      </trkpt>
      <trkpt lat="48.02105" lon="-0.68247">
        <ele>86</ele>
        <time>2017-11-12T09:57:05Z</time>
      </trkpt>
      <trkpt lat="48.02117" lon="-0.68265">
        <ele>85.3</ele>
        <time>2017-11-12T09:57:09Z</time>
      </trkpt>
      <trkpt lat="48.0213" lon="-0.68287">
        <ele>84.7</ele>
        <time>2017-11-12T09:57:13Z</time>
      </trkpt>
      <trkpt lat="48.02144" lon="-0.68311">
        <ele>83.8</ele>
        <time>2017-11-12T09:57:17Z</time>
      </trkpt>
      <trkpt lat="48.02157" lon="-0.68335">
        <ele>83.6</ele>
        <time>2017-11-12T09:57:21Z</time>
      </trkpt>
      <trkpt lat="48.02171" lon="-0.68359">
        <ele>83.1</ele>
        <time>2017-11-12T09:57:25Z</time>
      </trkpt>
      <trkpt lat="48.02184" lon="-0.68383">
        <ele>83</ele>
        <time>2017-11-12T09:57:29Z</time>
      </trkpt>
      <trkpt lat="48.02198" lon="-0.68407">
        <ele>83.1</ele>
        <time>2017-11-12T09:57:33Z</time>
      </trkpt>
      <trkpt lat="48.02211" lon="-0.68432">
        <ele>83.6</ele>
        <time>2017-11-12T09:57:37Z</time>
      </trkpt>
      <trkpt lat="48.02224" lon="-0.68454">
        <ele>84.5</ele>
        <time>2017-11-12T09:57:41Z</time>
      </trkpt>
      <trkpt lat="48.02236" lon="-0.68477">
        <ele>85.5</ele>
        <time>2017-11-12T09:57:45Z</time>
      </trkpt>
      <trkpt lat="48.02249" lon="-0.68499">
        <ele>85.9</ele>
        <time>2017-11-12T09:57:49Z</time>
      </trkpt>
      <trkpt lat="48.02261" lon="-0.6852">
        <ele>86.4</ele>
        <time>2017-11-12T09:57:53Z</time>
      </trkpt>
      <trkpt lat="48.02273" lon="-0.68542">
        <ele>86.9</ele>
        <time>2017-11-12T09:57:57Z</time>
      </trkpt>
      <trkpt lat="48.02286" lon="-0.68566">
        <ele>87.9</ele>
        <time>2017-11-12T09:58:01Z</time>
      </trkpt>
      <trkpt lat="48.02299" lon="-0.68588">
        <ele>88.8</ele>
        <time>2017-11-12T09:58:05Z</time>
      </trkpt>
      <trkpt lat="48.02311" lon="-0.6861">
        <ele>89.2</ele>
        <time>2017-11-12T09:58:09Z</time>
      </trkpt>
      <trkpt lat="48.02322" lon="-0.6863">
        <ele>90</ele>
        <time>2017-11-12T09:58:13Z</time>
      </trkpt>
      <trkpt lat="48.02332" lon="-0.68648">
        <ele>90.9</ele>
        <time>2017-11-12T09:58:17Z</time>
      </trkpt>
      <trkpt lat="48.02342" lon="-0.68665">
        <ele>91.3</ele>
        <time>2017-11-12T09:58:21Z</time>
      </trkpt>
      <trkpt lat="48.02351" lon="-0.68683">
        <ele>92.2</ele>
        <time>2017-11-12T09:58:25Z</time>
      </trkpt>
      <trkpt lat="48.0236" lon="-0.687">
        <ele>93</ele>
        <time>2017-11-12T09:58:29Z</time>
      </trkpt>
      <trkpt lat="48.02369" lon="-0.68715">
        <ele>93.5</ele>
        <time>2017-11-12T09:58:33Z</time>
      </trkpt>
      <trkpt lat="48.02377" lon="-0.6873">
        <ele>94.3</ele>
        <time>2017-11-12T09:58:37Z</time>
      </trkpt>
      <trkpt lat="48.02386" lon="-0.68746">
        <ele>94.9</ele>
        <time>2017-11-12T09:58:41Z</time>
      </trkpt>
      <trkpt lat="48.02395" lon="-0.68761">
        <ele>95.2</ele>
        <time>2017-11-12T09:58:45Z</time>
      </trkpt>
      <trkpt lat="48.02402" lon="-0.68775">
        <ele>95.5</ele>
        <time>2017-11-12T09:58:49Z</time>
      </trkpt>
      <trkpt lat="48.0241" lon="-0.68789">
        <ele>96.2</ele>
        <time>2017-11-12T09:58:53Z</time>
      </trkpt>
      <trkpt lat="48.02419" lon="-0.68803">
        <ele>97</ele>
        <time>2017-11-12T09:58:57Z</time>
      </trkpt>
      <trkpt lat="48.02427" lon="-0.68816">
        <ele>97.4</ele>
        <time>2017-11-12T09:59:01Z</time>
      </trkpt>
      <trkpt lat="48.02437" lon="-0.68823">
        <ele>97.7</ele>
        <time>2017-11-12T09:59:05Z</time>
      </trkpt>
      <trkpt lat="48.02449" lon="-0.68811">
        <ele>98.2</ele>
        <time>2017-11-12T09:59:09Z</time>
      </trkpt>
      <trkpt lat="48.0246" lon="-0.68798">
        <ele>98.6</ele>
        <time>2017-11-12T09:59:13Z</time>
      </trkpt>
      <trkpt lat="48.02473" lon="-0.68785">
        <ele>99</ele>
        <time>2017-11-12T09:59:17Z</time>
      </trkpt>
      <trkpt lat="48.02486" lon="-0.68773">
        <ele>98.9</ele>
        <time>2017-11-12T09:59:21Z</time>
      </trkpt>
      <trkpt lat="48.02499" lon="-0.68766">
        <ele>99</ele>
        <time>2017-11-12T09:59:25Z</time>
      </trkpt>
      <trkpt lat="48.02513" lon="-0.68764">
        <ele>99.5</ele>
        <time>2017-11-12T09:59:29Z</time>
      </trkpt>
      <trkpt lat="48.02526" lon="-0.68763">
        <ele>99.9</ele>
        <time>2017-11-12T09:59:33Z</time>
      </trkpt>
      <trkpt lat="48.0254" lon="-0.68763">
        <ele>100</ele>
        <time>2017-11-12T09:59:37Z</time>
      </trkpt>
      <trkpt lat="48.02555" lon="-0.68765">
        <ele>100</ele>
        <time>2017-11-12T09:59:41Z</time>
      </trkpt>
      <trkpt lat="48.02569" lon="-0.68767">
        <ele>100</ele>
        <time>2017-11-12T09:59:45Z</time>
      </trkpt>
      <trkpt lat="48.02583" lon="-0.68771">
        <ele>100</ele>
        <time>2017-11-12T09:59:49Z</time>
      </trkpt>
      <trkpt lat="48.02597" lon="-0.68776">
        <ele>100</ele>
        <time>2017-11-12T09:59:53Z</time>
      </trkpt>
      <trkpt lat="48.0261" lon="-0.6878">
        <ele>100.1</ele>
        <time>2017-11-12T09:59:57Z</time>
      </trkpt>
      <trkpt lat="48.02621" lon="-0.68785">
        <ele>100.2</ele>
        <time>2017-11-12T10:00:01Z</time>
      </trkpt>
      <trkpt lat="48.02632" lon="-0.68789">
        <ele>100.4</ele>
        <time>2017-11-12T10:00:05Z</time>
      </trkpt>
      <trkpt lat="48.02642" lon="-0.6879">
        <ele>100.3</ele>
        <time>2017-11-12T10:00:09Z</time>
      </trkpt>
      <trkpt lat="48.02651" lon="-0.68793">
        <ele>100.1</ele>
        <time>2017-11-12T10:00:13Z</time>
      </trkpt>
      <trkpt lat="48.02662" lon="-0.68796">
        <ele>99.8</ele>
        <time>2017-11-12T10:00:17Z</time>
      </trkpt>
      <trkpt lat="48.02675" lon="-0.68802">
        <ele>99.3</ele>
        <time>2017-11-12T10:00:21Z</time>
      </trkpt>
      <trkpt lat="48.0269" lon="-0.68808">
        <ele>98.4</ele>
        <time>2017-11-12T10:00:25Z</time>
      </trkpt>
      <trkpt lat="48.02705" lon="-0.68814">
        <ele>98</ele>
        <time>2017-11-12T10:00:29Z</time>
      </trkpt>
      <trkpt lat="48.02721" lon="-0.6882">
        <ele>97.6</ele>
        <time>2017-11-12T10:00:33Z</time>
      </trkpt>
      <trkpt lat="48.02738" lon="-0.68825">
        <ele>97</ele>
        <time>2017-11-12T10:00:37Z</time>
      </trkpt>
      <trkpt lat="48.02754" lon="-0.68831">
        <ele>96.6</ele>
        <time>2017-11-12T10:00:41Z</time>
      </trkpt>
      <trkpt lat="48.0277" lon="-0.68841">
        <ele>95.9</ele>
        <time>2017-11-12T10:00:45Z</time>
      </trkpt>
      <trkpt lat="48.02787" lon="-0.6885">
        <ele>95.1</ele>
        <time>2017-11-12T10:00:49Z</time>
      </trkpt>
      <trkpt lat="48.02806" lon="-0.68861">
        <ele>95</ele>
        <time>2017-11-12T10:00:53Z</time>
      </trkpt>
      <trkpt lat="48.02827" lon="-0.68871">
        <ele>94.1</ele>
        <time>2017-11-12T10:00:57Z</time>
      </trkpt>
      <trkpt lat="48.02846" lon="-0.68882">
        <ele>94.2</ele>
        <time>2017-11-12T10:01:01Z</time>
      </trkpt>
      <trkpt lat="48.02866" lon="-0.68889">
        <ele>93.8</ele>
        <time>2017-11-12T10:01:05Z</time>
      </trkpt>
      <trkpt lat="48.02884" lon="-0.689">
        <ele>93.6</ele>
        <time>2017-11-12T10:01:09Z</time>
      </trkpt>
      <trkpt lat="48.02906" lon="-0.6891">
        <ele>93.3</ele>
        <time>2017-11-12T10:01:13Z</time>
      </trkpt>
      <trkpt lat="48.02922" lon="-0.68917">
        <ele>92.8</ele>
        <time>2017-11-12T10:01:17Z</time>
      </trkpt>
      <trkpt lat="48.0294" lon="-0.68911">
        <ele>92.1</ele>
        <time>2017-11-12T10:01:21Z</time>
      </trkpt>
      <trkpt lat="48.0296" lon="-0.68902">
        <ele>91.4</ele>
        <time>2017-11-12T10:01:25Z</time>
      </trkpt>
      <trkpt lat="48.02983" lon="-0.68891">
        <ele>90.6</ele>
        <time>2017-11-12T10:01:29Z</time>
      </trkpt>
      <trkpt lat="48.03011" lon="-0.68879">
        <ele>89</ele>
        <time>2017-11-12T10:01:33Z</time>
      </trkpt>
      <trkpt lat="48.03039" lon="-0.68858">
        <ele>87.6</ele>
        <time>2017-11-12T10:01:37Z</time>
      </trkpt>
      <trkpt lat="48.0306" lon="-0.68832">
        <ele>86.8</ele>
        <time>2017-11-12T10:01:41Z</time>
      </trkpt>
      <trkpt lat="48.03092" lon="-0.6881">
        <ele>85.1</ele>
        <time>2017-11-12T10:01:45Z</time>
      </trkpt>
      <trkpt lat="48.03117" lon="-0.68796">
        <ele>84.5</ele>
        <time>2017-11-12T10:01:49Z</time>
      </trkpt>
      <trkpt lat="48.03138" lon="-0.68786">
        <ele>84</ele>
        <time>2017-11-12T10:01:53Z</time>
      </trkpt>
      <trkpt lat="48.03159" lon="-0.68777">
        <ele>84</ele>
        <time>2017-11-12T10:01:57Z</time>
      </trkpt>
      <trkpt lat="48.03182" lon="-0.68766">
        <ele>84</ele>
        <time>2017-11-12T10:02:01Z</time>
      </trkpt>
      <trkpt lat="48.03205" lon="-0.68755">
        <ele>83.7</ele>
        <time>2017-11-12T10:02:05Z</time>
      </trkpt>
      <trkpt lat="48.03227" lon="-0.68742">
        <ele>82.9</ele>
        <time>2017-11-12T10:02:09Z</time>
      </trkpt>
      <trkpt lat="48.03249" lon="-0.68732">
        <ele>82.4</ele>
        <time>2017-11-12T10:02:13Z</time>
      </trkpt>
      <trkpt lat="48.03269" lon="-0.68723">
        <ele>82</ele>
        <time>2017-11-12T10:02:17Z</time>
      </trkpt>
      <trkpt lat="48.0329" lon="-0.68713">
        <ele>82</ele>
        <time>2017-11-12T10:02:21Z</time>
      </trkpt>
      <trkpt lat="48.0331" lon="-0.68705">
        <ele>82</ele>
        <time>2017-11-12T10:02:25Z</time>
      </trkpt>
      <trkpt lat="48.03326" lon="-0.68699">
        <ele>82</ele>
        <time>2017-11-12T10:02:29Z</time>
      </trkpt>
      <trkpt lat="48.03335" lon="-0.68696">
        <ele>81.9</ele>
        <time>2017-11-12T10:02:34Z</time>
      </trkpt>
      <trkpt lat="48.0334" lon="-0.68694">
        <ele>81.7</ele>
        <time>2017-11-12T10:02:37Z</time>
      </trkpt>
      <trkpt lat="48.03347" lon="-0.68694">
        <ele>81.5</ele>
        <time>2017-11-12T10:02:41Z</time>
      </trkpt>
      <trkpt lat="48.03359" lon="-0.68691">
        <ele>81.1</ele>
        <time>2017-11-12T10:02:45Z</time>
      </trkpt>
      <trkpt lat="48.03374" lon="-0.68688">
        <ele>80.5</ele>
        <time>2017-11-12T10:02:49Z</time>
      </trkpt>
      <trkpt lat="48.03392" lon="-0.68683">
        <ele>79.8</ele>
        <time>2017-11-12T10:02:53Z</time>
      </trkpt>
      <trkpt lat="48.03412" lon="-0.6868">
        <ele>78.7</ele>
        <time>2017-11-12T10:02:57Z</time>
      </trkpt>
      <trkpt lat="48.03433" lon="-0.68675">
        <ele>77.7</ele>
        <time>2017-11-12T10:03:01Z</time>
      </trkpt>
      <trkpt lat="48.03455" lon="-0.68671">
        <ele>76.8</ele>
        <time>2017-11-12T10:03:05Z</time>
      </trkpt>
      <trkpt lat="48.03477" lon="-0.68668">
        <ele>75.7</ele>
        <time>2017-11-12T10:03:09Z</time>
      </trkpt>
      <trkpt lat="48.035" lon="-0.68669">
        <ele>74.1</ele>
        <time>2017-11-12T10:03:13Z</time>
      </trkpt>
      <trkpt lat="48.0352" lon="-0.6867">
        <ele>73.4</ele>
        <time>2017-11-12T10:03:17Z</time>
      </trkpt>
      <trkpt lat="48.03541" lon="-0.68669">
        <ele>72.6</ele>
        <time>2017-11-12T10:03:21Z</time>
      </trkpt>
      <trkpt lat="48.03564" lon="-0.68665">
        <ele>71.7</ele>
        <time>2017-11-12T10:03:25Z</time>
      </trkpt>
      <trkpt lat="48.03586" lon="-0.68659">
        <ele>71</ele>
        <time>2017-11-12T10:03:29Z</time>
      </trkpt>
      <trkpt lat="48.03607" lon="-0.68653">
        <ele>70.6</ele>
        <time>2017-11-12T10:03:33Z</time>
      </trkpt>
      <trkpt lat="48.03635" lon="-0.68647">
        <ele>69.4</ele>
        <time>2017-11-12T10:03:37Z</time>
      </trkpt>
      <trkpt lat="48.03662" lon="-0.6864">
        <ele>67.3</ele>
        <time>2017-11-12T10:03:41Z</time>
      </trkpt>
      <trkpt lat="48.03691" lon="-0.68631">
        <ele>65.5</ele>
        <time>2017-11-12T10:03:45Z</time>
      </trkpt>
      <trkpt lat="48.03717" lon="-0.68623">
        <ele>65.1</ele>
        <time>2017-11-12T10:03:49Z</time>
      </trkpt>
      <trkpt lat="48.0374" lon="-0.68614">
        <ele>65.6</ele>
        <time>2017-11-12T10:03:53Z</time>
      </trkpt>
      <trkpt lat="48.03761" lon="-0.68605">
        <ele>65.6</ele>
        <time>2017-11-12T10:03:57Z</time>
      </trkpt>
      <trkpt lat="48.03783" lon="-0.68601">
        <ele>64.8</ele>
        <time>2017-11-12T10:04:01Z</time>
      </trkpt>
      <trkpt lat="48.03807" lon="-0.68601">
        <ele>63.9</ele>
        <time>2017-11-12T10:04:05Z</time>
      </trkpt>
      <trkpt lat="48.03831" lon="-0.68605">
        <ele>62.3</ele>
        <time>2017-11-12T10:04:09Z</time>
      </trkpt>
      <trkpt lat="48.03855" lon="-0.68613">
        <ele>59.7</ele>
        <time>2017-11-12T10:04:13Z</time>
      </trkpt>
      <trkpt lat="48.0388" lon="-0.68613">
        <ele>58.2</ele>
        <time>2017-11-12T10:04:17Z</time>
      </trkpt>
      <trkpt lat="48.03905" lon="-0.68605">
        <ele>57.6</ele>
        <time>2017-11-12T10:04:21Z</time>
      </trkpt>
      <trkpt lat="48.03929" lon="-0.68592">
        <ele>57.1</ele>
        <time>2017-11-12T10:04:25Z</time>
      </trkpt>
      <trkpt lat="48.0395" lon="-0.68581">
        <ele>57.8</ele>
        <time>2017-11-12T10:04:29Z</time>
      </trkpt>
      <trkpt lat="48.0397" lon="-0.68587">
        <ele>59.2</ele>
        <time>2017-11-12T10:04:33Z</time>
      </trkpt>
      <trkpt lat="48.03987" lon="-0.68583">
        <ele>59</ele>
        <time>2017-11-12T10:04:37Z</time>
      </trkpt>
      <trkpt lat="48.04001" lon="-0.68574">
        <ele>59.2</ele>
        <time>2017-11-12T10:04:41Z</time>
      </trkpt>
      <trkpt lat="48.04015" lon="-0.68567">
        <ele>59.5</ele>
        <time>2017-11-12T10:04:45Z</time>
      </trkpt>
      <trkpt lat="48.04028" lon="-0.68559">
        <ele>59.6</ele>
        <time>2017-11-12T10:04:49Z</time>
      </trkpt>
      <trkpt lat="48.04034" lon="-0.6854">
        <ele>60.9</ele>
        <time>2017-11-12T10:04:53Z</time>
      </trkpt>
      <trkpt lat="48.04028" lon="-0.68522">
        <ele>62.2</ele>
        <time>2017-11-12T10:04:57Z</time>
      </trkpt>
      <trkpt lat="48.04018" lon="-0.68507">
        <ele>62.8</ele>
        <time>2017-11-12T10:05:01Z</time>
      </trkpt>
      <trkpt lat="48.04009" lon="-0.6849">
        <ele>63.2</ele>
        <time>2017-11-12T10:05:05Z</time>
      </trkpt>
      <trkpt lat="48.04002" lon="-0.68473">
        <ele>63.9</ele>
        <time>2017-11-12T10:05:09Z</time>
      </trkpt>
      <trkpt lat="48.03997" lon="-0.68455">
        <ele>64</ele>
        <time>2017-11-12T10:05:13Z</time>
      </trkpt>
      <trkpt lat="48.03993" lon="-0.68435">
        <ele>64.1</ele>
        <time>2017-11-12T10:05:17Z</time>
      </trkpt>
      <trkpt lat="48.03989" lon="-0.68415">
        <ele>64.4</ele>
        <time>2017-11-12T10:05:21Z</time>
      </trkpt>
      <trkpt lat="48.03984" lon="-0.68395">
        <ele>64.6</ele>
        <time>2017-11-12T10:05:25Z</time>
      </trkpt>
      <trkpt lat="48.03979" lon="-0.68373">
        <ele>64.3</ele>
        <time>2017-11-12T10:05:29Z</time>
      </trkpt>
      <trkpt lat="48.03974" lon="-0.68353">
        <ele>64.3</ele>
        <time>2017-11-12T10:05:33Z</time>
      </trkpt>
      <trkpt lat="48.03969" lon="-0.68332">
        <ele>65</ele>
        <time>2017-11-12T10:05:37Z</time>
      </trkpt>
      <trkpt lat="48.03965" lon="-0.68312">
        <ele>65.2</ele>
        <time>2017-11-12T10:05:41Z</time>
      </trkpt>
      <trkpt lat="48.0396" lon="-0.68292">
        <ele>65.4</ele>
        <time>2017-11-12T10:05:45Z</time>
      </trkpt>
      <trkpt lat="48.03955" lon="-0.68273">
        <ele>65.7</ele>
        <time>2017-11-12T10:05:49Z</time>
      </trkpt>
      <trkpt lat="48.03951" lon="-0.68253">
        <ele>66</ele>
        <time>2017-11-12T10:05:53Z</time>
      </trkpt>
      <trkpt lat="48.03947" lon="-0.68235">
        <ele>66</ele>
        <time>2017-11-12T10:05:57Z</time>
      </trkpt>
      <trkpt lat="48.03943" lon="-0.68216">
        <ele>66.1</ele>
        <time>2017-11-12T10:06:01Z</time>
      </trkpt>
      <trkpt lat="48.03939" lon="-0.68198">
        <ele>66.2</ele>
        <time>2017-11-12T10:06:05Z</time>
      </trkpt>
      <trkpt lat="48.03935" lon="-0.6818">
        <ele>66.3</ele>
        <time>2017-11-12T10:06:09Z</time>
      </trkpt>
      <trkpt lat="48.03931" lon="-0.68164">
        <ele>66.5</ele>
        <time>2017-11-12T10:06:13Z</time>
      </trkpt>
      <trkpt lat="48.03927" lon="-0.68146">
        <ele>66.6</ele>
        <time>2017-11-12T10:06:17Z</time>
      </trkpt>
      <trkpt lat="48.03927" lon="-0.68126">
        <ele>66.5</ele>
        <time>2017-11-12T10:06:21Z</time>
      </trkpt>
      <trkpt lat="48.03931" lon="-0.68101">
        <ele>65.6</ele>
        <time>2017-11-12T10:06:25Z</time>
      </trkpt>
      <trkpt lat="48.03929" lon="-0.68072">
        <ele>64.5</ele>
        <time>2017-11-12T10:06:29Z</time>
      </trkpt>
      <trkpt lat="48.03924" lon="-0.6804">
        <ele>63.3</ele>
        <time>2017-11-12T10:06:33Z</time>
      </trkpt>
      <trkpt lat="48.03919" lon="-0.68011">
        <ele>63</ele>
        <time>2017-11-12T10:06:37Z</time>
      </trkpt>
      <trkpt lat="48.03916" lon="-0.67975">
        <ele>62.2</ele>
        <time>2017-11-12T10:06:41Z</time>
      </trkpt>
      <trkpt lat="48.03914" lon="-0.67935">
        <ele>61.1</ele>
        <time>2017-11-12T10:06:45Z</time>
      </trkpt>
      <trkpt lat="48.03916" lon="-0.67894">
        <ele>60.1</ele>
        <time>2017-11-12T10:06:49Z</time>
      </trkpt>
      <trkpt lat="48.03925" lon="-0.67884">
        <ele>60.9</ele>
        <time>2017-11-12T10:06:53Z</time>
      </trkpt>
      <trkpt lat="48.03933" lon="-0.67875">
        <ele>62</ele>
        <time>2017-11-12T10:06:57Z</time>
      </trkpt>
      <trkpt lat="48.03939" lon="-0.67864">
        <ele>63.1</ele>
        <time>2017-11-12T10:07:01Z</time>
      </trkpt>
      <trkpt lat="48.03943" lon="-0.67854">
        <ele>64.4</ele>
        <time>2017-11-12T10:07:05Z</time>
      </trkpt>
      <trkpt lat="48.03948" lon="-0.67842">
        <ele>65.8</ele>
        <time>2017-11-12T10:07:09Z</time>
      </trkpt>
      <trkpt lat="48.03951" lon="-0.67831">
        <ele>66.8</ele>
        <time>2017-11-12T10:07:13Z</time>
      </trkpt>
      <trkpt lat="48.03955" lon="-0.67822">
        <ele>67.7</ele>
        <time>2017-11-12T10:07:17Z</time>
      </trkpt>
      <trkpt lat="48.03958" lon="-0.67814">
        <ele>68.5</ele>
        <time>2017-11-12T10:07:21Z</time>
      </trkpt>
      <trkpt lat="48.03961" lon="-0.67804">
        <ele>69.5</ele>
        <time>2017-11-12T10:07:25Z</time>
      </trkpt>
      <trkpt lat="48.03965" lon="-0.67796">
        <ele>70.4</ele>
        <time>2017-11-12T10:07:29Z</time>
      </trkpt>
      <trkpt lat="48.03968" lon="-0.67788">
        <ele>71.2</ele>
        <time>2017-11-12T10:07:34Z</time>
      </trkpt>
      <trkpt lat="48.03972" lon="-0.67782">
        <ele>71.9</ele>
        <time>2017-11-12T10:07:37Z</time>
      </trkpt>
      <trkpt lat="48.03976" lon="-0.67776">
        <ele>72.4</ele>
        <time>2017-11-12T10:07:41Z</time>
      </trkpt>
      <trkpt lat="48.0398" lon="-0.67769">
        <ele>72.9</ele>
        <time>2017-11-12T10:07:45Z</time>
      </trkpt>
      <trkpt lat="48.03985" lon="-0.67761">
        <ele>73.5</ele>
        <time>2017-11-12T10:07:49Z</time>
      </trkpt>
      <trkpt lat="48.03989" lon="-0.67755">
        <ele>74</ele>
        <time>2017-11-12T10:07:53Z</time>
      </trkpt>
      <trkpt lat="48.03993" lon="-0.67749">
        <ele>74.5</ele>
        <time>2017-11-12T10:07:57Z</time>
      </trkpt>
      <trkpt lat="48.03996" lon="-0.67743">
        <ele>75</ele>
        <time>2017-11-12T10:08:01Z</time>
      </trkpt>
      <trkpt lat="48.03999" lon="-0.67738">
        <ele>75.4</ele>
        <time>2017-11-12T10:08:05Z</time>
      </trkpt>
      <trkpt lat="48.04003" lon="-0.67731">
        <ele>75.7</ele>
        <time>2017-11-12T10:08:09Z</time>
      </trkpt>
      <trkpt lat="48.04007" lon="-0.67723">
        <ele>76</ele>
        <time>2017-11-12T10:08:13Z</time>
      </trkpt>
      <trkpt lat="48.04011" lon="-0.67716">
        <ele>76</ele>
        <time>2017-11-12T10:08:17Z</time>
      </trkpt>
      <trkpt lat="48.04016" lon="-0.67705">
        <ele>76</ele>
        <time>2017-11-12T10:08:21Z</time>
      </trkpt>
      <trkpt lat="48.04022" lon="-0.67693">
        <ele>76</ele>
        <time>2017-11-12T10:08:25Z</time>
      </trkpt>
      <trkpt lat="48.04028" lon="-0.6768">
        <ele>75.5</ele>
        <time>2017-11-12T10:08:29Z</time>
      </trkpt>
      <trkpt lat="48.04034" lon="-0.67666">
        <ele>75.2</ele>
        <time>2017-11-12T10:08:33Z</time>
      </trkpt>
      <trkpt lat="48.0404" lon="-0.67656">
        <ele>75.3</ele>
        <time>2017-11-12T10:08:37Z</time>
      </trkpt>
      <trkpt lat="48.04048" lon="-0.67646">
        <ele>75.2</ele>
        <time>2017-11-12T10:08:41Z</time>
      </trkpt>
      <trkpt lat="48.04056" lon="-0.6763">
        <ele>75</ele>
        <time>2017-11-12T10:08:45Z</time>
      </trkpt>
      <trkpt lat="48.04066" lon="-0.67613">
        <ele>75</ele>
        <time>2017-11-12T10:08:49Z</time>
      </trkpt>
      <trkpt lat="48.04074" lon="-0.67599">
        <ele>75</ele>
        <time>2017-11-12T10:08:53Z</time>
      </trkpt>
      <trkpt lat="48.04083" lon="-0.67584">
        <ele>75</ele>
        <time>2017-11-12T10:08:57Z</time>
      </trkpt>
      <trkpt lat="48.04093" lon="-0.67571">
        <ele>75</ele>
        <time>2017-11-12T10:09:01Z</time>
      </trkpt>
      <trkpt lat="48.04102" lon="-0.67557">
        <ele>75</ele>
        <time>2017-11-12T10:09:05Z</time>
      </trkpt>
      <trkpt lat="48.04113" lon="-0.67542">
        <ele>75</ele>
        <time>2017-11-12T10:09:09Z</time>
      </trkpt>
      <trkpt lat="48.04127" lon="-0.67529">
        <ele>75.6</ele>
        <time>2017-11-12T10:09:13Z</time>
      </trkpt>
      <trkpt lat="48.04142" lon="-0.67515">
        <ele>76</ele>
        <time>2017-11-12T10:09:17Z</time>
      </trkpt>
      <trkpt lat="48.04155" lon="-0.67502">
        <ele>76</ele>
        <time>2017-11-12T10:09:21Z</time>
      </trkpt>
      <trkpt lat="48.04168" lon="-0.67488">
        <ele>76.1</ele>
        <time>2017-11-12T10:09:25Z</time>
      </trkpt>
      <trkpt lat="48.0418" lon="-0.67473">
        <ele>76.5</ele>
        <time>2017-11-12T10:09:29Z</time>
      </trkpt>
      <trkpt lat="48.04191" lon="-0.67458">
        <ele>76.9</ele>
        <time>2017-11-12T10:09:33Z</time>
      </trkpt>
      <trkpt lat="48.04201" lon="-0.67441">
        <ele>77.2</ele>
        <time>2017-11-12T10:09:37Z</time>
      </trkpt>
      <trkpt lat="48.04209" lon="-0.67424">
        <ele>77.5</ele>
        <time>2017-11-12T10:09:41Z</time>
      </trkpt>
      <trkpt lat="48.04217" lon="-0.6741">
        <ele>77.8</ele>
        <time>2017-11-12T10:09:45Z</time>
      </trkpt>
      <trkpt lat="48.04225" lon="-0.67395">
        <ele>78</ele>
        <time>2017-11-12T10:09:49Z</time>
      </trkpt>
      <trkpt lat="48.04233" lon="-0.6738">
        <ele>77.8</ele>
        <time>2017-11-12T10:09:53Z</time>
      </trkpt>
      <trkpt lat="48.04242" lon="-0.67366">
        <ele>77.8</ele>
        <time>2017-11-12T10:09:57Z</time>
      </trkpt>
      <trkpt lat="48.04252" lon="-0.67352">
        <ele>78</ele>
        <time>2017-11-12T10:10:01Z</time>
      </trkpt>
      <trkpt lat="48.04261" lon="-0.67338">
        <ele>78</ele>
        <time>2017-11-12T10:10:05Z</time>
      </trkpt>
      <trkpt lat="48.04273" lon="-0.67325">
        <ele>78</ele>
        <time>2017-11-12T10:10:09Z</time>
      </trkpt>
      <trkpt lat="48.04285" lon="-0.67314">
        <ele>78.3</ele>
        <time>2017-11-12T10:10:13Z</time>
      </trkpt>
      <trkpt lat="48.04297" lon="-0.67304">
        <ele>78.7</ele>
        <time>2017-11-12T10:10:17Z</time>
      </trkpt>
      <trkpt lat="48.04309" lon="-0.67295">
        <ele>79</ele>
        <time>2017-11-12T10:10:21Z</time>
      </trkpt>
      <trkpt lat="48.04321" lon="-0.67287">
        <ele>79</ele>
        <time>2017-11-12T10:10:25Z</time>
      </trkpt>
      <trkpt lat="48.04331" lon="-0.67278">
        <ele>79</ele>
        <time>2017-11-12T10:10:29Z</time>
      </trkpt>
      <trkpt lat="48.04339" lon="-0.67268">
        <ele>79</ele>
        <time>2017-11-12T10:10:33Z</time>
      </trkpt>
      <trkpt lat="48.04347" lon="-0.67259">
        <ele>79</ele>
        <time>2017-11-12T10:10:37Z</time>
      </trkpt>
      <trkpt lat="48.04355" lon="-0.67248">
        <ele>78.9</ele>
        <time>2017-11-12T10:10:41Z</time>
      </trkpt>
      <trkpt lat="48.04362" lon="-0.67237">
        <ele>78.6</ele>
        <time>2017-11-12T10:10:45Z</time>
      </trkpt>
      <trkpt lat="48.04367" lon="-0.67224">
        <ele>78.3</ele>
        <time>2017-11-12T10:10:49Z</time>
      </trkpt>
      <trkpt lat="48.04373" lon="-0.67212">
        <ele>78.5</ele>
        <time>2017-11-12T10:10:53Z</time>
      </trkpt>
      <trkpt lat="48.0438" lon="-0.67203">
        <ele>78.4</ele>
        <time>2017-11-12T10:10:57Z</time>
      </trkpt>
      <trkpt lat="48.04387" lon="-0.67194">
        <ele>78.1</ele>
        <time>2017-11-12T10:11:01Z</time>
      </trkpt>
      <trkpt lat="48.04394" lon="-0.67187">
        <ele>78</ele>
        <time>2017-11-12T10:11:05Z</time>
      </trkpt>
      <trkpt lat="48.04401" lon="-0.67178">
        <ele>78</ele>
        <time>2017-11-12T10:11:09Z</time>
      </trkpt>
      <trkpt lat="48.04409" lon="-0.67167">
        <ele>78</ele>
        <time>2017-11-12T10:11:13Z</time>
      </trkpt>
      <trkpt lat="48.04419" lon="-0.67153">
        <ele>77.4</ele>
        <time>2017-11-12T10:11:17Z</time>
      </trkpt>
      <trkpt lat="48.0443" lon="-0.67137">
        <ele>76.5</ele>
        <time>2017-11-12T10:11:21Z</time>
      </trkpt>
      <trkpt lat="48.04442" lon="-0.67121">
        <ele>76.1</ele>
        <time>2017-11-12T10:11:25Z</time>
      </trkpt>
      <trkpt lat="48.04453" lon="-0.67106">
        <ele>75.7</ele>
        <time>2017-11-12T10:11:29Z</time>
      </trkpt>
      <trkpt lat="48.04462" lon="-0.67091">
        <ele>75.4</ele>
        <time>2017-11-12T10:11:33Z</time>
      </trkpt>
      <trkpt lat="48.04473" lon="-0.67074">
        <ele>75</ele>
        <time>2017-11-12T10:11:37Z</time>
      </trkpt>
      <trkpt lat="48.04486" lon="-0.67058">
        <ele>74.5</ele>
        <time>2017-11-12T10:11:41Z</time>
      </trkpt>
      <trkpt lat="48.04495" lon="-0.67044">
        <ele>74.6</ele>
        <time>2017-11-12T10:11:45Z</time>
      </trkpt>
      <trkpt lat="48.04508" lon="-0.67034">
        <ele>74.5</ele>
        <time>2017-11-12T10:11:49Z</time>
      </trkpt>
      <trkpt lat="48.04518" lon="-0.67029">
        <ele>74.3</ele>
        <time>2017-11-12T10:11:53Z</time>
      </trkpt>
      <trkpt lat="48.04527" lon="-0.67028">
        <ele>74</ele>
        <time>2017-11-12T10:12:25Z</time>
      </trkpt>
      <trkpt lat="48.04526" lon="-0.67037">
        <ele>73.7</ele>
        <time>2017-11-12T10:12:29Z</time>
      </trkpt>
      <trkpt lat="48.04526" lon="-0.67056">
        <ele>73</ele>
        <time>2017-11-12T10:12:33Z</time>
      </trkpt>
      <trkpt lat="48.04527" lon="-0.67075">
        <ele>72.3</ele>
        <time>2017-11-12T10:12:37Z</time>
      </trkpt>
      <trkpt lat="48.04522" lon="-0.67103">
        <ele>72.4</ele>
        <time>2017-11-12T10:12:41Z</time>
      </trkpt>
      <trkpt lat="48.04522" lon="-0.67129">
        <ele>72.4</ele>
        <time>2017-11-12T10:12:45Z</time>
      </trkpt>
      <trkpt lat="48.04529" lon="-0.6715">
        <ele>72.4</ele>
        <time>2017-11-12T10:12:49Z</time>
      </trkpt>
      <trkpt lat="48.0454" lon="-0.67173">
        <ele>72.6</ele>
        <time>2017-11-12T10:12:53Z</time>
      </trkpt>
      <trkpt lat="48.04551" lon="-0.672">
        <ele>72.2</ele>
        <time>2017-11-12T10:12:57Z</time>
      </trkpt>
      <trkpt lat="48.04555" lon="-0.67231">
        <ele>72.4</ele>
        <time>2017-11-12T10:13:01Z</time>
      </trkpt>
      <trkpt lat="48.04555" lon="-0.67257">
        <ele>72.7</ele>
        <time>2017-11-12T10:13:05Z</time>
      </trkpt>
      <trkpt lat="48.04555" lon="-0.67282">
        <ele>71.9</ele>
        <time>2017-11-12T10:13:09Z</time>
      </trkpt>
      <trkpt lat="48.04554" lon="-0.67308">
        <ele>71.1</ele>
        <time>2017-11-12T10:13:13Z</time>
      </trkpt>
      <trkpt lat="48.04549" lon="-0.67331">
        <ele>70.7</ele>
        <time>2017-11-12T10:13:17Z</time>
      </trkpt>
      <trkpt lat="48.04542" lon="-0.67348">
        <ele>69.3</ele>
        <time>2017-11-12T10:13:21Z</time>
      </trkpt>
      <trkpt lat="48.04529" lon="-0.67368">
        <ele>67.7</ele>
        <time>2017-11-12T10:13:25Z</time>
      </trkpt>
      <trkpt lat="48.04513" lon="-0.67395">
        <ele>63.1</ele>
        <time>2017-11-12T10:13:29Z</time>
      </trkpt>
      <trkpt lat="48.04492" lon="-0.67428">
        <ele>59.9</ele>
        <time>2017-11-12T10:13:33Z</time>
      </trkpt>
      <trkpt lat="48.04477" lon="-0.67461">
        <ele>57.2</ele>
        <time>2017-11-12T10:13:37Z</time>
      </trkpt>
      <trkpt lat="48.04463" lon="-0.67501">
        <ele>55.3</ele>
        <time>2017-11-12T10:13:41Z</time>
      </trkpt>
      <trkpt lat="48.04451" lon="-0.67541">
        <ele>54.2</ele>
        <time>2017-11-12T10:13:45Z</time>
      </trkpt>
      <trkpt lat="48.04447" lon="-0.67568">
        <ele>52.9</ele>
        <time>2017-11-12T10:13:49Z</time>
      </trkpt>
      <trkpt lat="48.04455" lon="-0.67595">
        <ele>52.8</ele>
        <time>2017-11-12T10:13:53Z</time>
      </trkpt>
      <trkpt lat="48.04465" lon="-0.67609">
        <ele>53</ele>
        <time>2017-11-12T10:13:57Z</time>
      </trkpt>
      <trkpt lat="48.04476" lon="-0.6762">
        <ele>53</ele>
        <time>2017-11-12T10:14:01Z</time>
      </trkpt>
      <trkpt lat="48.0449" lon="-0.67632">
        <ele>53</ele>
        <time>2017-11-12T10:14:05Z</time>
      </trkpt>
      <trkpt lat="48.04504" lon="-0.67639">
        <ele>53</ele>
        <time>2017-11-12T10:14:09Z</time>
      </trkpt>
      <trkpt lat="48.04518" lon="-0.67653">
        <ele>53</ele>
        <time>2017-11-12T10:14:13Z</time>
      </trkpt>
      <trkpt lat="48.04534" lon="-0.6767">
        <ele>53.2</ele>
        <time>2017-11-12T10:14:17Z</time>
      </trkpt>
      <trkpt lat="48.0455" lon="-0.67688">
        <ele>54.4</ele>
        <time>2017-11-12T10:14:21Z</time>
      </trkpt>
      <trkpt lat="48.04565" lon="-0.67706">
        <ele>55.9</ele>
        <time>2017-11-12T10:14:25Z</time>
      </trkpt>
      <trkpt lat="48.04578" lon="-0.67723">
        <ele>56.8</ele>
        <time>2017-11-12T10:14:29Z</time>
      </trkpt>
      <trkpt lat="48.0459" lon="-0.67736">
        <ele>57.8</ele>
        <time>2017-11-12T10:14:33Z</time>
      </trkpt>
      <trkpt lat="48.04601" lon="-0.67751">
        <ele>58.7</ele>
        <time>2017-11-12T10:14:37Z</time>
      </trkpt>
      <trkpt lat="48.04612" lon="-0.67765">
        <ele>59</ele>
        <time>2017-11-12T10:14:41Z</time>
      </trkpt>
      <trkpt lat="48.04622" lon="-0.67778">
        <ele>59.8</ele>
        <time>2017-11-12T10:14:45Z</time>
      </trkpt>
      <trkpt lat="48.0463" lon="-0.67792">
        <ele>60.5</ele>
        <time>2017-11-12T10:14:49Z</time>
      </trkpt>
      <trkpt lat="48.04638" lon="-0.67805">
        <ele>61</ele>
        <time>2017-11-12T10:14:53Z</time>
      </trkpt>
      <trkpt lat="48.04647" lon="-0.67816">
        <ele>61.9</ele>
        <time>2017-11-12T10:14:57Z</time>
      </trkpt>
      <trkpt lat="48.04655" lon="-0.67829">
        <ele>62.5</ele>
        <time>2017-11-12T10:15:01Z</time>
      </trkpt>
      <trkpt lat="48.04665" lon="-0.67845">
        <ele>63.3</ele>
        <time>2017-11-12T10:15:05Z</time>
      </trkpt>
      <trkpt lat="48.04674" lon="-0.6786">
        <ele>64.2</ele>
        <time>2017-11-12T10:15:09Z</time>
      </trkpt>
      <trkpt lat="48.0468" lon="-0.67871">
        <ele>64.6</ele>
        <time>2017-11-12T10:15:13Z</time>
      </trkpt>
      <trkpt lat="48.04684" lon="-0.6788">
        <ele>65.1</ele>
        <time>2017-11-12T10:15:17Z</time>
      </trkpt>
      <trkpt lat="48.0469" lon="-0.67889">
        <ele>65.7</ele>
        <time>2017-11-12T10:15:21Z</time>
      </trkpt>
      <trkpt lat="48.04695" lon="-0.67898">
        <ele>66</ele>
        <time>2017-11-12T10:15:25Z</time>
      </trkpt>
      <trkpt lat="48.047" lon="-0.67908">
        <ele>66.1</ele>
        <time>2017-11-12T10:15:29Z</time>
      </trkpt>
      <trkpt lat="48.04705" lon="-0.67918">
        <ele>66.4</ele>
        <time>2017-11-12T10:15:33Z</time>
      </trkpt>
      <trkpt lat="48.04711" lon="-0.67929">
        <ele>66.6</ele>
        <time>2017-11-12T10:15:37Z</time>
      </trkpt>
      <trkpt lat="48.04718" lon="-0.67943">
        <ele>66.9</ele>
        <time>2017-11-12T10:15:41Z</time>
      </trkpt>
      <trkpt lat="48.04724" lon="-0.67956">
        <ele>67.1</ele>
        <time>2017-11-12T10:15:45Z</time>
      </trkpt>
      <trkpt lat="48.0473" lon="-0.67968">
        <ele>67.5</ele>
        <time>2017-11-12T10:15:49Z</time>
      </trkpt>
      <trkpt lat="48.04737" lon="-0.6798">
        <ele>68.2</ele>
        <time>2017-11-12T10:15:53Z</time>
      </trkpt>
      <trkpt lat="48.04743" lon="-0.67991">
        <ele>68.7</ele>
        <time>2017-11-12T10:15:57Z</time>
      </trkpt>
      <trkpt lat="48.04749" lon="-0.67998">
        <ele>69</ele>
        <time>2017-11-12T10:16:01Z</time>
      </trkpt>
      <trkpt lat="48.04753" lon="-0.68009">
        <ele>69.4</ele>
        <time>2017-11-12T10:16:05Z</time>
      </trkpt>
      <trkpt lat="48.04757" lon="-0.68021">
        <ele>70</ele>
        <time>2017-11-12T10:16:09Z</time>
      </trkpt>
      <trkpt lat="48.04763" lon="-0.68034">
        <ele>70.5</ele>
        <time>2017-11-12T10:16:13Z</time>
      </trkpt>
      <trkpt lat="48.04766" lon="-0.68045">
        <ele>70.6</ele>
        <time>2017-11-12T10:16:17Z</time>
      </trkpt>
      <trkpt lat="48.04771" lon="-0.68056">
        <ele>70.8</ele>
        <time>2017-11-12T10:16:21Z</time>
      </trkpt>
      <trkpt lat="48.04777" lon="-0.68069">
        <ele>71.4</ele>
        <time>2017-11-12T10:16:25Z</time>
      </trkpt>
      <trkpt lat="48.04782" lon="-0.68081">
        <ele>72.1</ele>
        <time>2017-11-12T10:16:29Z</time>
      </trkpt>
      <trkpt lat="48.04788" lon="-0.68095">
        <ele>72.4</ele>
        <time>2017-11-12T10:16:33Z</time>
      </trkpt>
      <trkpt lat="48.04794" lon="-0.68108">
        <ele>72.6</ele>
        <time>2017-11-12T10:16:37Z</time>
      </trkpt>
      <trkpt lat="48.048" lon="-0.68122">
        <ele>73.1</ele>
        <time>2017-11-12T10:16:41Z</time>
      </trkpt>
      <trkpt lat="48.04805" lon="-0.68136">
        <ele>73.9</ele>
        <time>2017-11-12T10:16:45Z</time>
      </trkpt>
      <trkpt lat="48.04811" lon="-0.68149">
        <ele>74.1</ele>
        <time>2017-11-12T10:16:49Z</time>
      </trkpt>
      <trkpt lat="48.04817" lon="-0.68162">
        <ele>74.4</ele>
        <time>2017-11-12T10:16:53Z</time>
      </trkpt>
      <trkpt lat="48.04822" lon="-0.68175">
        <ele>74.8</ele>
        <time>2017-11-12T10:16:57Z</time>
      </trkpt>
      <trkpt lat="48.04827" lon="-0.68189">
        <ele>75.4</ele>
        <time>2017-11-12T10:17:01Z</time>
      </trkpt>
      <trkpt lat="48.04833" lon="-0.68201">
        <ele>75.9</ele>
        <time>2017-11-12T10:17:05Z</time>
      </trkpt>
      <trkpt lat="48.04838" lon="-0.68213">
        <ele>76.1</ele>
        <time>2017-11-12T10:17:09Z</time>
      </trkpt>
      <trkpt lat="48.04844" lon="-0.68226">
        <ele>76.4</ele>
        <time>2017-11-12T10:17:13Z</time>
      </trkpt>
      <trkpt lat="48.04852" lon="-0.68239">
        <ele>76.7</ele>
        <time>2017-11-12T10:17:17Z</time>
      </trkpt>
      <trkpt lat="48.0486" lon="-0.68251">
        <ele>77</ele>
        <time>2017-11-12T10:17:21Z</time>
      </trkpt>
      <trkpt lat="48.0487" lon="-0.68263">
        <ele>77</ele>
        <time>2017-11-12T10:17:25Z</time>
      </trkpt>
      <trkpt lat="48.0488" lon="-0.68274">
        <ele>77</ele>
        <time>2017-11-12T10:17:29Z</time>
      </trkpt>
      <trkpt lat="48.04901" lon="-0.68296">
        <ele>77.3</ele>
        <time>2017-11-12T10:17:34Z</time>
      </trkpt>
      <trkpt lat="48.04911" lon="-0.68305">
        <ele>77.8</ele>
        <time>2017-11-12T10:17:41Z</time>
      </trkpt>
      <trkpt lat="48.04921" lon="-0.68317">
        <ele>77.7</ele>
        <time>2017-11-12T10:17:45Z</time>
      </trkpt>
      <trkpt lat="48.04931" lon="-0.68328">
        <ele>77.6</ele>
        <time>2017-11-12T10:17:49Z</time>
      </trkpt>
      <trkpt lat="48.04941" lon="-0.68338">
        <ele>77.9</ele>
        <time>2017-11-12T10:17:53Z</time>
      </trkpt>
      <trkpt lat="48.04948" lon="-0.68343">
        <ele>78.1</ele>
        <time>2017-11-12T10:17:57Z</time>
      </trkpt>
      <trkpt lat="48.04952" lon="-0.68352">
        <ele>78.3</ele>
        <time>2017-11-12T10:18:01Z</time>
      </trkpt>
      <trkpt lat="48.04962" lon="-0.68364">
        <ele>78.6</ele>
        <time>2017-11-12T10:18:05Z</time>
      </trkpt>
      <trkpt lat="48.04974" lon="-0.68376">
        <ele>79.1</ele>
        <time>2017-11-12T10:18:09Z</time>
      </trkpt>
      <trkpt lat="48.04987" lon="-0.6839">
        <ele>79.5</ele>
        <time>2017-11-12T10:18:13Z</time>
      </trkpt>
      <trkpt lat="48.04999" lon="-0.68402">
        <ele>80</ele>
        <time>2017-11-12T10:18:17Z</time>
      </trkpt>
      <trkpt lat="48.05009" lon="-0.68414">
        <ele>80</ele>
        <time>2017-11-12T10:18:21Z</time>
      </trkpt>
      <trkpt lat="48.05019" lon="-0.68424">
        <ele>79.9</ele>
        <time>2017-11-12T10:18:25Z</time>
      </trkpt>
      <trkpt lat="48.05028" lon="-0.68434">
        <ele>80</ele>
        <time>2017-11-12T10:18:29Z</time>
      </trkpt>
      <trkpt lat="48.05036" lon="-0.68444">
        <ele>80.3</ele>
        <time>2017-11-12T10:18:33Z</time>
      </trkpt>
      <trkpt lat="48.05045" lon="-0.68453">
        <ele>80.6</ele>
        <time>2017-11-12T10:18:37Z</time>
      </trkpt>
      <trkpt lat="48.05054" lon="-0.68463">
        <ele>80.9</ele>
        <time>2017-11-12T10:18:41Z</time>
      </trkpt>
      <trkpt lat="48.05063" lon="-0.68473">
        <ele>81.3</ele>
        <time>2017-11-12T10:18:45Z</time>
      </trkpt>
      <trkpt lat="48.05072" lon="-0.68481">
        <ele>81.6</ele>
        <time>2017-11-12T10:18:49Z</time>
      </trkpt>
      <trkpt lat="48.05081" lon="-0.68491">
        <ele>81.9</ele>
        <time>2017-11-12T10:18:53Z</time>
      </trkpt>
      <trkpt lat="48.05089" lon="-0.685">
        <ele>82</ele>
        <time>2017-11-12T10:18:57Z</time>
      </trkpt>
      <trkpt lat="48.05097" lon="-0.68509">
        <ele>82</ele>
        <time>2017-11-12T10:19:01Z</time>
      </trkpt>
      <trkpt lat="48.05107" lon="-0.68518">
        <ele>82</ele>
        <time>2017-11-12T10:19:05Z</time>
      </trkpt>
      <trkpt lat="48.05115" lon="-0.68528">
        <ele>82.2</ele>
        <time>2017-11-12T10:19:09Z</time>
      </trkpt>
      <trkpt lat="48.05124" lon="-0.68538">
        <ele>82.5</ele>
        <time>2017-11-12T10:19:13Z</time>
      </trkpt>
      <trkpt lat="48.05133" lon="-0.68548">
        <ele>82.8</ele>
        <time>2017-11-12T10:19:17Z</time>
      </trkpt>
      <trkpt lat="48.05142" lon="-0.68558">
        <ele>82.9</ele>
        <time>2017-11-12T10:19:21Z</time>
      </trkpt>
      <trkpt lat="48.0515" lon="-0.68567">
        <ele>82.7</ele>
        <time>2017-11-12T10:19:25Z</time>
      </trkpt>
      <trkpt lat="48.05159" lon="-0.68577">
        <ele>82.8</ele>
        <time>2017-11-12T10:19:29Z</time>
      </trkpt>
      <trkpt lat="48.05168" lon="-0.68587">
        <ele>83</ele>
        <time>2017-11-12T10:19:33Z</time>
      </trkpt>
      <trkpt lat="48.05177" lon="-0.68597">
        <ele>83</ele>
        <time>2017-11-12T10:19:37Z</time>
      </trkpt>
      <trkpt lat="48.05186" lon="-0.68606">
        <ele>83</ele>
        <time>2017-11-12T10:19:41Z</time>
      </trkpt>
      <trkpt lat="48.05193" lon="-0.68617">
        <ele>83</ele>
        <time>2017-11-12T10:19:45Z</time>
      </trkpt>
      <trkpt lat="48.05202" lon="-0.68629">
        <ele>83.3</ele>
        <time>2017-11-12T10:19:49Z</time>
      </trkpt>
      <trkpt lat="48.0521" lon="-0.68641">
        <ele>83.6</ele>
        <time>2017-11-12T10:19:53Z</time>
      </trkpt>
      <trkpt lat="48.05218" lon="-0.68653">
        <ele>83.8</ele>
        <time>2017-11-12T10:19:57Z</time>
      </trkpt>
      <trkpt lat="48.05225" lon="-0.68667">
        <ele>84</ele>
        <time>2017-11-12T10:20:01Z</time>
      </trkpt>
      <trkpt lat="48.05232" lon="-0.68681">
        <ele>83.7</ele>
        <time>2017-11-12T10:20:05Z</time>
      </trkpt>
      <trkpt lat="48.05239" lon="-0.68695">
        <ele>83.6</ele>
        <time>2017-11-12T10:20:09Z</time>
      </trkpt>
      <trkpt lat="48.05245" lon="-0.68709">
        <ele>83.8</ele>
        <time>2017-11-12T10:20:13Z</time>
      </trkpt>
      <trkpt lat="48.05251" lon="-0.68721">
        <ele>84</ele>
        <time>2017-11-12T10:20:17Z</time>
      </trkpt>
      <trkpt lat="48.05258" lon="-0.68734">
        <ele>84</ele>
        <time>2017-11-12T10:20:21Z</time>
      </trkpt>
      <trkpt lat="48.05265" lon="-0.68748">
        <ele>84</ele>
        <time>2017-11-12T10:20:25Z</time>
      </trkpt>
      <trkpt lat="48.05272" lon="-0.68763">
        <ele>83.9</ele>
        <time>2017-11-12T10:20:29Z</time>
      </trkpt>
      <trkpt lat="48.05279" lon="-0.68778">
        <ele>84</ele>
        <time>2017-11-12T10:20:33Z</time>
      </trkpt>
      <trkpt lat="48.05287" lon="-0.68793">
        <ele>83.6</ele>
        <time>2017-11-12T10:20:37Z</time>
      </trkpt>
      <trkpt lat="48.05295" lon="-0.68808">
        <ele>83.6</ele>
        <time>2017-11-12T10:20:41Z</time>
      </trkpt>
      <trkpt lat="48.05303" lon="-0.68824">
        <ele>83.3</ele>
        <time>2017-11-12T10:20:45Z</time>
      </trkpt>
      <trkpt lat="48.05311" lon="-0.68841">
        <ele>83</ele>
        <time>2017-11-12T10:20:49Z</time>
      </trkpt>
      <trkpt lat="48.0532" lon="-0.68858">
        <ele>83</ele>
        <time>2017-11-12T10:20:53Z</time>
      </trkpt>
      <trkpt lat="48.05329" lon="-0.68876">
        <ele>82.9</ele>
        <time>2017-11-12T10:20:57Z</time>
      </trkpt>
      <trkpt lat="48.05337" lon="-0.68893">
        <ele>83</ele>
        <time>2017-11-12T10:21:01Z</time>
      </trkpt>
      <trkpt lat="48.05345" lon="-0.6891">
        <ele>83.3</ele>
        <time>2017-11-12T10:21:05Z</time>
      </trkpt>
      <trkpt lat="48.05353" lon="-0.68927">
        <ele>83.8</ele>
        <time>2017-11-12T10:21:09Z</time>
      </trkpt>
      <trkpt lat="48.05361" lon="-0.68944">
        <ele>84</ele>
        <time>2017-11-12T10:21:13Z</time>
      </trkpt>
      <trkpt lat="48.05369" lon="-0.6896">
        <ele>84.3</ele>
        <time>2017-11-12T10:21:17Z</time>
      </trkpt>
      <trkpt lat="48.05376" lon="-0.68977">
        <ele>84.6</ele>
        <time>2017-11-12T10:21:21Z</time>
      </trkpt>
      <trkpt lat="48.05385" lon="-0.68993">
        <ele>84.8</ele>
        <time>2017-11-12T10:21:25Z</time>
      </trkpt>
      <trkpt lat="48.05393" lon="-0.69009">
        <ele>85.1</ele>
        <time>2017-11-12T10:21:29Z</time>
      </trkpt>
      <trkpt lat="48.054" lon="-0.69025">
        <ele>85.4</ele>
        <time>2017-11-12T10:21:33Z</time>
      </trkpt>
      <trkpt lat="48.05408" lon="-0.69042">
        <ele>85.7</ele>
        <time>2017-11-12T10:21:37Z</time>
      </trkpt>
      <trkpt lat="48.05417" lon="-0.69058">
        <ele>86</ele>
        <time>2017-11-12T10:21:41Z</time>
      </trkpt>
      <trkpt lat="48.05425" lon="-0.69073">
        <ele>86.3</ele>
        <time>2017-11-12T10:21:45Z</time>
      </trkpt>
      <trkpt lat="48.05433" lon="-0.69089">
        <ele>86.8</ele>
        <time>2017-11-12T10:21:49Z</time>
      </trkpt>
      <trkpt lat="48.0544" lon="-0.69105">
        <ele>87.6</ele>
        <time>2017-11-12T10:21:53Z</time>
      </trkpt>
      <trkpt lat="48.05447" lon="-0.69121">
        <ele>88</ele>
        <time>2017-11-12T10:21:57Z</time>
      </trkpt>
      <trkpt lat="48.05455" lon="-0.69135">
        <ele>88.3</ele>
        <time>2017-11-12T10:22:01Z</time>
      </trkpt>
      <trkpt lat="48.05462" lon="-0.6915">
        <ele>88.6</ele>
        <time>2017-11-12T10:22:05Z</time>
      </trkpt>
      <trkpt lat="48.05469" lon="-0.69165">
        <ele>88.9</ele>
        <time>2017-11-12T10:22:09Z</time>
      </trkpt>
      <trkpt lat="48.05476" lon="-0.69179">
        <ele>89.1</ele>
        <time>2017-11-12T10:22:13Z</time>
      </trkpt>
      <trkpt lat="48.05483" lon="-0.69193">
        <ele>89.4</ele>
        <time>2017-11-12T10:22:17Z</time>
      </trkpt>
      <trkpt lat="48.05491" lon="-0.69208">
        <ele>89.8</ele>
        <time>2017-11-12T10:22:21Z</time>
      </trkpt>
      <trkpt lat="48.05499" lon="-0.69225">
        <ele>90.1</ele>
        <time>2017-11-12T10:22:25Z</time>
      </trkpt>
      <trkpt lat="48.05507" lon="-0.69242">
        <ele>90.8</ele>
        <time>2017-11-12T10:22:29Z</time>
      </trkpt>
      <trkpt lat="48.05524" lon="-0.69278">
        <ele>90.9</ele>
        <time>2017-11-12T10:22:34Z</time>
      </trkpt>
      <trkpt lat="48.05532" lon="-0.69296">
        <ele>91</ele>
        <time>2017-11-12T10:22:41Z</time>
      </trkpt>
      <trkpt lat="48.0554" lon="-0.69314">
        <ele>90.7</ele>
        <time>2017-11-12T10:22:45Z</time>
      </trkpt>
      <trkpt lat="48.05549" lon="-0.69331">
        <ele>90.1</ele>
        <time>2017-11-12T10:22:49Z</time>
      </trkpt>
      <trkpt lat="48.05558" lon="-0.69348">
        <ele>90</ele>
        <time>2017-11-12T10:22:53Z</time>
      </trkpt>
      <trkpt lat="48.05566" lon="-0.69366">
        <ele>89.9</ele>
        <time>2017-11-12T10:22:57Z</time>
      </trkpt>
      <trkpt lat="48.05575" lon="-0.69384">
        <ele>89.8</ele>
        <time>2017-11-12T10:23:01Z</time>
      </trkpt>
      <trkpt lat="48.05585" lon="-0.69403">
        <ele>89.5</ele>
        <time>2017-11-12T10:23:05Z</time>
      </trkpt>
      <trkpt lat="48.05595" lon="-0.69423">
        <ele>89.4</ele>
        <time>2017-11-12T10:23:09Z</time>
      </trkpt>
      <trkpt lat="48.05605" lon="-0.69443">
        <ele>89.8</ele>
        <time>2017-11-12T10:23:13Z</time>
      </trkpt>
      <trkpt lat="48.05615" lon="-0.69464">
        <ele>90</ele>
        <time>2017-11-12T10:23:17Z</time>
      </trkpt>
      <trkpt lat="48.05624" lon="-0.69483">
        <ele>90</ele>
        <time>2017-11-12T10:23:21Z</time>
      </trkpt>
      <trkpt lat="48.05632" lon="-0.695">
        <ele>90</ele>
        <time>2017-11-12T10:23:25Z</time>
      </trkpt>
      <trkpt lat="48.05639" lon="-0.69515">
        <ele>90.6</ele>
        <time>2017-11-12T10:23:29Z</time>
      </trkpt>
      <trkpt lat="48.05645" lon="-0.69527">
        <ele>91</ele>
        <time>2017-11-12T10:23:33Z</time>
      </trkpt>
      <trkpt lat="48.05647" lon="-0.69535">
        <ele>91</ele>
        <time>2017-11-12T10:23:37Z</time>
      </trkpt>
      <trkpt lat="48.05646" lon="-0.69542">
        <ele>91</ele>
        <time>2017-11-12T10:23:41Z</time>
      </trkpt>
      <trkpt lat="48.05641" lon="-0.69551">
        <ele>91</ele>
        <time>2017-11-12T10:23:45Z</time>
      </trkpt>
      <trkpt lat="48.05632" lon="-0.69559">
        <ele>90.7</ele>
        <time>2017-11-12T10:23:49Z</time>
      </trkpt>
      <trkpt lat="48.0562" lon="-0.69567">
        <ele>90.3</ele>
        <time>2017-11-12T10:23:53Z</time>
      </trkpt>
      <trkpt lat="48.05605" lon="-0.69576">
        <ele>89.8</ele>
        <time>2017-11-12T10:23:57Z</time>
      </trkpt>
      <trkpt lat="48.05587" lon="-0.69587">
        <ele>89.1</ele>
        <time>2017-11-12T10:24:01Z</time>
      </trkpt>
      <trkpt lat="48.05566" lon="-0.69599">
        <ele>87.7</ele>
        <time>2017-11-12T10:24:05Z</time>
      </trkpt>
      <trkpt lat="48.05545" lon="-0.69612">
        <ele>86.6</ele>
        <time>2017-11-12T10:24:09Z</time>
      </trkpt>
      <trkpt lat="48.05522" lon="-0.69625">
        <ele>85.6</ele>
        <time>2017-11-12T10:24:13Z</time>
      </trkpt>
      <trkpt lat="48.05499" lon="-0.69638">
        <ele>83.9</ele>
        <time>2017-11-12T10:24:17Z</time>
      </trkpt>
      <trkpt lat="48.05475" lon="-0.69652">
        <ele>82.6</ele>
        <time>2017-11-12T10:24:21Z</time>
      </trkpt>
      <trkpt lat="48.0545" lon="-0.69667">
        <ele>81.4</ele>
        <time>2017-11-12T10:24:25Z</time>
      </trkpt>
      <trkpt lat="48.05425" lon="-0.69682">
        <ele>79.6</ele>
        <time>2017-11-12T10:24:29Z</time>
      </trkpt>
      <trkpt lat="48.05401" lon="-0.69697">
        <ele>78.5</ele>
        <time>2017-11-12T10:24:33Z</time>
      </trkpt>
      <trkpt lat="48.05377" lon="-0.69712">
        <ele>77.6</ele>
        <time>2017-11-12T10:24:37Z</time>
      </trkpt>
      <trkpt lat="48.05352" lon="-0.69727">
        <ele>77</ele>
        <time>2017-11-12T10:24:41Z</time>
      </trkpt>
      <trkpt lat="48.05327" lon="-0.69742">
        <ele>77</ele>
        <time>2017-11-12T10:24:45Z</time>
      </trkpt>
      <trkpt lat="48.05305" lon="-0.69755">
        <ele>77.2</ele>
        <time>2017-11-12T10:24:49Z</time>
      </trkpt>
      <trkpt lat="48.05284" lon="-0.69767">
        <ele>77.9</ele>
        <time>2017-11-12T10:24:53Z</time>
      </trkpt>
      <trkpt lat="48.05263" lon="-0.69777">
        <ele>78</ele>
        <time>2017-11-12T10:24:57Z</time>
      </trkpt>
      <trkpt lat="48.05243" lon="-0.69788">
        <ele>78.4</ele>
        <time>2017-11-12T10:25:01Z</time>
      </trkpt>
      <trkpt lat="48.05222" lon="-0.69799">
        <ele>78.8</ele>
        <time>2017-11-12T10:25:05Z</time>
      </trkpt>
      <trkpt lat="48.05201" lon="-0.69809">
        <ele>79.1</ele>
        <time>2017-11-12T10:25:09Z</time>
      </trkpt>
      <trkpt lat="48.05182" lon="-0.69818">
        <ele>79.5</ele>
        <time>2017-11-12T10:25:13Z</time>
      </trkpt>
      <trkpt lat="48.05175" lon="-0.6982">
        <ele>79.5</ele>
        <time>2017-11-12T10:25:57Z</time>
      </trkpt>
      <trkpt lat="48.05173" lon="-0.69817">
        <ele>79.4</ele>
        <time>2017-11-12T10:26:01Z</time>
      </trkpt>
      <trkpt lat="48.05179" lon="-0.69814">
        <ele>79.3</ele>
        <time>2017-11-12T10:26:05Z</time>
      </trkpt>
      <trkpt lat="48.05187" lon="-0.69809">
        <ele>79.1</ele>
        <time>2017-11-12T10:26:09Z</time>
      </trkpt>
      <trkpt lat="48.05199" lon="-0.69804">
        <ele>79</ele>
        <time>2017-11-12T10:26:13Z</time>
      </trkpt>
      <trkpt lat="48.05211" lon="-0.69799">
        <ele>78.9</ele>
        <time>2017-11-12T10:26:17Z</time>
      </trkpt>
      <trkpt lat="48.05224" lon="-0.69793">
        <ele>78.5</ele>
        <time>2017-11-12T10:26:21Z</time>
      </trkpt>
      <trkpt lat="48.05237" lon="-0.69786">
        <ele>78.3</ele>
        <time>2017-11-12T10:26:25Z</time>
      </trkpt>
      <trkpt lat="48.05253" lon="-0.69779">
        <ele>78</ele>
        <time>2017-11-12T10:26:29Z</time>
      </trkpt>
      <trkpt lat="48.05268" lon="-0.69771">
        <ele>78</ele>
        <time>2017-11-12T10:26:33Z</time>
      </trkpt>
      <trkpt lat="48.05284" lon="-0.69762">
        <ele>77.9</ele>
        <time>2017-11-12T10:26:37Z</time>
      </trkpt>
      <trkpt lat="48.05301" lon="-0.69753">
        <ele>77.3</ele>
        <time>2017-11-12T10:26:41Z</time>
      </trkpt>
      <trkpt lat="48.05319" lon="-0.69743">
        <ele>77</ele>
        <time>2017-11-12T10:26:45Z</time>
      </trkpt>
      <trkpt lat="48.05338" lon="-0.69732">
        <ele>77</ele>
        <time>2017-11-12T10:26:49Z</time>
      </trkpt>
      <trkpt lat="48.05357" lon="-0.69721">
        <ele>77</ele>
        <time>2017-11-12T10:26:53Z</time>
      </trkpt>
      <trkpt lat="48.05376" lon="-0.6971">
        <ele>77.5</ele>
        <time>2017-11-12T10:26:57Z</time>
      </trkpt>
      <trkpt lat="48.05395" lon="-0.69698">
        <ele>78.2</ele>
        <time>2017-11-12T10:27:01Z</time>
      </trkpt>
      <trkpt lat="48.05412" lon="-0.69688">
        <ele>78.8</ele>
        <time>2017-11-12T10:27:05Z</time>
      </trkpt>
      <trkpt lat="48.0543" lon="-0.69677">
        <ele>79.9</ele>
        <time>2017-11-12T10:27:09Z</time>
      </trkpt>
      <trkpt lat="48.05447" lon="-0.69667">
        <ele>81.2</ele>
        <time>2017-11-12T10:27:13Z</time>
      </trkpt>
      <trkpt lat="48.05465" lon="-0.69656">
        <ele>82.2</ele>
        <time>2017-11-12T10:27:17Z</time>
      </trkpt>
      <trkpt lat="48.05483" lon="-0.69644">
        <ele>82.9</ele>
        <time>2017-11-12T10:27:21Z</time>
      </trkpt>
      <trkpt lat="48.055" lon="-0.69634">
        <ele>84</ele>
        <time>2017-11-12T10:27:25Z</time>
      </trkpt>
      <trkpt lat="48.05517" lon="-0.69624">
        <ele>85.2</ele>
        <time>2017-11-12T10:27:29Z</time>
      </trkpt>
      <trkpt lat="48.05534" lon="-0.69613">
        <ele>86.3</ele>
        <time>2017-11-12T10:27:33Z</time>
      </trkpt>
      <trkpt lat="48.0555" lon="-0.69604">
        <ele>86.8</ele>
        <time>2017-11-12T10:27:37Z</time>
      </trkpt>
      <trkpt lat="48.05567" lon="-0.69594">
        <ele>87.8</ele>
        <time>2017-11-12T10:27:41Z</time>
      </trkpt>
      <trkpt lat="48.05583" lon="-0.69584">
        <ele>89</ele>
        <time>2017-11-12T10:27:45Z</time>
      </trkpt>
      <trkpt lat="48.05599" lon="-0.69575">
        <ele>89.6</ele>
        <time>2017-11-12T10:27:49Z</time>
      </trkpt>
      <trkpt lat="48.05613" lon="-0.69566">
        <ele>90.1</ele>
        <time>2017-11-12T10:27:53Z</time>
      </trkpt>
      <trkpt lat="48.05627" lon="-0.69558">
        <ele>90.6</ele>
        <time>2017-11-12T10:27:57Z</time>
      </trkpt>
      <trkpt lat="48.05641" lon="-0.69549">
        <ele>91</ele>
        <time>2017-11-12T10:28:01Z</time>
      </trkpt>
      <trkpt lat="48.05655" lon="-0.69539">
        <ele>91</ele>
        <time>2017-11-12T10:28:05Z</time>
      </trkpt>
      <trkpt lat="48.05673" lon="-0.69528">
        <ele>91</ele>
        <time>2017-11-12T10:28:09Z</time>
      </trkpt>
      <trkpt lat="48.05692" lon="-0.69516">
        <ele>90.6</ele>
        <time>2017-11-12T10:28:13Z</time>
      </trkpt>
      <trkpt lat="48.05713" lon="-0.69503">
        <ele>90.1</ele>
        <time>2017-11-12T10:28:17Z</time>
      </trkpt>
      <trkpt lat="48.05733" lon="-0.69491">
        <ele>90</ele>
        <time>2017-11-12T10:28:21Z</time>
      </trkpt>
      <trkpt lat="48.05753" lon="-0.69479">
        <ele>90</ele>
        <time>2017-11-12T10:28:25Z</time>
      </trkpt>
      <trkpt lat="48.05773" lon="-0.69466">
        <ele>90</ele>
        <time>2017-11-12T10:28:29Z</time>
      </trkpt>
      <trkpt lat="48.05794" lon="-0.69453">
        <ele>89.4</ele>
        <time>2017-11-12T10:28:33Z</time>
      </trkpt>
      <trkpt lat="48.05816" lon="-0.69441">
        <ele>89</ele>
        <time>2017-11-12T10:28:37Z</time>
      </trkpt>
      <trkpt lat="48.05837" lon="-0.69428">
        <ele>89</ele>
        <time>2017-11-12T10:28:41Z</time>
      </trkpt>
      <trkpt lat="48.0586" lon="-0.69417">
        <ele>89</ele>
        <time>2017-11-12T10:28:45Z</time>
      </trkpt>
      <trkpt lat="48.05882" lon="-0.69411">
        <ele>89.6</ele>
        <time>2017-11-12T10:28:49Z</time>
      </trkpt>
      <trkpt lat="48.05904" lon="-0.69411">
        <ele>89.8</ele>
        <time>2017-11-12T10:28:53Z</time>
      </trkpt>
      <trkpt lat="48.05926" lon="-0.69418">
        <ele>89.6</ele>
        <time>2017-11-12T10:28:57Z</time>
      </trkpt>
      <trkpt lat="48.05946" lon="-0.6943">
        <ele>89</ele>
        <time>2017-11-12T10:29:01Z</time>
      </trkpt>
      <trkpt lat="48.05964" lon="-0.69445">
        <ele>89.7</ele>
        <time>2017-11-12T10:29:05Z</time>
      </trkpt>
      <trkpt lat="48.05983" lon="-0.69459">
        <ele>90</ele>
        <time>2017-11-12T10:29:09Z</time>
      </trkpt>
      <trkpt lat="48.06001" lon="-0.69474">
        <ele>90</ele>
        <time>2017-11-12T10:29:13Z</time>
      </trkpt>
      <trkpt lat="48.06019" lon="-0.69489">
        <ele>90</ele>
        <time>2017-11-12T10:29:17Z</time>
      </trkpt>
      <trkpt lat="48.06037" lon="-0.69503">
        <ele>90.3</ele>
        <time>2017-11-12T10:29:21Z</time>
      </trkpt>
      <trkpt lat="48.06055" lon="-0.69518">
        <ele>90.3</ele>
        <time>2017-11-12T10:29:25Z</time>
      </trkpt>
      <trkpt lat="48.06072" lon="-0.69532">
        <ele>90.6</ele>
        <time>2017-11-12T10:29:29Z</time>
      </trkpt>
      <trkpt lat="48.0609" lon="-0.69546">
        <ele>91</ele>
        <time>2017-11-12T10:29:33Z</time>
      </trkpt>
      <trkpt lat="48.0611" lon="-0.69555">
        <ele>91</ele>
        <time>2017-11-12T10:29:37Z</time>
      </trkpt>
      <trkpt lat="48.0613" lon="-0.69563">
        <ele>91</ele>
        <time>2017-11-12T10:29:41Z</time>
      </trkpt>
      <trkpt lat="48.06151" lon="-0.69569">
        <ele>91.5</ele>
        <time>2017-11-12T10:29:45Z</time>
      </trkpt>
      <trkpt lat="48.06172" lon="-0.69576">
        <ele>92</ele>
        <time>2017-11-12T10:29:49Z</time>
      </trkpt>
      <trkpt lat="48.06192" lon="-0.69583">
        <ele>92</ele>
        <time>2017-11-12T10:29:53Z</time>
      </trkpt>
      <trkpt lat="48.0621" lon="-0.6959">
        <ele>92.6</ele>
        <time>2017-11-12T10:29:57Z</time>
      </trkpt>
      <trkpt lat="48.06229" lon="-0.69596">
        <ele>93.2</ele>
        <time>2017-11-12T10:30:01Z</time>
      </trkpt>
      <trkpt lat="48.06245" lon="-0.69601">
        <ele>93.8</ele>
        <time>2017-11-12T10:30:05Z</time>
      </trkpt>
      <trkpt lat="48.06257" lon="-0.69612">
        <ele>94.2</ele>
        <time>2017-11-12T10:30:09Z</time>
      </trkpt>
      <trkpt lat="48.06263" lon="-0.69627">
        <ele>94.1</ele>
        <time>2017-11-12T10:30:13Z</time>
      </trkpt>
      <trkpt lat="48.06263" lon="-0.69647">
        <ele>93.9</ele>
        <time>2017-11-12T10:30:17Z</time>
      </trkpt>
      <trkpt lat="48.06263" lon="-0.69667">
        <ele>93.9</ele>
        <time>2017-11-12T10:30:21Z</time>
      </trkpt>
      <trkpt lat="48.06263" lon="-0.69689">
        <ele>93.6</ele>
        <time>2017-11-12T10:30:25Z</time>
      </trkpt>
      <trkpt lat="48.06262" lon="-0.69712">
        <ele>93.4</ele>
        <time>2017-11-12T10:30:29Z</time>
      </trkpt>
      <trkpt lat="48.06262" lon="-0.69736">
        <ele>93.4</ele>
        <time>2017-11-12T10:30:33Z</time>
      </trkpt>
      <trkpt lat="48.06261" lon="-0.69761">
        <ele>93.4</ele>
        <time>2017-11-12T10:30:37Z</time>
      </trkpt>
      <trkpt lat="48.06261" lon="-0.69788">
        <ele>93.4</ele>
        <time>2017-11-12T10:30:41Z</time>
      </trkpt>
      <trkpt lat="48.0626" lon="-0.69815">
        <ele>93.4</ele>
        <time>2017-11-12T10:30:45Z</time>
      </trkpt>
      <trkpt lat="48.0626" lon="-0.69842">
        <ele>93.4</ele>
        <time>2017-11-12T10:30:49Z</time>
      </trkpt>
      <trkpt lat="48.06259" lon="-0.69869">
        <ele>93.3</ele>
        <time>2017-11-12T10:30:53Z</time>
      </trkpt>
      <trkpt lat="48.06258" lon="-0.69896">
        <ele>93.3</ele>
        <time>2017-11-12T10:30:57Z</time>
      </trkpt>
      <trkpt lat="48.06258" lon="-0.69922">
        <ele>93.2</ele>
        <time>2017-11-12T10:31:01Z</time>
      </trkpt>
      <trkpt lat="48.06258" lon="-0.69949">
        <ele>92.5</ele>
        <time>2017-11-12T10:31:05Z</time>
      </trkpt>
      <trkpt lat="48.06257" lon="-0.69978">
        <ele>92.3</ele>
        <time>2017-11-12T10:31:09Z</time>
      </trkpt>
      <trkpt lat="48.06256" lon="-0.70009">
        <ele>92.2</ele>
        <time>2017-11-12T10:31:13Z</time>
      </trkpt>
      <trkpt lat="48.06256" lon="-0.7004">
        <ele>92.2</ele>
        <time>2017-11-12T10:31:17Z</time>
      </trkpt>
      <trkpt lat="48.06255" lon="-0.70072">
        <ele>92.2</ele>
        <time>2017-11-12T10:31:21Z</time>
      </trkpt>
      <trkpt lat="48.06255" lon="-0.70103">
        <ele>92.2</ele>
        <time>2017-11-12T10:31:25Z</time>
      </trkpt>
      <trkpt lat="48.06254" lon="-0.70135">
        <ele>92.1</ele>
        <time>2017-11-12T10:31:29Z</time>
      </trkpt>
      <trkpt lat="48.06253" lon="-0.70167">
        <ele>92.1</ele>
        <time>2017-11-12T10:31:33Z</time>
      </trkpt>
      <trkpt lat="48.06252" lon="-0.702">
        <ele>92.1</ele>
        <time>2017-11-12T10:31:37Z</time>
      </trkpt>
      <trkpt lat="48.06251" lon="-0.70231">
        <ele>92</ele>
        <time>2017-11-12T10:31:41Z</time>
      </trkpt>
      <trkpt lat="48.06251" lon="-0.70264">
        <ele>92</ele>
        <time>2017-11-12T10:31:45Z</time>
      </trkpt>
      <trkpt lat="48.0625" lon="-0.70295">
        <ele>92</ele>
        <time>2017-11-12T10:31:49Z</time>
      </trkpt>
      <trkpt lat="48.0625" lon="-0.70328">
        <ele>91.2</ele>
        <time>2017-11-12T10:31:53Z</time>
      </trkpt>
      <trkpt lat="48.06249" lon="-0.70362">
        <ele>91</ele>
        <time>2017-11-12T10:31:57Z</time>
      </trkpt>
      <trkpt lat="48.06248" lon="-0.70394">
        <ele>90.9</ele>
        <time>2017-11-12T10:32:01Z</time>
      </trkpt>
      <trkpt lat="48.06248" lon="-0.70423">
        <ele>90.9</ele>
        <time>2017-11-12T10:32:05Z</time>
      </trkpt>
      <trkpt lat="48.06248" lon="-0.70446">
        <ele>90.9</ele>
        <time>2017-11-12T10:32:09Z</time>
      </trkpt>
      <trkpt lat="48.06248" lon="-0.7046">
        <ele>91</ele>
        <time>2017-11-12T10:32:13Z</time>
      </trkpt>
      <trkpt lat="48.06249" lon="-0.70462">
        <ele>91</ele>
        <time>2017-11-12T10:32:57Z</time>
      </trkpt>
      <trkpt lat="48.06246" lon="-0.70469">
        <ele>91</ele>
        <time>2017-11-12T10:33:01Z</time>
      </trkpt>
      <trkpt lat="48.06239" lon="-0.70471">
        <ele>91</ele>
        <time>2017-11-12T10:33:05Z</time>
      </trkpt>
      <trkpt lat="48.06226" lon="-0.70475">
        <ele>91</ele>
        <time>2017-11-12T10:33:09Z</time>
      </trkpt>
      <trkpt lat="48.06209" lon="-0.70479">
        <ele>90.6</ele>
        <time>2017-11-12T10:33:13Z</time>
      </trkpt>
      <trkpt lat="48.06191" lon="-0.70483">
        <ele>90.3</ele>
        <time>2017-11-12T10:33:17Z</time>
      </trkpt>
      <trkpt lat="48.06172" lon="-0.70487">
        <ele>90.1</ele>
        <time>2017-11-12T10:33:21Z</time>
      </trkpt>
      <trkpt lat="48.06151" lon="-0.70492">
        <ele>89.8</ele>
        <time>2017-11-12T10:33:25Z</time>
      </trkpt>
      <trkpt lat="48.0613" lon="-0.70496">
        <ele>89.6</ele>
        <time>2017-11-12T10:33:29Z</time>
      </trkpt>
      <trkpt lat="48.06116" lon="-0.70504">
        <ele>89.3</ele>
        <time>2017-11-12T10:33:33Z</time>
      </trkpt>
      <trkpt lat="48.0612" lon="-0.70512">
        <ele>89.6</ele>
        <time>2017-11-12T10:33:37Z</time>
      </trkpt>
      <trkpt lat="48.06129" lon="-0.70518">
        <ele>89.9</ele>
        <time>2017-11-12T10:33:41Z</time>
      </trkpt>
      <trkpt lat="48.06141" lon="-0.70526">
        <ele>90</ele>
        <time>2017-11-12T10:33:45Z</time>
      </trkpt>
      <trkpt lat="48.06157" lon="-0.70536">
        <ele>90.2</ele>
        <time>2017-11-12T10:33:49Z</time>
      </trkpt>
      <trkpt lat="48.06172" lon="-0.70546">
        <ele>90.7</ele>
        <time>2017-11-12T10:33:53Z</time>
      </trkpt>
      <trkpt lat="48.06185" lon="-0.70554">
        <ele>91</ele>
        <time>2017-11-12T10:33:57Z</time>
      </trkpt>
      <trkpt lat="48.062" lon="-0.70561">
        <ele>91.2</ele>
        <time>2017-11-12T10:34:01Z</time>
      </trkpt>
      <trkpt lat="48.06216" lon="-0.70573">
        <ele>91.6</ele>
        <time>2017-11-12T10:34:05Z</time>
      </trkpt>
      <trkpt lat="48.06233" lon="-0.70584">
        <ele>92</ele>
        <time>2017-11-12T10:34:09Z</time>
      </trkpt>
      <trkpt lat="48.06245" lon="-0.70596">
        <ele>92</ele>
        <time>2017-11-12T10:34:13Z</time>
      </trkpt>
      <trkpt lat="48.06256" lon="-0.70602">
        <ele>92.1</ele>
        <time>2017-11-12T10:34:17Z</time>
      </trkpt>
      <trkpt lat="48.06269" lon="-0.70612">
        <ele>92.7</ele>
        <time>2017-11-12T10:34:21Z</time>
      </trkpt>
      <trkpt lat="48.06282" lon="-0.70622">
        <ele>93</ele>
        <time>2017-11-12T10:34:25Z</time>
      </trkpt>
      <trkpt lat="48.06297" lon="-0.70635">
        <ele>93</ele>
        <time>2017-11-12T10:34:29Z</time>
      </trkpt>
      <trkpt lat="48.06312" lon="-0.70647">
        <ele>93.1</ele>
        <time>2017-11-12T10:34:33Z</time>
      </trkpt>
      <trkpt lat="48.06328" lon="-0.70659">
        <ele>93.6</ele>
        <time>2017-11-12T10:34:37Z</time>
      </trkpt>
      <trkpt lat="48.06343" lon="-0.70671">
        <ele>94</ele>
        <time>2017-11-12T10:34:41Z</time>
      </trkpt>
      <trkpt lat="48.0636" lon="-0.70683">
        <ele>94</ele>
        <time>2017-11-12T10:34:45Z</time>
      </trkpt>
      <trkpt lat="48.06378" lon="-0.70695">
        <ele>94</ele>
        <time>2017-11-12T10:34:49Z</time>
      </trkpt>
      <trkpt lat="48.06393" lon="-0.70705">
        <ele>93.8</ele>
        <time>2017-11-12T10:34:53Z</time>
      </trkpt>
      <trkpt lat="48.0641" lon="-0.70717">
        <ele>93.3</ele>
        <time>2017-11-12T10:34:57Z</time>
      </trkpt>
      <trkpt lat="48.06422" lon="-0.70729">
        <ele>92.8</ele>
        <time>2017-11-12T10:35:01Z</time>
      </trkpt>
      <trkpt lat="48.06437" lon="-0.70742">
        <ele>92.3</ele>
        <time>2017-11-12T10:35:05Z</time>
      </trkpt>
      <trkpt lat="48.06456" lon="-0.70755">
        <ele>91.6</ele>
        <time>2017-11-12T10:35:09Z</time>
      </trkpt>
      <trkpt lat="48.06474" lon="-0.70763">
        <ele>90.9</ele>
        <time>2017-11-12T10:35:13Z</time>
      </trkpt>
      <trkpt lat="48.06489" lon="-0.70776">
        <ele>90.4</ele>
        <time>2017-11-12T10:35:17Z</time>
      </trkpt>
      <trkpt lat="48.06503" lon="-0.70788">
        <ele>89.9</ele>
        <time>2017-11-12T10:35:21Z</time>
      </trkpt>
      <trkpt lat="48.06517" lon="-0.70799">
        <ele>89.4</ele>
        <time>2017-11-12T10:35:25Z</time>
      </trkpt>
      <trkpt lat="48.0653" lon="-0.7081">
        <ele>88.9</ele>
        <time>2017-11-12T10:35:29Z</time>
      </trkpt>
      <trkpt lat="48.06545" lon="-0.70819">
        <ele>88.4</ele>
        <time>2017-11-12T10:35:33Z</time>
      </trkpt>
      <trkpt lat="48.0656" lon="-0.7083">
        <ele>87.8</ele>
        <time>2017-11-12T10:35:37Z</time>
      </trkpt>
      <trkpt lat="48.06576" lon="-0.70843">
        <ele>87.3</ele>
        <time>2017-11-12T10:35:41Z</time>
      </trkpt>
      <trkpt lat="48.06591" lon="-0.70854">
        <ele>86.5</ele>
        <time>2017-11-12T10:35:45Z</time>
      </trkpt>
      <trkpt lat="48.06605" lon="-0.70865">
        <ele>85.5</ele>
        <time>2017-11-12T10:35:49Z</time>
      </trkpt>
      <trkpt lat="48.06618" lon="-0.70873">
        <ele>85.3</ele>
        <time>2017-11-12T10:35:53Z</time>
      </trkpt>
      <trkpt lat="48.06628" lon="-0.7088">
        <ele>85.3</ele>
        <time>2017-11-12T10:35:57Z</time>
      </trkpt>
      <trkpt lat="48.0664" lon="-0.70889">
        <ele>85</ele>
        <time>2017-11-12T10:36:01Z</time>
      </trkpt>
      <trkpt lat="48.06651" lon="-0.70895">
        <ele>85</ele>
        <time>2017-11-12T10:36:05Z</time>
      </trkpt>
      <trkpt lat="48.06664" lon="-0.70904">
        <ele>85</ele>
        <time>2017-11-12T10:36:09Z</time>
      </trkpt>
      <trkpt lat="48.06677" lon="-0.70914">
        <ele>85</ele>
        <time>2017-11-12T10:36:13Z</time>
      </trkpt>
      <trkpt lat="48.06689" lon="-0.70923">
        <ele>84.8</ele>
        <time>2017-11-12T10:36:17Z</time>
      </trkpt>
      <trkpt lat="48.06701" lon="-0.70931">
        <ele>84.4</ele>
        <time>2017-11-12T10:36:21Z</time>
      </trkpt>
      <trkpt lat="48.06714" lon="-0.70941">
        <ele>84</ele>
        <time>2017-11-12T10:36:25Z</time>
      </trkpt>
      <trkpt lat="48.06726" lon="-0.7095">
        <ele>83.9</ele>
        <time>2017-11-12T10:36:29Z</time>
      </trkpt>
      <trkpt lat="48.0674" lon="-0.70961">
        <ele>83.8</ele>
        <time>2017-11-12T10:36:33Z</time>
      </trkpt>
      <trkpt lat="48.06754" lon="-0.70974">
        <ele>83.9</ele>
        <time>2017-11-12T10:36:37Z</time>
      </trkpt>
      <trkpt lat="48.06769" lon="-0.70984">
        <ele>83.6</ele>
        <time>2017-11-12T10:36:41Z</time>
      </trkpt>
      <trkpt lat="48.06782" lon="-0.70996">
        <ele>83.7</ele>
        <time>2017-11-12T10:36:45Z</time>
      </trkpt>
      <trkpt lat="48.06801" lon="-0.71009">
        <ele>83.4</ele>
        <time>2017-11-12T10:36:49Z</time>
      </trkpt>
      <trkpt lat="48.06819" lon="-0.71024">
        <ele>83.8</ele>
        <time>2017-11-12T10:36:53Z</time>
      </trkpt>
      <trkpt lat="48.06836" lon="-0.71036">
        <ele>83.9</ele>
        <time>2017-11-12T10:36:57Z</time>
      </trkpt>
      <trkpt lat="48.06856" lon="-0.71048">
        <ele>83.8</ele>
        <time>2017-11-12T10:37:01Z</time>
      </trkpt>
      <trkpt lat="48.06875" lon="-0.7106">
        <ele>83.5</ele>
        <time>2017-11-12T10:37:05Z</time>
      </trkpt>
      <trkpt lat="48.06891" lon="-0.71072">
        <ele>82.9</ele>
        <time>2017-11-12T10:37:09Z</time>
      </trkpt>
      <trkpt lat="48.06906" lon="-0.71084">
        <ele>82.4</ele>
        <time>2017-11-12T10:37:13Z</time>
      </trkpt>
      <trkpt lat="48.06925" lon="-0.71099">
        <ele>82</ele>
        <time>2017-11-12T10:37:17Z</time>
      </trkpt>
      <trkpt lat="48.06942" lon="-0.71112">
        <ele>82</ele>
        <time>2017-11-12T10:37:21Z</time>
      </trkpt>
      <trkpt lat="48.06954" lon="-0.7112">
        <ele>81.7</ele>
        <time>2017-11-12T10:37:25Z</time>
      </trkpt>
      <trkpt lat="48.06969" lon="-0.7113">
        <ele>81.3</ele>
        <time>2017-11-12T10:37:29Z</time>
      </trkpt>
      <trkpt lat="48.06982" lon="-0.71139">
        <ele>81.4</ele>
        <time>2017-11-12T10:37:33Z</time>
      </trkpt>
      <trkpt lat="48.06994" lon="-0.71147">
        <ele>81.6</ele>
        <time>2017-11-12T10:37:37Z</time>
      </trkpt>
      <trkpt lat="48.07005" lon="-0.71156">
        <ele>81.5</ele>
        <time>2017-11-12T10:37:41Z</time>
      </trkpt>
      <trkpt lat="48.07016" lon="-0.71163">
        <ele>81.2</ele>
        <time>2017-11-12T10:37:45Z</time>
      </trkpt>
      <trkpt lat="48.07035" lon="-0.71177">
        <ele>81.4</ele>
        <time>2017-11-12T10:37:49Z</time>
      </trkpt>
      <trkpt lat="48.07052" lon="-0.7119">
        <ele>82</ele>
        <time>2017-11-12T10:37:53Z</time>
      </trkpt>
      <trkpt lat="48.07067" lon="-0.71198">
        <ele>82.3</ele>
        <time>2017-11-12T10:37:57Z</time>
      </trkpt>
      <trkpt lat="48.07084" lon="-0.71211">
        <ele>82.4</ele>
        <time>2017-11-12T10:38:01Z</time>
      </trkpt>
      <trkpt lat="48.07099" lon="-0.71223">
        <ele>82</ele>
        <time>2017-11-12T10:38:05Z</time>
      </trkpt>
      <trkpt lat="48.07113" lon="-0.71236">
        <ele>82.1</ele>
        <time>2017-11-12T10:38:09Z</time>
      </trkpt>
      <trkpt lat="48.07126" lon="-0.71248">
        <ele>82.5</ele>
        <time>2017-11-12T10:38:13Z</time>
      </trkpt>
      <trkpt lat="48.07129" lon="-0.71257">
        <ele>82.4</ele>
        <time>2017-11-12T10:38:17Z</time>
      </trkpt>
      <trkpt lat="48.07132" lon="-0.71271">
        <ele>82</ele>
        <time>2017-11-12T10:38:21Z</time>
      </trkpt>
      <trkpt lat="48.07137" lon="-0.71287">
        <ele>81.6</ele>
        <time>2017-11-12T10:38:25Z</time>
      </trkpt>
      <trkpt lat="48.0714" lon="-0.713">
        <ele>81.2</ele>
        <time>2017-11-12T10:38:29Z</time>
      </trkpt>
      <trkpt lat="48.07142" lon="-0.71323">
        <ele>80.4</ele>
        <time>2017-11-12T10:38:33Z</time>
      </trkpt>
      <trkpt lat="48.07144" lon="-0.71353">
        <ele>79.3</ele>
        <time>2017-11-12T10:38:37Z</time>
      </trkpt>
      <trkpt lat="48.07147" lon="-0.71387">
        <ele>77.4</ele>
        <time>2017-11-12T10:38:41Z</time>
      </trkpt>
      <trkpt lat="48.0715" lon="-0.7142">
        <ele>77.3</ele>
        <time>2017-11-12T10:38:45Z</time>
      </trkpt>
      <trkpt lat="48.07152" lon="-0.7145">
        <ele>76.5</ele>
        <time>2017-11-12T10:38:49Z</time>
      </trkpt>
      <trkpt lat="48.07154" lon="-0.71476">
        <ele>76.5</ele>
        <time>2017-11-12T10:38:53Z</time>
      </trkpt>
      <trkpt lat="48.07156" lon="-0.71498">
        <ele>76</ele>
        <time>2017-11-12T10:38:57Z</time>
      </trkpt>
      <trkpt lat="48.07156" lon="-0.71522">
        <ele>76</ele>
        <time>2017-11-12T10:39:01Z</time>
      </trkpt>
      <trkpt lat="48.07159" lon="-0.71541">
        <ele>76</ele>
        <time>2017-11-12T10:39:05Z</time>
      </trkpt>
      <trkpt lat="48.0716" lon="-0.71548">
        <ele>76</ele>
        <time>2017-11-12T10:39:09Z</time>
      </trkpt>
      <trkpt lat="48.07162" lon="-0.71565">
        <ele>76.1</ele>
        <time>2017-11-12T10:39:13Z</time>
      </trkpt>
      <trkpt lat="48.07163" lon="-0.71592">
        <ele>76.1</ele>
        <time>2017-11-12T10:39:17Z</time>
      </trkpt>
      <trkpt lat="48.07165" lon="-0.71622">
        <ele>76.1</ele>
        <time>2017-11-12T10:39:21Z</time>
      </trkpt>
      <trkpt lat="48.07162" lon="-0.71646">
        <ele>76.1</ele>
        <time>2017-11-12T10:39:25Z</time>
      </trkpt>
      <trkpt lat="48.07155" lon="-0.71664">
        <ele>76</ele>
        <time>2017-11-12T10:39:29Z</time>
      </trkpt>
      <trkpt lat="48.07147" lon="-0.71678">
        <ele>76</ele>
        <time>2017-11-12T10:39:33Z</time>
      </trkpt>
      <trkpt lat="48.07138" lon="-0.71688">
        <ele>76.1</ele>
        <time>2017-11-12T10:39:37Z</time>
      </trkpt>
      <trkpt lat="48.07127" lon="-0.71695">
        <ele>76.9</ele>
        <time>2017-11-12T10:39:41Z</time>
      </trkpt>
      <trkpt lat="48.07117" lon="-0.71701">
        <ele>77.7</ele>
        <time>2017-11-12T10:39:45Z</time>
      </trkpt>
      <trkpt lat="48.07107" lon="-0.71706">
        <ele>78.2</ele>
        <time>2017-11-12T10:39:49Z</time>
      </trkpt>
      <trkpt lat="48.07098" lon="-0.71712">
        <ele>78.5</ele>
        <time>2017-11-12T10:39:53Z</time>
      </trkpt>
      <trkpt lat="48.07087" lon="-0.71717">
        <ele>78.9</ele>
        <time>2017-11-12T10:39:57Z</time>
      </trkpt>
      <trkpt lat="48.07077" lon="-0.7172">
        <ele>79</ele>
        <time>2017-11-12T10:40:01Z</time>
      </trkpt>
      <trkpt lat="48.07067" lon="-0.71723">
        <ele>79</ele>
        <time>2017-11-12T10:40:05Z</time>
      </trkpt>
      <trkpt lat="48.07057" lon="-0.71727">
        <ele>78.8</ele>
        <time>2017-11-12T10:40:09Z</time>
      </trkpt>
      <trkpt lat="48.07046" lon="-0.71729">
        <ele>79.3</ele>
        <time>2017-11-12T10:40:13Z</time>
      </trkpt>
      <trkpt lat="48.07036" lon="-0.71731">
        <ele>79.9</ele>
        <time>2017-11-12T10:40:17Z</time>
      </trkpt>
      <trkpt lat="48.07025" lon="-0.71734">
        <ele>80.5</ele>
        <time>2017-11-12T10:40:21Z</time>
      </trkpt>
      <trkpt lat="48.07014" lon="-0.71738">
        <ele>81.5</ele>
        <time>2017-11-12T10:40:25Z</time>
      </trkpt>
      <trkpt lat="48.07003" lon="-0.7174">
        <ele>82.6</ele>
        <time>2017-11-12T10:40:29Z</time>
      </trkpt>
      <trkpt lat="48.06992" lon="-0.71744">
        <ele>83.3</ele>
        <time>2017-11-12T10:40:33Z</time>
      </trkpt>
      <trkpt lat="48.0698" lon="-0.71748">
        <ele>83.7</ele>
        <time>2017-11-12T10:40:37Z</time>
      </trkpt>
      <trkpt lat="48.06968" lon="-0.7175">
        <ele>84.1</ele>
        <time>2017-11-12T10:40:41Z</time>
      </trkpt>
      <trkpt lat="48.06958" lon="-0.71752">
        <ele>84.5</ele>
        <time>2017-11-12T10:40:45Z</time>
      </trkpt>
      <trkpt lat="48.06949" lon="-0.71754">
        <ele>84.8</ele>
        <time>2017-11-12T10:40:49Z</time>
      </trkpt>
      <trkpt lat="48.0694" lon="-0.71758">
        <ele>85.1</ele>
        <time>2017-11-12T10:40:53Z</time>
      </trkpt>
      <trkpt lat="48.06937" lon="-0.71762">
        <ele>85.1</ele>
        <time>2017-11-12T10:41:41Z</time>
      </trkpt>
      <trkpt lat="48.06931" lon="-0.71765">
        <ele>85.2</ele>
        <time>2017-11-12T10:41:45Z</time>
      </trkpt>
      <trkpt lat="48.06922" lon="-0.71765">
        <ele>85.4</ele>
        <time>2017-11-12T10:41:49Z</time>
      </trkpt>
      <trkpt lat="48.0691" lon="-0.71767">
        <ele>85.5</ele>
        <time>2017-11-12T10:41:53Z</time>
      </trkpt>
      <trkpt lat="48.06898" lon="-0.71768">
        <ele>85.8</ele>
        <time>2017-11-12T10:41:57Z</time>
      </trkpt>
      <trkpt lat="48.06884" lon="-0.71769">
        <ele>86.1</ele>
        <time>2017-11-12T10:42:01Z</time>
      </trkpt>
      <trkpt lat="48.06868" lon="-0.71773">
        <ele>86.1</ele>
        <time>2017-11-12T10:42:05Z</time>
      </trkpt>
      <trkpt lat="48.0685" lon="-0.71778">
        <ele>86.4</ele>
        <time>2017-11-12T10:42:09Z</time>
      </trkpt>
      <trkpt lat="48.06832" lon="-0.71783">
        <ele>86.8</ele>
        <time>2017-11-12T10:42:13Z</time>
      </trkpt>
      <trkpt lat="48.06812" lon="-0.7179">
        <ele>86.9</ele>
        <time>2017-11-12T10:42:17Z</time>
      </trkpt>
      <trkpt lat="48.06792" lon="-0.71796">
        <ele>87.5</ele>
        <time>2017-11-12T10:42:21Z</time>
      </trkpt>
      <trkpt lat="48.06772" lon="-0.71801">
        <ele>88.2</ele>
        <time>2017-11-12T10:42:25Z</time>
      </trkpt>
      <trkpt lat="48.06752" lon="-0.71808">
        <ele>88.9</ele>
        <time>2017-11-12T10:42:29Z</time>
      </trkpt>
      <trkpt lat="48.06734" lon="-0.71814">
        <ele>89.4</ele>
        <time>2017-11-12T10:42:33Z</time>
      </trkpt>
      <trkpt lat="48.06716" lon="-0.7182">
        <ele>89.7</ele>
        <time>2017-11-12T10:42:37Z</time>
      </trkpt>
      <trkpt lat="48.06698" lon="-0.71825">
        <ele>90.2</ele>
        <time>2017-11-12T10:42:41Z</time>
      </trkpt>
      <trkpt lat="48.06681" lon="-0.7183">
        <ele>90.5</ele>
        <time>2017-11-12T10:42:45Z</time>
      </trkpt>
      <trkpt lat="48.06665" lon="-0.71836">
        <ele>91.1</ele>
        <time>2017-11-12T10:42:49Z</time>
      </trkpt>
      <trkpt lat="48.0665" lon="-0.7184">
        <ele>92.2</ele>
        <time>2017-11-12T10:42:53Z</time>
      </trkpt>
      <trkpt lat="48.06633" lon="-0.71845">
        <ele>93.2</ele>
        <time>2017-11-12T10:42:57Z</time>
      </trkpt>
      <trkpt lat="48.06615" lon="-0.71847">
        <ele>93.8</ele>
        <time>2017-11-12T10:43:01Z</time>
      </trkpt>
      <trkpt lat="48.06599" lon="-0.71853">
        <ele>94.9</ele>
        <time>2017-11-12T10:43:05Z</time>
      </trkpt>
      <trkpt lat="48.06583" lon="-0.71857">
        <ele>96</ele>
        <time>2017-11-12T10:43:09Z</time>
      </trkpt>
      <trkpt lat="48.06566" lon="-0.71859">
        <ele>96.6</ele>
        <time>2017-11-12T10:43:13Z</time>
      </trkpt>
      <trkpt lat="48.0655" lon="-0.7186">
        <ele>97.2</ele>
        <time>2017-11-12T10:43:17Z</time>
      </trkpt>
      <trkpt lat="48.06534" lon="-0.71864">
        <ele>97.8</ele>
        <time>2017-11-12T10:43:21Z</time>
      </trkpt>
      <trkpt lat="48.06512" lon="-0.71868">
        <ele>98.6</ele>
        <time>2017-11-12T10:43:25Z</time>
      </trkpt>
      <trkpt lat="48.06495" lon="-0.71874">
        <ele>99.1</ele>
        <time>2017-11-12T10:43:29Z</time>
      </trkpt>
      <trkpt lat="48.06483" lon="-0.71879">
        <ele>99.2</ele>
        <time>2017-11-12T10:43:33Z</time>
      </trkpt>
      <trkpt lat="48.0647" lon="-0.71886">
        <ele>99.1</ele>
        <time>2017-11-12T10:43:37Z</time>
      </trkpt>
      <trkpt lat="48.06458" lon="-0.71893">
        <ele>99</ele>
        <time>2017-11-12T10:43:41Z</time>
      </trkpt>
      <trkpt lat="48.06444" lon="-0.71901">
        <ele>99</ele>
        <time>2017-11-12T10:43:45Z</time>
      </trkpt>
      <trkpt lat="48.0643" lon="-0.71908">
        <ele>99.1</ele>
        <time>2017-11-12T10:43:49Z</time>
      </trkpt>
      <trkpt lat="48.06417" lon="-0.71917">
        <ele>99</ele>
        <time>2017-11-12T10:43:53Z</time>
      </trkpt>
      <trkpt lat="48.06403" lon="-0.71925">
        <ele>99</ele>
        <time>2017-11-12T10:43:57Z</time>
      </trkpt>
      <trkpt lat="48.06387" lon="-0.71934">
        <ele>99</ele>
        <time>2017-11-12T10:44:01Z</time>
      </trkpt>
      <trkpt lat="48.06371" lon="-0.71943">
        <ele>99</ele>
        <time>2017-11-12T10:44:05Z</time>
      </trkpt>
      <trkpt lat="48.06354" lon="-0.71952">
        <ele>98.5</ele>
        <time>2017-11-12T10:44:09Z</time>
      </trkpt>
      <trkpt lat="48.06338" lon="-0.7196">
        <ele>98.1</ele>
        <time>2017-11-12T10:44:13Z</time>
      </trkpt>
      <trkpt lat="48.06321" lon="-0.71964">
        <ele>97.7</ele>
        <time>2017-11-12T10:44:17Z</time>
      </trkpt>
      <trkpt lat="48.06302" lon="-0.71967">
        <ele>97.1</ele>
        <time>2017-11-12T10:44:21Z</time>
      </trkpt>
      <trkpt lat="48.0628" lon="-0.71969">
        <ele>96.2</ele>
        <time>2017-11-12T10:44:25Z</time>
      </trkpt>
      <trkpt lat="48.06256" lon="-0.71974">
        <ele>96</ele>
        <time>2017-11-12T10:44:29Z</time>
      </trkpt>
      <trkpt lat="48.0623" lon="-0.71977">
        <ele>94.6</ele>
        <time>2017-11-12T10:44:33Z</time>
      </trkpt>
      <trkpt lat="48.06203" lon="-0.71974">
        <ele>93.3</ele>
        <time>2017-11-12T10:44:37Z</time>
      </trkpt>
      <trkpt lat="48.06175" lon="-0.71971">
        <ele>92.3</ele>
        <time>2017-11-12T10:44:41Z</time>
      </trkpt>
      <trkpt lat="48.06146" lon="-0.71966">
        <ele>91.2</ele>
        <time>2017-11-12T10:44:45Z</time>
      </trkpt>
      <trkpt lat="48.06115" lon="-0.71961">
        <ele>90.1</ele>
        <time>2017-11-12T10:44:49Z</time>
      </trkpt>
      <trkpt lat="48.06084" lon="-0.71956">
        <ele>89</ele>
        <time>2017-11-12T10:44:53Z</time>
      </trkpt>
      <trkpt lat="48.06052" lon="-0.7195">
        <ele>87.9</ele>
        <time>2017-11-12T10:44:57Z</time>
      </trkpt>
      <trkpt lat="48.0602" lon="-0.71945">
        <ele>86.7</ele>
        <time>2017-11-12T10:45:01Z</time>
      </trkpt>
      <trkpt lat="48.05989" lon="-0.71935">
        <ele>86</ele>
        <time>2017-11-12T10:45:05Z</time>
      </trkpt>
      <trkpt lat="48.05959" lon="-0.71919">
        <ele>86</ele>
        <time>2017-11-12T10:45:09Z</time>
      </trkpt>
      <trkpt lat="48.05935" lon="-0.71895">
        <ele>86.3</ele>
        <time>2017-11-12T10:45:13Z</time>
      </trkpt>
      <trkpt lat="48.05923" lon="-0.71863">
        <ele>86.8</ele>
        <time>2017-11-12T10:45:17Z</time>
      </trkpt>
      <trkpt lat="48.05915" lon="-0.7183">
        <ele>87.2</ele>
        <time>2017-11-12T10:45:21Z</time>
      </trkpt>
      <trkpt lat="48.05905" lon="-0.71804">
        <ele>88.4</ele>
        <time>2017-11-12T10:45:25Z</time>
      </trkpt>
      <trkpt lat="48.0589" lon="-0.71789">
        <ele>89</ele>
        <time>2017-11-12T10:45:29Z</time>
      </trkpt>
      <trkpt lat="48.05872" lon="-0.71783">
        <ele>89.6</ele>
        <time>2017-11-12T10:45:33Z</time>
      </trkpt>
      <trkpt lat="48.05854" lon="-0.71777">
        <ele>90.3</ele>
        <time>2017-11-12T10:45:37Z</time>
      </trkpt>
      <trkpt lat="48.05836" lon="-0.7177">
        <ele>90.9</ele>
        <time>2017-11-12T10:45:41Z</time>
      </trkpt>
      <trkpt lat="48.05819" lon="-0.71764">
        <ele>91.5</ele>
        <time>2017-11-12T10:45:45Z</time>
      </trkpt>
      <trkpt lat="48.05801" lon="-0.71757">
        <ele>92.2</ele>
        <time>2017-11-12T10:45:49Z</time>
      </trkpt>
      <trkpt lat="48.05784" lon="-0.71749">
        <ele>92.8</ele>
        <time>2017-11-12T10:45:53Z</time>
      </trkpt>
      <trkpt lat="48.05768" lon="-0.71743">
        <ele>93.3</ele>
        <time>2017-11-12T10:45:57Z</time>
      </trkpt>
      <trkpt lat="48.05751" lon="-0.71737">
        <ele>94</ele>
        <time>2017-11-12T10:46:01Z</time>
      </trkpt>
      <trkpt lat="48.05734" lon="-0.71731">
        <ele>94</ele>
        <time>2017-11-12T10:46:05Z</time>
      </trkpt>
      <trkpt lat="48.05717" lon="-0.71727">
        <ele>94</ele>
        <time>2017-11-12T10:46:09Z</time>
      </trkpt>
      <trkpt lat="48.057" lon="-0.71732">
        <ele>94</ele>
        <time>2017-11-12T10:46:13Z</time>
      </trkpt>
      <trkpt lat="48.05683" lon="-0.71742">
        <ele>93.7</ele>
        <time>2017-11-12T10:46:17Z</time>
      </trkpt>
      <trkpt lat="48.05663" lon="-0.71751">
        <ele>93</ele>
        <time>2017-11-12T10:46:21Z</time>
      </trkpt>
      <trkpt lat="48.05642" lon="-0.71755">
        <ele>92.8</ele>
        <time>2017-11-12T10:46:25Z</time>
      </trkpt>
      <trkpt lat="48.05622" lon="-0.71755">
        <ele>92.2</ele>
        <time>2017-11-12T10:46:29Z</time>
      </trkpt>
      <trkpt lat="48.05601" lon="-0.71762">
        <ele>91.6</ele>
        <time>2017-11-12T10:46:33Z</time>
      </trkpt>
      <trkpt lat="48.05582" lon="-0.71775">
        <ele>91.1</ele>
        <time>2017-11-12T10:46:37Z</time>
      </trkpt>
      <trkpt lat="48.05565" lon="-0.71791">
        <ele>91</ele>
        <time>2017-11-12T10:46:41Z</time>
      </trkpt>
      <trkpt lat="48.05545" lon="-0.71809">
        <ele>90.6</ele>
        <time>2017-11-12T10:46:45Z</time>
      </trkpt>
      <trkpt lat="48.05527" lon="-0.71826">
        <ele>90</ele>
        <time>2017-11-12T10:46:49Z</time>
      </trkpt>
      <trkpt lat="48.055" lon="-0.71848">
        <ele>89.5</ele>
        <time>2017-11-12T10:46:53Z</time>
      </trkpt>
      <trkpt lat="48.05484" lon="-0.71866">
        <ele>89</ele>
        <time>2017-11-12T10:46:57Z</time>
      </trkpt>
      <trkpt lat="48.05465" lon="-0.71884">
        <ele>89</ele>
        <time>2017-11-12T10:47:01Z</time>
      </trkpt>
      <trkpt lat="48.05447" lon="-0.71903">
        <ele>88.5</ele>
        <time>2017-11-12T10:47:05Z</time>
      </trkpt>
      <trkpt lat="48.05425" lon="-0.71921">
        <ele>88.6</ele>
        <time>2017-11-12T10:47:09Z</time>
      </trkpt>
      <trkpt lat="48.05402" lon="-0.71937">
        <ele>88.6</ele>
        <time>2017-11-12T10:47:13Z</time>
      </trkpt>
      <trkpt lat="48.05381" lon="-0.71953">
        <ele>88.7</ele>
        <time>2017-11-12T10:47:17Z</time>
      </trkpt>
      <trkpt lat="48.05359" lon="-0.71969">
        <ele>88.2</ele>
        <time>2017-11-12T10:47:21Z</time>
      </trkpt>
      <trkpt lat="48.05338" lon="-0.71986">
        <ele>88.4</ele>
        <time>2017-11-12T10:47:25Z</time>
      </trkpt>
      <trkpt lat="48.05319" lon="-0.72004">
        <ele>88.5</ele>
        <time>2017-11-12T10:47:29Z</time>
      </trkpt>
      <trkpt lat="48.053" lon="-0.72022">
        <ele>88.8</ele>
        <time>2017-11-12T10:47:34Z</time>
      </trkpt>
      <trkpt lat="48.05282" lon="-0.7204">
        <ele>88.1</ele>
        <time>2017-11-12T10:47:37Z</time>
      </trkpt>
      <trkpt lat="48.05263" lon="-0.72057">
        <ele>88.1</ele>
        <time>2017-11-12T10:47:41Z</time>
      </trkpt>
      <trkpt lat="48.05244" lon="-0.72074">
        <ele>88.5</ele>
        <time>2017-11-12T10:47:45Z</time>
      </trkpt>
      <trkpt lat="48.05225" lon="-0.72093">
        <ele>88.1</ele>
        <time>2017-11-12T10:47:49Z</time>
      </trkpt>
      <trkpt lat="48.05206" lon="-0.72109">
        <ele>88</ele>
        <time>2017-11-12T10:47:53Z</time>
      </trkpt>
      <trkpt lat="48.05187" lon="-0.72124">
        <ele>88.3</ele>
        <time>2017-11-12T10:47:57Z</time>
      </trkpt>
      <trkpt lat="48.0517" lon="-0.72137">
        <ele>88.1</ele>
        <time>2017-11-12T10:48:01Z</time>
      </trkpt>
      <trkpt lat="48.05148" lon="-0.72151">
        <ele>88.4</ele>
        <time>2017-11-12T10:48:05Z</time>
      </trkpt>
      <trkpt lat="48.05126" lon="-0.72164">
        <ele>88.5</ele>
        <time>2017-11-12T10:48:09Z</time>
      </trkpt>
      <trkpt lat="48.05103" lon="-0.72174">
        <ele>88</ele>
        <time>2017-11-12T10:48:13Z</time>
      </trkpt>
      <trkpt lat="48.05079" lon="-0.72181">
        <ele>88</ele>
        <time>2017-11-12T10:48:17Z</time>
      </trkpt>
      <trkpt lat="48.05057" lon="-0.72185">
        <ele>88</ele>
        <time>2017-11-12T10:48:21Z</time>
      </trkpt>
      <trkpt lat="48.05035" lon="-0.72191">
        <ele>87.9</ele>
        <time>2017-11-12T10:48:25Z</time>
      </trkpt>
      <trkpt lat="48.05013" lon="-0.72195">
        <ele>88</ele>
        <time>2017-11-12T10:48:29Z</time>
      </trkpt>
      <trkpt lat="48.04991" lon="-0.72198">
        <ele>88</ele>
        <time>2017-11-12T10:48:33Z</time>
      </trkpt>
      <trkpt lat="48.04969" lon="-0.72202">
        <ele>88</ele>
        <time>2017-11-12T10:48:37Z</time>
      </trkpt>
      <trkpt lat="48.04947" lon="-0.72206">
        <ele>88</ele>
        <time>2017-11-12T10:48:41Z</time>
      </trkpt>
      <trkpt lat="48.04927" lon="-0.72208">
        <ele>88.3</ele>
        <time>2017-11-12T10:48:45Z</time>
      </trkpt>
      <trkpt lat="48.04908" lon="-0.72211">
        <ele>88.9</ele>
        <time>2017-11-12T10:48:49Z</time>
      </trkpt>
      <trkpt lat="48.04887" lon="-0.72212">
        <ele>89.7</ele>
        <time>2017-11-12T10:48:53Z</time>
      </trkpt>
      <trkpt lat="48.04868" lon="-0.72212">
        <ele>89.9</ele>
        <time>2017-11-12T10:48:57Z</time>
      </trkpt>
      <trkpt lat="48.0485" lon="-0.72208">
        <ele>90.2</ele>
        <time>2017-11-12T10:49:01Z</time>
      </trkpt>
      <trkpt lat="48.04831" lon="-0.7221">
        <ele>90.6</ele>
        <time>2017-11-12T10:49:05Z</time>
      </trkpt>
      <trkpt lat="48.04814" lon="-0.72215">
        <ele>90.7</ele>
        <time>2017-11-12T10:49:09Z</time>
      </trkpt>
      <trkpt lat="48.04797" lon="-0.72221">
        <ele>91</ele>
        <time>2017-11-12T10:49:13Z</time>
      </trkpt>
      <trkpt lat="48.04782" lon="-0.72227">
        <ele>91.3</ele>
        <time>2017-11-12T10:49:17Z</time>
      </trkpt>
      <trkpt lat="48.04768" lon="-0.72233">
        <ele>91.9</ele>
        <time>2017-11-12T10:49:21Z</time>
      </trkpt>
      <trkpt lat="48.04752" lon="-0.72242">
        <ele>92</ele>
        <time>2017-11-12T10:49:25Z</time>
      </trkpt>
      <trkpt lat="48.04736" lon="-0.72247">
        <ele>92.5</ele>
        <time>2017-11-12T10:49:29Z</time>
      </trkpt>
      <trkpt lat="48.04721" lon="-0.72253">
        <ele>93.1</ele>
        <time>2017-11-12T10:49:33Z</time>
      </trkpt>
      <trkpt lat="48.04706" lon="-0.72257">
        <ele>93.8</ele>
        <time>2017-11-12T10:49:37Z</time>
      </trkpt>
      <trkpt lat="48.04692" lon="-0.72259">
        <ele>94.4</ele>
        <time>2017-11-12T10:49:41Z</time>
      </trkpt>
      <trkpt lat="48.04677" lon="-0.72263">
        <ele>94.8</ele>
        <time>2017-11-12T10:49:45Z</time>
      </trkpt>
      <trkpt lat="48.04662" lon="-0.72268">
        <ele>95.1</ele>
        <time>2017-11-12T10:49:49Z</time>
      </trkpt>
      <trkpt lat="48.04647" lon="-0.72271">
        <ele>95.5</ele>
        <time>2017-11-12T10:49:53Z</time>
      </trkpt>
      <trkpt lat="48.04633" lon="-0.72277">
        <ele>96</ele>
        <time>2017-11-12T10:49:57Z</time>
      </trkpt>
      <trkpt lat="48.04619" lon="-0.72283">
        <ele>96</ele>
        <time>2017-11-12T10:50:01Z</time>
      </trkpt>
      <trkpt lat="48.04605" lon="-0.7229">
        <ele>96</ele>
        <time>2017-11-12T10:50:05Z</time>
      </trkpt>
      <trkpt lat="48.0459" lon="-0.72294">
        <ele>96</ele>
        <time>2017-11-12T10:50:09Z</time>
      </trkpt>
      <trkpt lat="48.04575" lon="-0.723">
        <ele>96</ele>
        <time>2017-11-12T10:50:13Z</time>
      </trkpt>
      <trkpt lat="48.04559" lon="-0.72306">
        <ele>96</ele>
        <time>2017-11-12T10:50:17Z</time>
      </trkpt>
      <trkpt lat="48.04542" lon="-0.72313">
        <ele>96.5</ele>
        <time>2017-11-12T10:50:21Z</time>
      </trkpt>
      <trkpt lat="48.04528" lon="-0.72323">
        <ele>97</ele>
        <time>2017-11-12T10:50:25Z</time>
      </trkpt>
      <trkpt lat="48.04513" lon="-0.72335">
        <ele>97</ele>
        <time>2017-11-12T10:50:29Z</time>
      </trkpt>
      <trkpt lat="48.04496" lon="-0.72349">
        <ele>97.2</ele>
        <time>2017-11-12T10:50:33Z</time>
      </trkpt>
      <trkpt lat="48.0448" lon="-0.72364">
        <ele>97.8</ele>
        <time>2017-11-12T10:50:37Z</time>
      </trkpt>
      <trkpt lat="48.04464" lon="-0.72379">
        <ele>98.8</ele>
        <time>2017-11-12T10:50:41Z</time>
      </trkpt>
      <trkpt lat="48.04449" lon="-0.72391">
        <ele>99.2</ele>
        <time>2017-11-12T10:50:45Z</time>
      </trkpt>
      <trkpt lat="48.04437" lon="-0.72401">
        <ele>100.3</ele>
        <time>2017-11-12T10:50:49Z</time>
      </trkpt>
      <trkpt lat="48.04428" lon="-0.72408">
        <ele>101.1</ele>
        <time>2017-11-12T10:50:53Z</time>
      </trkpt>
      <trkpt lat="48.0442" lon="-0.72414">
        <ele>101.8</ele>
        <time>2017-11-12T10:50:57Z</time>
      </trkpt>
      <trkpt lat="48.04414" lon="-0.72422">
        <ele>102</ele>
        <time>2017-11-12T10:51:01Z</time>
      </trkpt>
      <trkpt lat="48.04411" lon="-0.72425">
        <ele>102</ele>
        <time>2017-11-12T10:51:33Z</time>
      </trkpt>
      <trkpt lat="48.04403" lon="-0.72429">
        <ele>102</ele>
        <time>2017-11-12T10:51:37Z</time>
      </trkpt>
      <trkpt lat="48.04391" lon="-0.72431">
        <ele>102</ele>
        <time>2017-11-12T10:51:41Z</time>
      </trkpt>
      <trkpt lat="48.04375" lon="-0.72443">
        <ele>102</ele>
        <time>2017-11-12T10:51:45Z</time>
      </trkpt>
      <trkpt lat="48.04358" lon="-0.72459">
        <ele>102</ele>
        <time>2017-11-12T10:51:49Z</time>
      </trkpt>
      <trkpt lat="48.04341" lon="-0.72474">
        <ele>102</ele>
        <time>2017-11-12T10:51:53Z</time>
      </trkpt>
      <trkpt lat="48.04323" lon="-0.72491">
        <ele>102.1</ele>
        <time>2017-11-12T10:51:57Z</time>
      </trkpt>
      <trkpt lat="48.04304" lon="-0.7251">
        <ele>102</ele>
        <time>2017-11-12T10:52:01Z</time>
      </trkpt>
      <trkpt lat="48.04283" lon="-0.72529">
        <ele>102</ele>
        <time>2017-11-12T10:52:05Z</time>
      </trkpt>
      <trkpt lat="48.04262" lon="-0.72546">
        <ele>102</ele>
        <time>2017-11-12T10:52:09Z</time>
      </trkpt>
      <trkpt lat="48.04241" lon="-0.72566">
        <ele>101.7</ele>
        <time>2017-11-12T10:52:13Z</time>
      </trkpt>
      <trkpt lat="48.0422" lon="-0.72585">
        <ele>101.9</ele>
        <time>2017-11-12T10:52:17Z</time>
      </trkpt>
      <trkpt lat="48.042" lon="-0.72607">
        <ele>101</ele>
        <time>2017-11-12T10:52:21Z</time>
      </trkpt>
      <trkpt lat="48.04182" lon="-0.72627">
        <ele>101</ele>
        <time>2017-11-12T10:52:25Z</time>
      </trkpt>
      <trkpt lat="48.04165" lon="-0.72648">
        <ele>101</ele>
        <time>2017-11-12T10:52:29Z</time>
      </trkpt>
      <trkpt lat="48.04133" lon="-0.72688">
        <ele>101</ele>
        <time>2017-11-12T10:52:34Z</time>
      </trkpt>
      <trkpt lat="48.04118" lon="-0.72709">
        <ele>101</ele>
        <time>2017-11-12T10:52:41Z</time>
      </trkpt>
      <trkpt lat="48.04103" lon="-0.72731">
        <ele>101</ele>
        <time>2017-11-12T10:52:45Z</time>
      </trkpt>
      <trkpt lat="48.04088" lon="-0.72756">
        <ele>100.8</ele>
        <time>2017-11-12T10:52:49Z</time>
      </trkpt>
      <trkpt lat="48.04075" lon="-0.72782">
        <ele>100.3</ele>
        <time>2017-11-12T10:52:53Z</time>
      </trkpt>
      <trkpt lat="48.04066" lon="-0.72807">
        <ele>100.6</ele>
        <time>2017-11-12T10:52:57Z</time>
      </trkpt>
      <trkpt lat="48.04059" lon="-0.72828">
        <ele>100.8</ele>
        <time>2017-11-12T10:53:01Z</time>
      </trkpt>
      <trkpt lat="48.04053" lon="-0.72852">
        <ele>101.1</ele>
        <time>2017-11-12T10:53:05Z</time>
      </trkpt>
      <trkpt lat="48.04047" lon="-0.72878">
        <ele>101.6</ele>
        <time>2017-11-12T10:53:09Z</time>
      </trkpt>
      <trkpt lat="48.04042" lon="-0.72902">
        <ele>102.2</ele>
        <time>2017-11-12T10:53:13Z</time>
      </trkpt>
      <trkpt lat="48.04037" lon="-0.72926">
        <ele>102.7</ele>
        <time>2017-11-12T10:53:17Z</time>
      </trkpt>
      <trkpt lat="48.04032" lon="-0.72951">
        <ele>102.9</ele>
        <time>2017-11-12T10:53:21Z</time>
      </trkpt>
      <trkpt lat="48.04027" lon="-0.72976">
        <ele>103</ele>
        <time>2017-11-12T10:53:25Z</time>
      </trkpt>
      <trkpt lat="48.04022" lon="-0.73002">
        <ele>103.2</ele>
        <time>2017-11-12T10:53:29Z</time>
      </trkpt>
      <trkpt lat="48.04016" lon="-0.73027">
        <ele>103.4</ele>
        <time>2017-11-12T10:53:33Z</time>
      </trkpt>
      <trkpt lat="48.0401" lon="-0.73053">
        <ele>103.6</ele>
        <time>2017-11-12T10:53:37Z</time>
      </trkpt>
      <trkpt lat="48.04005" lon="-0.73079">
        <ele>103.1</ele>
        <time>2017-11-12T10:53:41Z</time>
      </trkpt>
      <trkpt lat="48.03999" lon="-0.73105">
        <ele>103</ele>
        <time>2017-11-12T10:53:45Z</time>
      </trkpt>
      <trkpt lat="48.03994" lon="-0.73131">
        <ele>103</ele>
        <time>2017-11-12T10:53:49Z</time>
      </trkpt>
      <trkpt lat="48.03988" lon="-0.73157">
        <ele>103</ele>
        <time>2017-11-12T10:53:53Z</time>
      </trkpt>
      <trkpt lat="48.03981" lon="-0.73185">
        <ele>102.6</ele>
        <time>2017-11-12T10:53:57Z</time>
      </trkpt>
      <trkpt lat="48.03975" lon="-0.73212">
        <ele>102</ele>
        <time>2017-11-12T10:54:01Z</time>
      </trkpt>
      <trkpt lat="48.03969" lon="-0.7324">
        <ele>101.9</ele>
        <time>2017-11-12T10:54:05Z</time>
      </trkpt>
      <trkpt lat="48.03963" lon="-0.73265">
        <ele>101.7</ele>
        <time>2017-11-12T10:54:09Z</time>
      </trkpt>
      <trkpt lat="48.03965" lon="-0.73286">
        <ele>101.5</ele>
        <time>2017-11-12T10:54:13Z</time>
      </trkpt>
      <trkpt lat="48.03977" lon="-0.73293">
        <ele>101.6</ele>
        <time>2017-11-12T10:54:17Z</time>
      </trkpt>
      <trkpt lat="48.0399" lon="-0.73299">
        <ele>101.7</ele>
        <time>2017-11-12T10:54:21Z</time>
      </trkpt>
      <trkpt lat="48.04006" lon="-0.73306">
        <ele>102</ele>
        <time>2017-11-12T10:54:25Z</time>
      </trkpt>
      <trkpt lat="48.04021" lon="-0.73313">
        <ele>101.7</ele>
        <time>2017-11-12T10:54:29Z</time>
      </trkpt>
      <trkpt lat="48.04037" lon="-0.7332">
        <ele>101.6</ele>
        <time>2017-11-12T10:54:33Z</time>
      </trkpt>
      <trkpt lat="48.04053" lon="-0.73329">
        <ele>101.9</ele>
        <time>2017-11-12T10:54:37Z</time>
      </trkpt>
      <trkpt lat="48.04067" lon="-0.73334">
        <ele>102</ele>
        <time>2017-11-12T10:54:41Z</time>
      </trkpt>
      <trkpt lat="48.04081" lon="-0.7334">
        <ele>102</ele>
        <time>2017-11-12T10:54:45Z</time>
      </trkpt>
      <trkpt lat="48.04097" lon="-0.73344">
        <ele>102</ele>
        <time>2017-11-12T10:54:49Z</time>
      </trkpt>
      <trkpt lat="48.04111" lon="-0.73351">
        <ele>102</ele>
        <time>2017-11-12T10:54:53Z</time>
      </trkpt>
      <trkpt lat="48.04127" lon="-0.73357">
        <ele>102</ele>
        <time>2017-11-12T10:54:57Z</time>
      </trkpt>
      <trkpt lat="48.0414" lon="-0.73366">
        <ele>101.8</ele>
        <time>2017-11-12T10:55:01Z</time>
      </trkpt>
      <trkpt lat="48.04143" lon="-0.73387">
        <ele>101.1</ele>
        <time>2017-11-12T10:55:05Z</time>
      </trkpt>
      <trkpt lat="48.04137" lon="-0.73411">
        <ele>101.1</ele>
        <time>2017-11-12T10:55:09Z</time>
      </trkpt>
      <trkpt lat="48.04131" lon="-0.73435">
        <ele>100.7</ele>
        <time>2017-11-12T10:55:13Z</time>
      </trkpt>
      <trkpt lat="48.04123" lon="-0.7346">
        <ele>100.5</ele>
        <time>2017-11-12T10:55:17Z</time>
      </trkpt>
      <trkpt lat="48.04118" lon="-0.73486">
        <ele>100.2</ele>
        <time>2017-11-12T10:55:21Z</time>
      </trkpt>
      <trkpt lat="48.04115" lon="-0.73512">
        <ele>100.1</ele>
        <time>2017-11-12T10:55:25Z</time>
      </trkpt>
      <trkpt lat="48.04111" lon="-0.73536">
        <ele>99.7</ele>
        <time>2017-11-12T10:55:29Z</time>
      </trkpt>
      <trkpt lat="48.04105" lon="-0.73559">
        <ele>99.3</ele>
        <time>2017-11-12T10:55:33Z</time>
      </trkpt>
      <trkpt lat="48.041" lon="-0.73581">
        <ele>100</ele>
        <time>2017-11-12T10:55:37Z</time>
      </trkpt>
      <trkpt lat="48.04093" lon="-0.7361">
        <ele>99</ele>
        <time>2017-11-12T10:55:41Z</time>
      </trkpt>
      <trkpt lat="48.04088" lon="-0.73637">
        <ele>99</ele>
        <time>2017-11-12T10:55:45Z</time>
      </trkpt>
      <trkpt lat="48.04083" lon="-0.73665">
        <ele>99</ele>
        <time>2017-11-12T10:55:49Z</time>
      </trkpt>
      <trkpt lat="48.04076" lon="-0.7369">
        <ele>98.1</ele>
        <time>2017-11-12T10:55:53Z</time>
      </trkpt>
      <trkpt lat="48.04071" lon="-0.73715">
        <ele>98.4</ele>
        <time>2017-11-12T10:55:57Z</time>
      </trkpt>
      <trkpt lat="48.04067" lon="-0.73742">
        <ele>97.7</ele>
        <time>2017-11-12T10:56:01Z</time>
      </trkpt>
      <trkpt lat="48.04061" lon="-0.73771">
        <ele>97</ele>
        <time>2017-11-12T10:56:05Z</time>
      </trkpt>
      <trkpt lat="48.04054" lon="-0.73801">
        <ele>96.1</ele>
        <time>2017-11-12T10:56:09Z</time>
      </trkpt>
      <trkpt lat="48.04049" lon="-0.73829">
        <ele>94.9</ele>
        <time>2017-11-12T10:56:13Z</time>
      </trkpt>
      <trkpt lat="48.04044" lon="-0.73855">
        <ele>93.3</ele>
        <time>2017-11-12T10:56:17Z</time>
      </trkpt>
      <trkpt lat="48.04047" lon="-0.73878">
        <ele>92</ele>
        <time>2017-11-12T10:56:21Z</time>
      </trkpt>
      <trkpt lat="48.04063" lon="-0.73886">
        <ele>91.7</ele>
        <time>2017-11-12T10:56:25Z</time>
      </trkpt>
      <trkpt lat="48.04081" lon="-0.73892">
        <ele>92.5</ele>
        <time>2017-11-12T10:56:29Z</time>
      </trkpt>
      <trkpt lat="48.04099" lon="-0.73899">
        <ele>92.3</ele>
        <time>2017-11-12T10:56:33Z</time>
      </trkpt>
      <trkpt lat="48.04115" lon="-0.73906">
        <ele>92.7</ele>
        <time>2017-11-12T10:56:37Z</time>
      </trkpt>
      <trkpt lat="48.04129" lon="-0.73914">
        <ele>93.4</ele>
        <time>2017-11-12T10:56:41Z</time>
      </trkpt>
      <trkpt lat="48.04143" lon="-0.73921">
        <ele>94.1</ele>
        <time>2017-11-12T10:56:45Z</time>
      </trkpt>
      <trkpt lat="48.04157" lon="-0.73924">
        <ele>94.9</ele>
        <time>2017-11-12T10:56:49Z</time>
      </trkpt>
      <trkpt lat="48.04172" lon="-0.73928">
        <ele>95.2</ele>
        <time>2017-11-12T10:56:53Z</time>
      </trkpt>
      <trkpt lat="48.04186" lon="-0.73936">
        <ele>94.6</ele>
        <time>2017-11-12T10:56:57Z</time>
      </trkpt>
      <trkpt lat="48.042" lon="-0.73941">
        <ele>94.2</ele>
        <time>2017-11-12T10:57:01Z</time>
      </trkpt>
      <trkpt lat="48.04216" lon="-0.73947">
        <ele>93.9</ele>
        <time>2017-11-12T10:57:05Z</time>
      </trkpt>
      <trkpt lat="48.04232" lon="-0.73952">
        <ele>93.7</ele>
        <time>2017-11-12T10:57:09Z</time>
      </trkpt>
      <trkpt lat="48.04249" lon="-0.73957">
        <ele>93.6</ele>
        <time>2017-11-12T10:57:13Z</time>
      </trkpt>
      <trkpt lat="48.04267" lon="-0.73963">
        <ele>93.1</ele>
        <time>2017-11-12T10:57:17Z</time>
      </trkpt>
      <trkpt lat="48.04285" lon="-0.73969">
        <ele>92.8</ele>
        <time>2017-11-12T10:57:21Z</time>
      </trkpt>
      <trkpt lat="48.04303" lon="-0.73976">
        <ele>92</ele>
        <time>2017-11-12T10:57:25Z</time>
      </trkpt>
      <trkpt lat="48.04325" lon="-0.73985">
        <ele>91.2</ele>
        <time>2017-11-12T10:57:29Z</time>
      </trkpt>
      <trkpt lat="48.04343" lon="-0.74005">
        <ele>89.9</ele>
        <time>2017-11-12T10:57:33Z</time>
      </trkpt>
      <trkpt lat="48.04356" lon="-0.74031">
        <ele>89.7</ele>
        <time>2017-11-12T10:57:37Z</time>
      </trkpt>
      <trkpt lat="48.04369" lon="-0.74056">
        <ele>88.7</ele>
        <time>2017-11-12T10:57:41Z</time>
      </trkpt>
      <trkpt lat="48.04383" lon="-0.74081">
        <ele>86.9</ele>
        <time>2017-11-12T10:57:45Z</time>
      </trkpt>
      <trkpt lat="48.04393" lon="-0.74113">
        <ele>86.8</ele>
        <time>2017-11-12T10:57:49Z</time>
      </trkpt>
      <trkpt lat="48.04399" lon="-0.74152">
        <ele>85.7</ele>
        <time>2017-11-12T10:57:53Z</time>
      </trkpt>
      <trkpt lat="48.044" lon="-0.74181">
        <ele>85.2</ele>
        <time>2017-11-12T10:57:57Z</time>
      </trkpt>
      <trkpt lat="48.0441" lon="-0.74196">
        <ele>84.9</ele>
        <time>2017-11-12T10:58:01Z</time>
      </trkpt>
      <trkpt lat="48.04427" lon="-0.74201">
        <ele>84.7</ele>
        <time>2017-11-12T10:58:05Z</time>
      </trkpt>
      <trkpt lat="48.04447" lon="-0.7421">
        <ele>83.9</ele>
        <time>2017-11-12T10:58:09Z</time>
      </trkpt>
      <trkpt lat="48.0447" lon="-0.74225">
        <ele>82.9</ele>
        <time>2017-11-12T10:58:13Z</time>
      </trkpt>
      <trkpt lat="48.04494" lon="-0.74239">
        <ele>81.6</ele>
        <time>2017-11-12T10:58:17Z</time>
      </trkpt>
      <trkpt lat="48.04512" lon="-0.74255">
        <ele>80.9</ele>
        <time>2017-11-12T10:58:21Z</time>
      </trkpt>
      <trkpt lat="48.04511" lon="-0.74279">
        <ele>80.6</ele>
        <time>2017-11-12T10:58:25Z</time>
      </trkpt>
      <trkpt lat="48.04503" lon="-0.743">
        <ele>80.2</ele>
        <time>2017-11-12T10:58:29Z</time>
      </trkpt>
      <trkpt lat="48.04494" lon="-0.74322">
        <ele>79.6</ele>
        <time>2017-11-12T10:58:33Z</time>
      </trkpt>
      <trkpt lat="48.04487" lon="-0.74344">
        <ele>78.5</ele>
        <time>2017-11-12T10:58:37Z</time>
      </trkpt>
      <trkpt lat="48.04484" lon="-0.74361">
        <ele>77</ele>
        <time>2017-11-12T10:58:41Z</time>
      </trkpt>
      <trkpt lat="48.04489" lon="-0.74369">
        <ele>76.7</ele>
        <time>2017-11-12T10:58:45Z</time>
      </trkpt>
      <trkpt lat="48.04497" lon="-0.74377">
        <ele>76.4</ele>
        <time>2017-11-12T10:58:49Z</time>
      </trkpt>
      <trkpt lat="48.04507" lon="-0.7439">
        <ele>75.9</ele>
        <time>2017-11-12T10:58:53Z</time>
      </trkpt>
      <trkpt lat="48.04523" lon="-0.74399">
        <ele>75.3</ele>
        <time>2017-11-12T10:58:57Z</time>
      </trkpt>
      <trkpt lat="48.0454" lon="-0.74407">
        <ele>74.6</ele>
        <time>2017-11-12T10:59:01Z</time>
      </trkpt>
      <trkpt lat="48.04556" lon="-0.74414">
        <ele>74.1</ele>
        <time>2017-11-12T10:59:05Z</time>
      </trkpt>
      <trkpt lat="48.04575" lon="-0.74422">
        <ele>73.4</ele>
        <time>2017-11-12T10:59:09Z</time>
      </trkpt>
      <trkpt lat="48.04592" lon="-0.74428">
        <ele>73</ele>
        <time>2017-11-12T10:59:13Z</time>
      </trkpt>
      <trkpt lat="48.0461" lon="-0.74435">
        <ele>73.3</ele>
        <time>2017-11-12T10:59:17Z</time>
      </trkpt>
      <trkpt lat="48.04633" lon="-0.74443">
        <ele>73</ele>
        <time>2017-11-12T10:59:21Z</time>
      </trkpt>
      <trkpt lat="48.04657" lon="-0.74451">
        <ele>72</ele>
        <time>2017-11-12T10:59:25Z</time>
      </trkpt>
      <trkpt lat="48.04678" lon="-0.74461">
        <ele>71.2</ele>
        <time>2017-11-12T10:59:29Z</time>
      </trkpt>
      <trkpt lat="48.047" lon="-0.74473">
        <ele>70.8</ele>
        <time>2017-11-12T10:59:33Z</time>
      </trkpt>
      <trkpt lat="48.04721" lon="-0.74485">
        <ele>70</ele>
        <time>2017-11-12T10:59:37Z</time>
      </trkpt>
      <trkpt lat="48.04749" lon="-0.74499">
        <ele>69.1</ele>
        <time>2017-11-12T10:59:41Z</time>
      </trkpt>
      <trkpt lat="48.04769" lon="-0.74509">
        <ele>68</ele>
        <time>2017-11-12T10:59:45Z</time>
      </trkpt>
      <trkpt lat="48.04781" lon="-0.74524">
        <ele>67.1</ele>
        <time>2017-11-12T10:59:49Z</time>
      </trkpt>
      <trkpt lat="48.04777" lon="-0.74551">
        <ele>66.2</ele>
        <time>2017-11-12T10:59:53Z</time>
      </trkpt>
      <trkpt lat="48.04768" lon="-0.74581">
        <ele>65.4</ele>
        <time>2017-11-12T10:59:57Z</time>
      </trkpt>
      <trkpt lat="48.04754" lon="-0.74608">
        <ele>64.8</ele>
        <time>2017-11-12T11:00:01Z</time>
      </trkpt>
      <trkpt lat="48.0474" lon="-0.7463">
        <ele>64.3</ele>
        <time>2017-11-12T11:00:05Z</time>
      </trkpt>
      <trkpt lat="48.04726" lon="-0.74646">
        <ele>64.5</ele>
        <time>2017-11-12T11:00:09Z</time>
      </trkpt>
      <trkpt lat="48.04713" lon="-0.74663">
        <ele>64.2</ele>
        <time>2017-11-12T11:00:13Z</time>
      </trkpt>
      <trkpt lat="48.04699" lon="-0.74685">
        <ele>64.6</ele>
        <time>2017-11-12T11:00:17Z</time>
      </trkpt>
      <trkpt lat="48.04685" lon="-0.74704">
        <ele>65.7</ele>
        <time>2017-11-12T11:00:21Z</time>
      </trkpt>
      <trkpt lat="48.04673" lon="-0.74723">
        <ele>66.8</ele>
        <time>2017-11-12T11:00:25Z</time>
      </trkpt>
      <trkpt lat="48.04662" lon="-0.74744">
        <ele>67.6</ele>
        <time>2017-11-12T11:00:29Z</time>
      </trkpt>
      <trkpt lat="48.04653" lon="-0.74769">
        <ele>68.2</ele>
        <time>2017-11-12T11:00:33Z</time>
      </trkpt>
      <trkpt lat="48.04646" lon="-0.74797">
        <ele>69</ele>
        <time>2017-11-12T11:00:37Z</time>
      </trkpt>
      <trkpt lat="48.04644" lon="-0.74825">
        <ele>69.7</ele>
        <time>2017-11-12T11:00:41Z</time>
      </trkpt>
      <trkpt lat="48.04644" lon="-0.74851">
        <ele>70.1</ele>
        <time>2017-11-12T11:00:45Z</time>
      </trkpt>
      <trkpt lat="48.04645" lon="-0.74876">
        <ele>71.2</ele>
        <time>2017-11-12T11:00:49Z</time>
      </trkpt>
      <trkpt lat="48.04646" lon="-0.74901">
        <ele>72.8</ele>
        <time>2017-11-12T11:00:53Z</time>
      </trkpt>
      <trkpt lat="48.04647" lon="-0.74926">
        <ele>74</ele>
        <time>2017-11-12T11:00:57Z</time>
      </trkpt>
      <trkpt lat="48.04648" lon="-0.7495">
        <ele>74.9</ele>
        <time>2017-11-12T11:01:01Z</time>
      </trkpt>
      <trkpt lat="48.04649" lon="-0.74973">
        <ele>75.7</ele>
        <time>2017-11-12T11:01:05Z</time>
      </trkpt>
      <trkpt lat="48.04649" lon="-0.74995">
        <ele>76.5</ele>
        <time>2017-11-12T11:01:09Z</time>
      </trkpt>
      <trkpt lat="48.0465" lon="-0.75017">
        <ele>77.2</ele>
        <time>2017-11-12T11:01:13Z</time>
      </trkpt>
      <trkpt lat="48.04651" lon="-0.75038">
        <ele>77.8</ele>
        <time>2017-11-12T11:01:17Z</time>
      </trkpt>
      <trkpt lat="48.04653" lon="-0.75058">
        <ele>78.1</ele>
        <time>2017-11-12T11:01:21Z</time>
      </trkpt>
      <trkpt lat="48.04652" lon="-0.75077">
        <ele>78.8</ele>
        <time>2017-11-12T11:01:25Z</time>
      </trkpt>
      <trkpt lat="48.04653" lon="-0.75095">
        <ele>79.4</ele>
        <time>2017-11-12T11:01:29Z</time>
      </trkpt>
      <trkpt lat="48.04655" lon="-0.75113">
        <ele>79.9</ele>
        <time>2017-11-12T11:01:33Z</time>
      </trkpt>
      <trkpt lat="48.04655" lon="-0.7513">
        <ele>80.6</ele>
        <time>2017-11-12T11:01:37Z</time>
      </trkpt>
      <trkpt lat="48.04654" lon="-0.75147">
        <ele>81.1</ele>
        <time>2017-11-12T11:01:41Z</time>
      </trkpt>
      <trkpt lat="48.04653" lon="-0.75162">
        <ele>81.4</ele>
        <time>2017-11-12T11:01:45Z</time>
      </trkpt>
      <trkpt lat="48.04653" lon="-0.75175">
        <ele>81.7</ele>
        <time>2017-11-12T11:01:49Z</time>
      </trkpt>
      <trkpt lat="48.04651" lon="-0.7519">
        <ele>82</ele>
        <time>2017-11-12T11:01:53Z</time>
      </trkpt>
      <trkpt lat="48.04648" lon="-0.75206">
        <ele>82.5</ele>
        <time>2017-11-12T11:01:57Z</time>
      </trkpt>
      <trkpt lat="48.04643" lon="-0.7522">
        <ele>82.8</ele>
        <time>2017-11-12T11:02:01Z</time>
      </trkpt>
      <trkpt lat="48.04636" lon="-0.75229">
        <ele>83.2</ele>
        <time>2017-11-12T11:02:05Z</time>
      </trkpt>
      <trkpt lat="48.04631" lon="-0.75239">
        <ele>83.4</ele>
        <time>2017-11-12T11:02:09Z</time>
      </trkpt>
      <trkpt lat="48.0463" lon="-0.7525">
        <ele>83.7</ele>
        <time>2017-11-12T11:02:13Z</time>
      </trkpt>
      <trkpt lat="48.04633" lon="-0.75264">
        <ele>83.4</ele>
        <time>2017-11-12T11:02:17Z</time>
      </trkpt>
      <trkpt lat="48.04637" lon="-0.7528">
        <ele>82.9</ele>
        <time>2017-11-12T11:02:21Z</time>
      </trkpt>
      <trkpt lat="48.04637" lon="-0.75295">
        <ele>82.4</ele>
        <time>2017-11-12T11:02:25Z</time>
      </trkpt>
      <trkpt lat="48.04638" lon="-0.7531">
        <ele>82.2</ele>
        <time>2017-11-12T11:02:29Z</time>
      </trkpt>
      <trkpt lat="48.04645" lon="-0.75343">
        <ele>82.5</ele>
        <time>2017-11-12T11:02:34Z</time>
      </trkpt>
      <trkpt lat="48.0465" lon="-0.7536">
        <ele>82</ele>
        <time>2017-11-12T11:02:41Z</time>
      </trkpt>
      <trkpt lat="48.04654" lon="-0.75377">
        <ele>82</ele>
        <time>2017-11-12T11:02:45Z</time>
      </trkpt>
      <trkpt lat="48.0466" lon="-0.75393">
        <ele>82</ele>
        <time>2017-11-12T11:02:49Z</time>
      </trkpt>
      <trkpt lat="48.04666" lon="-0.75409">
        <ele>82</ele>
        <time>2017-11-12T11:02:53Z</time>
      </trkpt>
      <trkpt lat="48.04673" lon="-0.75423">
        <ele>82</ele>
        <time>2017-11-12T11:02:57Z</time>
      </trkpt>
      <trkpt lat="48.0468" lon="-0.75436">
        <ele>82</ele>
        <time>2017-11-12T11:03:01Z</time>
      </trkpt>
      <trkpt lat="48.04685" lon="-0.75448">
        <ele>82.1</ele>
        <time>2017-11-12T11:03:05Z</time>
      </trkpt>
      <trkpt lat="48.04689" lon="-0.75459">
        <ele>82.5</ele>
        <time>2017-11-12T11:03:09Z</time>
      </trkpt>
      <trkpt lat="48.04693" lon="-0.75469">
        <ele>82.9</ele>
        <time>2017-11-12T11:03:13Z</time>
      </trkpt>
      <trkpt lat="48.04698" lon="-0.75467">
        <ele>82.8</ele>
        <time>2017-11-12T11:03:17Z</time>
      </trkpt>
      <trkpt lat="48.04704" lon="-0.75461">
        <ele>82.6</ele>
        <time>2017-11-12T11:03:21Z</time>
      </trkpt>
      <trkpt lat="48.04714" lon="-0.75454">
        <ele>82.4</ele>
        <time>2017-11-12T11:04:45Z</time>
      </trkpt>
      <trkpt lat="48.04716" lon="-0.75449">
        <ele>82.2</ele>
        <time>2017-11-12T11:04:49Z</time>
      </trkpt>
      <trkpt lat="48.04722" lon="-0.75445">
        <ele>82</ele>
        <time>2017-11-12T11:04:53Z</time>
      </trkpt>
      <trkpt lat="48.04731" lon="-0.75436">
        <ele>81.9</ele>
        <time>2017-11-12T11:04:57Z</time>
      </trkpt>
      <trkpt lat="48.04742" lon="-0.75424">
        <ele>81.5</ele>
        <time>2017-11-12T11:05:01Z</time>
      </trkpt>
      <trkpt lat="48.04752" lon="-0.75409">
        <ele>80.9</ele>
        <time>2017-11-12T11:05:05Z</time>
      </trkpt>
      <trkpt lat="48.04765" lon="-0.75393">
        <ele>80</ele>
        <time>2017-11-12T11:05:09Z</time>
      </trkpt>
      <trkpt lat="48.04781" lon="-0.75374">
        <ele>78.7</ele>
        <time>2017-11-12T11:05:13Z</time>
      </trkpt>
      <trkpt lat="48.04799" lon="-0.75353">
        <ele>77.4</ele>
        <time>2017-11-12T11:05:17Z</time>
      </trkpt>
      <trkpt lat="48.04817" lon="-0.75332">
        <ele>76.1</ele>
        <time>2017-11-12T11:05:21Z</time>
      </trkpt>
      <trkpt lat="48.04833" lon="-0.75314">
        <ele>74.4</ele>
        <time>2017-11-12T11:05:25Z</time>
      </trkpt>
      <trkpt lat="48.04842" lon="-0.75301">
        <ele>73.3</ele>
        <time>2017-11-12T11:05:29Z</time>
      </trkpt>
      <trkpt lat="48.04849" lon="-0.75289">
        <ele>72.8</ele>
        <time>2017-11-12T11:05:33Z</time>
      </trkpt>
      <trkpt lat="48.04859" lon="-0.75292">
        <ele>72.2</ele>
        <time>2017-11-12T11:05:37Z</time>
      </trkpt>
      <trkpt lat="48.0487" lon="-0.75301">
        <ele>71.4</ele>
        <time>2017-11-12T11:05:41Z</time>
      </trkpt>
      <trkpt lat="48.04883" lon="-0.75313">
        <ele>70.6</ele>
        <time>2017-11-12T11:05:45Z</time>
      </trkpt>
      <trkpt lat="48.04899" lon="-0.75324">
        <ele>69.9</ele>
        <time>2017-11-12T11:05:49Z</time>
      </trkpt>
      <trkpt lat="48.04921" lon="-0.75338">
        <ele>69</ele>
        <time>2017-11-12T11:05:53Z</time>
      </trkpt>
      <trkpt lat="48.0494" lon="-0.75353">
        <ele>68.9</ele>
        <time>2017-11-12T11:05:57Z</time>
      </trkpt>
      <trkpt lat="48.04956" lon="-0.75367">
        <ele>68.7</ele>
        <time>2017-11-12T11:06:01Z</time>
      </trkpt>
      <trkpt lat="48.04973" lon="-0.75381">
        <ele>68</ele>
        <time>2017-11-12T11:06:05Z</time>
      </trkpt>
      <trkpt lat="48.0499" lon="-0.75396">
        <ele>67.6</ele>
        <time>2017-11-12T11:06:09Z</time>
      </trkpt>
      <trkpt lat="48.05009" lon="-0.75412">
        <ele>67.5</ele>
        <time>2017-11-12T11:06:13Z</time>
      </trkpt>
      <trkpt lat="48.05024" lon="-0.7544">
        <ele>68</ele>
        <time>2017-11-12T11:06:17Z</time>
      </trkpt>
      <trkpt lat="48.05034" lon="-0.75464">
        <ele>68.3</ele>
        <time>2017-11-12T11:06:21Z</time>
      </trkpt>
      <trkpt lat="48.05043" lon="-0.75489">
        <ele>68.2</ele>
        <time>2017-11-12T11:06:25Z</time>
      </trkpt>
      <trkpt lat="48.05051" lon="-0.75518">
        <ele>68.7</ele>
        <time>2017-11-12T11:06:29Z</time>
      </trkpt>
      <trkpt lat="48.05057" lon="-0.75544">
        <ele>68.9</ele>
        <time>2017-11-12T11:06:33Z</time>
      </trkpt>
      <trkpt lat="48.0506" lon="-0.7557">
        <ele>68.8</ele>
        <time>2017-11-12T11:06:37Z</time>
      </trkpt>
      <trkpt lat="48.05066" lon="-0.756">
        <ele>68.3</ele>
        <time>2017-11-12T11:06:41Z</time>
      </trkpt>
      <trkpt lat="48.0507" lon="-0.75627">
        <ele>67.7</ele>
        <time>2017-11-12T11:06:45Z</time>
      </trkpt>
      <trkpt lat="48.05073" lon="-0.75653">
        <ele>66.9</ele>
        <time>2017-11-12T11:06:49Z</time>
      </trkpt>
      <trkpt lat="48.05072" lon="-0.75678">
        <ele>66</ele>
        <time>2017-11-12T11:06:53Z</time>
      </trkpt>
      <trkpt lat="48.05071" lon="-0.75698">
        <ele>65.4</ele>
        <time>2017-11-12T11:06:57Z</time>
      </trkpt>
      <trkpt lat="48.0507" lon="-0.7572">
        <ele>65</ele>
        <time>2017-11-12T11:07:01Z</time>
      </trkpt>
      <trkpt lat="48.05069" lon="-0.75745">
        <ele>65</ele>
        <time>2017-11-12T11:07:05Z</time>
      </trkpt>
      <trkpt lat="48.05071" lon="-0.7577">
        <ele>64.6</ele>
        <time>2017-11-12T11:07:09Z</time>
      </trkpt>
      <trkpt lat="48.05078" lon="-0.75794">
        <ele>63.6</ele>
        <time>2017-11-12T11:07:13Z</time>
      </trkpt>
      <trkpt lat="48.05087" lon="-0.75815">
        <ele>61.9</ele>
        <time>2017-11-12T11:07:17Z</time>
      </trkpt>
      <trkpt lat="48.05097" lon="-0.7583">
        <ele>59.8</ele>
        <time>2017-11-12T11:07:21Z</time>
      </trkpt>
      <trkpt lat="48.05105" lon="-0.75847">
        <ele>58</ele>
        <time>2017-11-12T11:07:25Z</time>
      </trkpt>
      <trkpt lat="48.05107" lon="-0.75868">
        <ele>56.6</ele>
        <time>2017-11-12T11:07:29Z</time>
      </trkpt>
      <trkpt lat="48.05107" lon="-0.75891">
        <ele>54.4</ele>
        <time>2017-11-12T11:07:34Z</time>
      </trkpt>
      <trkpt lat="48.05102" lon="-0.75914">
        <ele>53</ele>
        <time>2017-11-12T11:07:37Z</time>
      </trkpt>
      <trkpt lat="48.05092" lon="-0.75944">
        <ele>50.2</ele>
        <time>2017-11-12T11:07:41Z</time>
      </trkpt>
      <trkpt lat="48.05078" lon="-0.75973">
        <ele>48.8</ele>
        <time>2017-11-12T11:07:45Z</time>
      </trkpt>
      <trkpt lat="48.05072" lon="-0.76005">
        <ele>47.8</ele>
        <time>2017-11-12T11:07:49Z</time>
      </trkpt>
      <trkpt lat="48.05067" lon="-0.76033">
        <ele>47.8</ele>
        <time>2017-11-12T11:07:53Z</time>
      </trkpt>
      <trkpt lat="48.05071" lon="-0.76035">
        <ele>47</ele>
        <time>2017-11-12T11:07:57Z</time>
      </trkpt>
      <trkpt lat="48.0508" lon="-0.76034">
        <ele>45.4</ele>
        <time>2017-11-12T11:08:01Z</time>
      </trkpt>
      <trkpt lat="48.05088" lon="-0.76036">
        <ele>44.7</ele>
        <time>2017-11-12T11:08:05Z</time>
      </trkpt>
      <trkpt lat="48.05092" lon="-0.76033">
        <ele>44.7</ele>
        <time>2017-11-12T11:08:09Z</time>
      </trkpt>
      <trkpt lat="48.05101" lon="-0.7603">
        <ele>44.9</ele>
        <time>2017-11-12T11:08:13Z</time>
      </trkpt>
      <trkpt lat="48.05112" lon="-0.76029">
        <ele>44.9</ele>
        <time>2017-11-12T11:08:17Z</time>
      </trkpt>
      <trkpt lat="48.05125" lon="-0.76026">
        <ele>44.5</ele>
        <time>2017-11-12T11:08:21Z</time>
      </trkpt>
      <trkpt lat="48.05143" lon="-0.76023">
        <ele>44.2</ele>
        <time>2017-11-12T11:08:25Z</time>
      </trkpt>
      <trkpt lat="48.05162" lon="-0.76021">
        <ele>44.2</ele>
        <time>2017-11-12T11:08:29Z</time>
      </trkpt>
      <trkpt lat="48.0518" lon="-0.76017">
        <ele>44.1</ele>
        <time>2017-11-12T11:08:33Z</time>
      </trkpt>
      <trkpt lat="48.05198" lon="-0.76013">
        <ele>44</ele>
        <time>2017-11-12T11:08:37Z</time>
      </trkpt>
      <trkpt lat="48.05214" lon="-0.76009">
        <ele>44.3</ele>
        <time>2017-11-12T11:08:41Z</time>
      </trkpt>
      <trkpt lat="48.0523" lon="-0.76006">
        <ele>44.5</ele>
        <time>2017-11-12T11:08:45Z</time>
      </trkpt>
      <trkpt lat="48.05246" lon="-0.76002">
        <ele>44.9</ele>
        <time>2017-11-12T11:08:49Z</time>
      </trkpt>
      <trkpt lat="48.05262" lon="-0.75999">
        <ele>44.6</ele>
        <time>2017-11-12T11:08:53Z</time>
      </trkpt>
      <trkpt lat="48.05279" lon="-0.75996">
        <ele>44.1</ele>
        <time>2017-11-12T11:08:57Z</time>
      </trkpt>
      <trkpt lat="48.05294" lon="-0.75992">
        <ele>43.9</ele>
        <time>2017-11-12T11:09:01Z</time>
      </trkpt>
      <trkpt lat="48.05309" lon="-0.75988">
        <ele>43.8</ele>
        <time>2017-11-12T11:09:05Z</time>
      </trkpt>
      <trkpt lat="48.05325" lon="-0.75985">
        <ele>44.1</ele>
        <time>2017-11-12T11:09:09Z</time>
      </trkpt>
      <trkpt lat="48.05342" lon="-0.75981">
        <ele>44.2</ele>
        <time>2017-11-12T11:09:13Z</time>
      </trkpt>
      <trkpt lat="48.05359" lon="-0.75974">
        <ele>44</ele>
        <time>2017-11-12T11:09:17Z</time>
      </trkpt>
      <trkpt lat="48.05371" lon="-0.75973">
        <ele>43.6</ele>
        <time>2017-11-12T11:09:21Z</time>
      </trkpt>
      <trkpt lat="48.05378" lon="-0.75971">
        <ele>43.4</ele>
        <time>2017-11-12T11:09:25Z</time>
      </trkpt>
      <trkpt lat="48.05387" lon="-0.75968">
        <ele>43.3</ele>
        <time>2017-11-12T11:09:29Z</time>
      </trkpt>
      <trkpt lat="48.05397" lon="-0.75965">
        <ele>43.5</ele>
        <time>2017-11-12T11:09:33Z</time>
      </trkpt>
      <trkpt lat="48.05407" lon="-0.75961">
        <ele>43.8</ele>
        <time>2017-11-12T11:09:37Z</time>
      </trkpt>
      <trkpt lat="48.05417" lon="-0.75955">
        <ele>44.2</ele>
        <time>2017-11-12T11:09:41Z</time>
      </trkpt>
      <trkpt lat="48.0543" lon="-0.75948">
        <ele>44.3</ele>
        <time>2017-11-12T11:09:45Z</time>
      </trkpt>
      <trkpt lat="48.05444" lon="-0.7594">
        <ele>44.4</ele>
        <time>2017-11-12T11:09:49Z</time>
      </trkpt>
      <trkpt lat="48.05462" lon="-0.75933">
        <ele>44.4</ele>
        <time>2017-11-12T11:09:53Z</time>
      </trkpt>
      <trkpt lat="48.0548" lon="-0.7593">
        <ele>44.4</ele>
        <time>2017-11-12T11:09:57Z</time>
      </trkpt>
      <trkpt lat="48.05499" lon="-0.75921">
        <ele>44.7</ele>
        <time>2017-11-12T11:10:01Z</time>
      </trkpt>
      <trkpt lat="48.05515" lon="-0.75911">
        <ele>44.7</ele>
        <time>2017-11-12T11:10:05Z</time>
      </trkpt>
      <trkpt lat="48.0553" lon="-0.75906">
        <ele>44.4</ele>
        <time>2017-11-12T11:10:09Z</time>
      </trkpt>
      <trkpt lat="48.05544" lon="-0.75901">
        <ele>44.9</ele>
        <time>2017-11-12T11:10:13Z</time>
      </trkpt>
      <trkpt lat="48.05556" lon="-0.75894">
        <ele>45.4</ele>
        <time>2017-11-12T11:10:17Z</time>
      </trkpt>
      <trkpt lat="48.05572" lon="-0.75878">
        <ele>46</ele>
        <time>2017-11-12T11:10:21Z</time>
      </trkpt>
      <trkpt lat="48.05585" lon="-0.75866">
        <ele>47</ele>
        <time>2017-11-12T11:10:25Z</time>
      </trkpt>
      <trkpt lat="48.05598" lon="-0.75854">
        <ele>48.9</ele>
        <time>2017-11-12T11:10:29Z</time>
      </trkpt>
      <trkpt lat="48.05609" lon="-0.75846">
        <ele>49.7</ele>
        <time>2017-11-12T11:10:33Z</time>
      </trkpt>
      <trkpt lat="48.05623" lon="-0.75838">
        <ele>49.5</ele>
        <time>2017-11-12T11:10:37Z</time>
      </trkpt>
      <trkpt lat="48.05642" lon="-0.75833">
        <ele>47.7</ele>
        <time>2017-11-12T11:10:41Z</time>
      </trkpt>
      <trkpt lat="48.05664" lon="-0.75825">
        <ele>46.4</ele>
        <time>2017-11-12T11:10:45Z</time>
      </trkpt>
      <trkpt lat="48.05679" lon="-0.75817">
        <ele>46.9</ele>
        <time>2017-11-12T11:10:49Z</time>
      </trkpt>
      <trkpt lat="48.05693" lon="-0.75811">
        <ele>46.4</ele>
        <time>2017-11-12T11:10:53Z</time>
      </trkpt>
      <trkpt lat="48.05714" lon="-0.75809">
        <ele>45.3</ele>
        <time>2017-11-12T11:10:57Z</time>
      </trkpt>
      <trkpt lat="48.05729" lon="-0.75809">
        <ele>44.7</ele>
        <time>2017-11-12T11:11:01Z</time>
      </trkpt>
      <trkpt lat="48.05747" lon="-0.75816">
        <ele>44.3</ele>
        <time>2017-11-12T11:11:05Z</time>
      </trkpt>
      <trkpt lat="48.05764" lon="-0.7581">
        <ele>44.4</ele>
        <time>2017-11-12T11:11:09Z</time>
      </trkpt>
      <trkpt lat="48.05775" lon="-0.75796">
        <ele>44.4</ele>
        <time>2017-11-12T11:11:13Z</time>
      </trkpt>
      <trkpt lat="48.05786" lon="-0.75782">
        <ele>44.9</ele>
        <time>2017-11-12T11:11:17Z</time>
      </trkpt>
      <trkpt lat="48.05795" lon="-0.75768">
        <ele>45.4</ele>
        <time>2017-11-12T11:11:21Z</time>
      </trkpt>
      <trkpt lat="48.05803" lon="-0.75751">
        <ele>46</ele>
        <time>2017-11-12T11:11:25Z</time>
      </trkpt>
      <trkpt lat="48.05813" lon="-0.75733">
        <ele>46.5</ele>
        <time>2017-11-12T11:11:29Z</time>
      </trkpt>
      <trkpt lat="48.05827" lon="-0.75723">
        <ele>47</ele>
        <time>2017-11-12T11:11:33Z</time>
      </trkpt>
      <trkpt lat="48.0584" lon="-0.7572">
        <ele>47.1</ele>
        <time>2017-11-12T11:11:37Z</time>
      </trkpt>
      <trkpt lat="48.05854" lon="-0.75727">
        <ele>46.7</ele>
        <time>2017-11-12T11:11:41Z</time>
      </trkpt>
      <trkpt lat="48.05871" lon="-0.75733">
        <ele>46.3</ele>
        <time>2017-11-12T11:11:45Z</time>
      </trkpt>
      <trkpt lat="48.05889" lon="-0.7573">
        <ele>46.4</ele>
        <time>2017-11-12T11:11:49Z</time>
      </trkpt>
      <trkpt lat="48.05906" lon="-0.75722">
        <ele>46.4</ele>
        <time>2017-11-12T11:11:53Z</time>
      </trkpt>
      <trkpt lat="48.05919" lon="-0.7571">
        <ele>46.4</ele>
        <time>2017-11-12T11:13:09Z</time>
      </trkpt>
      <trkpt lat="48.05927" lon="-0.75709">
        <ele>46.1</ele>
        <time>2017-11-12T11:13:13Z</time>
      </trkpt>
      <trkpt lat="48.05929" lon="-0.75728">
        <ele>45.4</ele>
        <time>2017-11-12T11:13:17Z</time>
      </trkpt>
      <trkpt lat="48.0593" lon="-0.75749">
        <ele>45</ele>
        <time>2017-11-12T11:13:21Z</time>
      </trkpt>
      <trkpt lat="48.05934" lon="-0.75765">
        <ele>44.6</ele>
        <time>2017-11-12T11:13:25Z</time>
      </trkpt>
      <trkpt lat="48.05939" lon="-0.75771">
        <ele>44.4</ele>
        <time>2017-11-12T11:13:29Z</time>
      </trkpt>
      <trkpt lat="48.05941" lon="-0.75776">
        <ele>44.2</ele>
        <time>2017-11-12T11:13:33Z</time>
      </trkpt>
      <trkpt lat="48.05939" lon="-0.75786">
        <ele>44.7</ele>
        <time>2017-11-12T11:13:37Z</time>
      </trkpt>
      <trkpt lat="48.05938" lon="-0.75803">
        <ele>45.8</ele>
        <time>2017-11-12T11:13:41Z</time>
      </trkpt>
      <trkpt lat="48.05946" lon="-0.75822">
        <ele>46</ele>
        <time>2017-11-12T11:13:45Z</time>
      </trkpt>
      <trkpt lat="48.05955" lon="-0.75839">
        <ele>46.4</ele>
        <time>2017-11-12T11:13:49Z</time>
      </trkpt>
      <trkpt lat="48.05966" lon="-0.75852">
        <ele>46.8</ele>
        <time>2017-11-12T11:13:53Z</time>
      </trkpt>
      <trkpt lat="48.05978" lon="-0.75858">
        <ele>47.4</ele>
        <time>2017-11-12T11:13:57Z</time>
      </trkpt>
      <trkpt lat="48.0599" lon="-0.75864">
        <ele>48.2</ele>
        <time>2017-11-12T11:14:01Z</time>
      </trkpt>
      <trkpt lat="48.06004" lon="-0.7587">
        <ele>48.7</ele>
        <time>2017-11-12T11:14:05Z</time>
      </trkpt>
      <trkpt lat="48.06021" lon="-0.75877">
        <ele>48.9</ele>
        <time>2017-11-12T11:14:09Z</time>
      </trkpt>
      <trkpt lat="48.06037" lon="-0.75883">
        <ele>49.3</ele>
        <time>2017-11-12T11:14:13Z</time>
      </trkpt>
      <trkpt lat="48.06052" lon="-0.7589">
        <ele>49.8</ele>
        <time>2017-11-12T11:14:17Z</time>
      </trkpt>
      <trkpt lat="48.06067" lon="-0.75897">
        <ele>49.8</ele>
        <time>2017-11-12T11:14:21Z</time>
      </trkpt>
      <trkpt lat="48.0608" lon="-0.75901">
        <ele>49.9</ele>
        <time>2017-11-12T11:14:25Z</time>
      </trkpt>
      <trkpt lat="48.06093" lon="-0.75906">
        <ele>50</ele>
        <time>2017-11-12T11:14:29Z</time>
      </trkpt>
      <trkpt lat="48.06106" lon="-0.75912">
        <ele>50</ele>
        <time>2017-11-12T11:14:33Z</time>
      </trkpt>
      <trkpt lat="48.06115" lon="-0.75919">
        <ele>50</ele>
        <time>2017-11-12T11:14:37Z</time>
      </trkpt>
      <trkpt lat="48.06111" lon="-0.7593">
        <ele>50</ele>
        <time>2017-11-12T11:14:41Z</time>
      </trkpt>
      <trkpt lat="48.06105" lon="-0.75942">
        <ele>49.8</ele>
        <time>2017-11-12T11:14:45Z</time>
      </trkpt>
      <trkpt lat="48.06094" lon="-0.75954">
        <ele>49.6</ele>
        <time>2017-11-12T11:14:49Z</time>
      </trkpt>
      <trkpt lat="48.06082" lon="-0.75969">
        <ele>49.7</ele>
        <time>2017-11-12T11:14:53Z</time>
      </trkpt>
      <trkpt lat="48.0607" lon="-0.75987">
        <ele>48.8</ele>
        <time>2017-11-12T11:14:57Z</time>
      </trkpt>
      <trkpt lat="48.06059" lon="-0.76005">
        <ele>48.6</ele>
        <time>2017-11-12T11:15:01Z</time>
      </trkpt>
      <trkpt lat="48.06049" lon="-0.76025">
        <ele>49.1</ele>
        <time>2017-11-12T11:15:05Z</time>
      </trkpt>
      <trkpt lat="48.06038" lon="-0.76043">
        <ele>48.1</ele>
        <time>2017-11-12T11:15:09Z</time>
      </trkpt>
      <trkpt lat="48.06027" lon="-0.76062">
        <ele>47.7</ele>
        <time>2017-11-12T11:15:13Z</time>
      </trkpt>
      <trkpt lat="48.06016" lon="-0.76082">
        <ele>48.3</ele>
        <time>2017-11-12T11:15:17Z</time>
      </trkpt>
      <trkpt lat="48.06006" lon="-0.76098">
        <ele>45.7</ele>
        <time>2017-11-12T11:15:21Z</time>
      </trkpt>
      <trkpt lat="48.05996" lon="-0.76116">
        <ele>43</ele>
        <time>2017-11-12T11:15:25Z</time>
      </trkpt>
      <trkpt lat="48.05986" lon="-0.76134">
        <ele>43</ele>
        <time>2017-11-12T11:15:29Z</time>
      </trkpt>
      <trkpt lat="48.05974" lon="-0.76153">
        <ele>43</ele>
        <time>2017-11-12T11:15:33Z</time>
      </trkpt>
      <trkpt lat="48.05964" lon="-0.7617">
        <ele>44.1</ele>
        <time>2017-11-12T11:15:37Z</time>
      </trkpt>
      <trkpt lat="48.05955" lon="-0.76186">
        <ele>46.1</ele>
        <time>2017-11-12T11:15:41Z</time>
      </trkpt>
      <trkpt lat="48.05945" lon="-0.76201">
        <ele>48.4</ele>
        <time>2017-11-12T11:15:45Z</time>
      </trkpt>
      <trkpt lat="48.05936" lon="-0.76209">
        <ele>48.9</ele>
        <time>2017-11-12T11:15:49Z</time>
      </trkpt>
      <trkpt lat="48.05928" lon="-0.76193">
        <ele>48</ele>
        <time>2017-11-12T11:15:53Z</time>
      </trkpt>
      <trkpt lat="48.05921" lon="-0.76171">
        <ele>47.7</ele>
        <time>2017-11-12T11:15:57Z</time>
      </trkpt>
      <trkpt lat="48.05907" lon="-0.76147">
        <ele>47.3</ele>
        <time>2017-11-12T11:16:01Z</time>
      </trkpt>
      <trkpt lat="48.05892" lon="-0.76123">
        <ele>46.9</ele>
        <time>2017-11-12T11:16:05Z</time>
      </trkpt>
      <trkpt lat="48.05874" lon="-0.76104">
        <ele>46.9</ele>
        <time>2017-11-12T11:16:09Z</time>
      </trkpt>
      <trkpt lat="48.05858" lon="-0.76087">
        <ele>47</ele>
        <time>2017-11-12T11:16:13Z</time>
      </trkpt>
      <trkpt lat="48.05858" lon="-0.76067">
        <ele>46.4</ele>
        <time>2017-11-12T11:16:17Z</time>
      </trkpt>
      <trkpt lat="48.05866" lon="-0.7605">
        <ele>45.4</ele>
        <time>2017-11-12T11:16:21Z</time>
      </trkpt>
      <trkpt lat="48.05872" lon="-0.76037">
        <ele>44.5</ele>
        <time>2017-11-12T11:16:25Z</time>
      </trkpt>
      <trkpt lat="48.05868" lon="-0.76027">
        <ele>44.5</ele>
        <time>2017-11-12T11:16:29Z</time>
      </trkpt>
      <trkpt lat="48.05861" lon="-0.76019">
        <ele>44.3</ele>
        <time>2017-11-12T11:16:33Z</time>
      </trkpt>
      <trkpt lat="48.05853" lon="-0.76008">
        <ele>44.3</ele>
        <time>2017-11-12T11:16:37Z</time>
      </trkpt>
      <trkpt lat="48.05844" lon="-0.75997">
        <ele>44.6</ele>
        <time>2017-11-12T11:16:41Z</time>
      </trkpt>
      <trkpt lat="48.05834" lon="-0.75986">
        <ele>44.4</ele>
        <time>2017-11-12T11:16:45Z</time>
      </trkpt>
      <trkpt lat="48.05825" lon="-0.75974">
        <ele>44.1</ele>
        <time>2017-11-12T11:16:49Z</time>
      </trkpt>
      <trkpt lat="48.05818" lon="-0.75966">
        <ele>44.4</ele>
        <time>2017-11-12T11:16:53Z</time>
      </trkpt>
      <trkpt lat="48.05809" lon="-0.75957">
        <ele>44.7</ele>
        <time>2017-11-12T11:16:57Z</time>
      </trkpt>
      <trkpt lat="48.058" lon="-0.7595">
        <ele>44.5</ele>
        <time>2017-11-12T11:17:01Z</time>
      </trkpt>
      <trkpt lat="48.05785" lon="-0.75942">
        <ele>44.6</ele>
        <time>2017-11-12T11:17:05Z</time>
      </trkpt>
      <trkpt lat="48.05768" lon="-0.75934">
        <ele>44.8</ele>
        <time>2017-11-12T11:17:09Z</time>
      </trkpt>
      <trkpt lat="48.05752" lon="-0.75929">
        <ele>45.4</ele>
        <time>2017-11-12T11:17:13Z</time>
      </trkpt>
      <trkpt lat="48.05736" lon="-0.75923">
        <ele>45.2</ele>
        <time>2017-11-12T11:17:17Z</time>
      </trkpt>
      <trkpt lat="48.05718" lon="-0.75918">
        <ele>45</ele>
        <time>2017-11-12T11:17:21Z</time>
      </trkpt>
      <trkpt lat="48.05699" lon="-0.75915">
        <ele>44.9</ele>
        <time>2017-11-12T11:17:25Z</time>
      </trkpt>
      <trkpt lat="48.05682" lon="-0.75917">
        <ele>45</ele>
        <time>2017-11-12T11:17:29Z</time>
      </trkpt>
      <trkpt lat="48.05665" lon="-0.75922">
        <ele>45.1</ele>
        <time>2017-11-12T11:17:33Z</time>
      </trkpt>
      <trkpt lat="48.05647" lon="-0.7593">
        <ele>44.8</ele>
        <time>2017-11-12T11:17:37Z</time>
      </trkpt>
      <trkpt lat="48.05629" lon="-0.7594">
        <ele>45</ele>
        <time>2017-11-12T11:17:41Z</time>
      </trkpt>
      <trkpt lat="48.05614" lon="-0.7595">
        <ele>44.6</ele>
        <time>2017-11-12T11:17:45Z</time>
      </trkpt>
      <trkpt lat="48.05598" lon="-0.75958">
        <ele>44.5</ele>
        <time>2017-11-12T11:17:49Z</time>
      </trkpt>
      <trkpt lat="48.05582" lon="-0.75968">
        <ele>44.7</ele>
        <time>2017-11-12T11:17:53Z</time>
      </trkpt>
      <trkpt lat="48.05569" lon="-0.75979">
        <ele>44.5</ele>
        <time>2017-11-12T11:17:57Z</time>
      </trkpt>
      <trkpt lat="48.05554" lon="-0.75985">
        <ele>44.8</ele>
        <time>2017-11-12T11:18:01Z</time>
      </trkpt>
      <trkpt lat="48.05535" lon="-0.75993">
        <ele>44.9</ele>
        <time>2017-11-12T11:18:05Z</time>
      </trkpt>
      <trkpt lat="48.05519" lon="-0.76002">
        <ele>44.4</ele>
        <time>2017-11-12T11:18:09Z</time>
      </trkpt>
      <trkpt lat="48.05502" lon="-0.7601">
        <ele>44.1</ele>
        <time>2017-11-12T11:18:13Z</time>
      </trkpt>
      <trkpt lat="48.05484" lon="-0.76019">
        <ele>44.6</ele>
        <time>2017-11-12T11:18:17Z</time>
      </trkpt>
      <trkpt lat="48.05466" lon="-0.76026">
        <ele>44.6</ele>
        <time>2017-11-12T11:18:21Z</time>
      </trkpt>
      <trkpt lat="48.05447" lon="-0.76035">
        <ele>44.3</ele>
        <time>2017-11-12T11:18:25Z</time>
      </trkpt>
      <trkpt lat="48.0543" lon="-0.7604">
        <ele>44.2</ele>
        <time>2017-11-12T11:18:29Z</time>
      </trkpt>
      <trkpt lat="48.0541" lon="-0.76047">
        <ele>44.6</ele>
        <time>2017-11-12T11:18:33Z</time>
      </trkpt>
      <trkpt lat="48.0539" lon="-0.76052">
        <ele>45.6</ele>
        <time>2017-11-12T11:18:37Z</time>
      </trkpt>
      <trkpt lat="48.05372" lon="-0.76058">
        <ele>45.4</ele>
        <time>2017-11-12T11:18:41Z</time>
      </trkpt>
      <trkpt lat="48.05354" lon="-0.76063">
        <ele>44.8</ele>
        <time>2017-11-12T11:18:45Z</time>
      </trkpt>
      <trkpt lat="48.05337" lon="-0.76068">
        <ele>44.5</ele>
        <time>2017-11-12T11:18:49Z</time>
      </trkpt>
      <trkpt lat="48.05335" lon="-0.7607">
        <ele>44.6</ele>
        <time>2017-11-12T11:18:53Z</time>
      </trkpt>
      <trkpt lat="48.05326" lon="-0.76069">
        <ele>44.4</ele>
        <time>2017-11-12T11:18:57Z</time>
      </trkpt>
      <trkpt lat="48.05312" lon="-0.76073">
        <ele>44.3</ele>
        <time>2017-11-12T11:19:01Z</time>
      </trkpt>
      <trkpt lat="48.05291" lon="-0.76079">
        <ele>44.2</ele>
        <time>2017-11-12T11:19:05Z</time>
      </trkpt>
      <trkpt lat="48.05272" lon="-0.76085">
        <ele>44.1</ele>
        <time>2017-11-12T11:19:09Z</time>
      </trkpt>
      <trkpt lat="48.05251" lon="-0.76091">
        <ele>44.3</ele>
        <time>2017-11-12T11:19:13Z</time>
      </trkpt>
      <trkpt lat="48.05228" lon="-0.76099">
        <ele>44.2</ele>
        <time>2017-11-12T11:19:17Z</time>
      </trkpt>
      <trkpt lat="48.05204" lon="-0.76106">
        <ele>44.6</ele>
        <time>2017-11-12T11:19:21Z</time>
      </trkpt>
      <trkpt lat="48.05178" lon="-0.76114">
        <ele>44</ele>
        <time>2017-11-12T11:19:25Z</time>
      </trkpt>
      <trkpt lat="48.05156" lon="-0.76127">
        <ele>44.1</ele>
        <time>2017-11-12T11:19:29Z</time>
      </trkpt>
      <trkpt lat="48.05138" lon="-0.76142">
        <ele>44.9</ele>
        <time>2017-11-12T11:19:33Z</time>
      </trkpt>
      <trkpt lat="48.05119" lon="-0.76166">
        <ele>45</ele>
        <time>2017-11-12T11:19:37Z</time>
      </trkpt>
      <trkpt lat="48.05105" lon="-0.76194">
        <ele>44.6</ele>
        <time>2017-11-12T11:19:41Z</time>
      </trkpt>
      <trkpt lat="48.0509" lon="-0.76223">
        <ele>44.3</ele>
        <time>2017-11-12T11:19:45Z</time>
      </trkpt>
      <trkpt lat="48.05083" lon="-0.76247">
        <ele>44.9</ele>
        <time>2017-11-12T11:19:49Z</time>
      </trkpt>
      <trkpt lat="48.05076" lon="-0.76261">
        <ele>44.8</ele>
        <time>2017-11-12T11:19:53Z</time>
      </trkpt>
      <trkpt lat="48.05066" lon="-0.76285">
        <ele>44.4</ele>
        <time>2017-11-12T11:19:57Z</time>
      </trkpt>
      <trkpt lat="48.05053" lon="-0.7631">
        <ele>45</ele>
        <time>2017-11-12T11:20:01Z</time>
      </trkpt>
      <trkpt lat="48.05038" lon="-0.76334">
        <ele>44.8</ele>
        <time>2017-11-12T11:20:05Z</time>
      </trkpt>
      <trkpt lat="48.05021" lon="-0.76356">
        <ele>45</ele>
        <time>2017-11-12T11:20:09Z</time>
      </trkpt>
      <trkpt lat="48.05003" lon="-0.7638">
        <ele>45.1</ele>
        <time>2017-11-12T11:20:13Z</time>
      </trkpt>
      <trkpt lat="48.04987" lon="-0.76402">
        <ele>45.1</ele>
        <time>2017-11-12T11:20:17Z</time>
      </trkpt>
      <trkpt lat="48.0497" lon="-0.76424">
        <ele>45.3</ele>
        <time>2017-11-12T11:20:21Z</time>
      </trkpt>
      <trkpt lat="48.04953" lon="-0.76442">
        <ele>44.7</ele>
        <time>2017-11-12T11:20:25Z</time>
      </trkpt>
      <trkpt lat="48.04936" lon="-0.76457">
        <ele>44.5</ele>
        <time>2017-11-12T11:20:29Z</time>
      </trkpt>
      <trkpt lat="48.04922" lon="-0.76471">
        <ele>44.3</ele>
        <time>2017-11-12T11:20:33Z</time>
      </trkpt>
      <trkpt lat="48.04907" lon="-0.76486">
        <ele>44.8</ele>
        <time>2017-11-12T11:20:37Z</time>
      </trkpt>
      <trkpt lat="48.04891" lon="-0.765">
        <ele>44.3</ele>
        <time>2017-11-12T11:20:41Z</time>
      </trkpt>
      <trkpt lat="48.04876" lon="-0.76512">
        <ele>44.2</ele>
        <time>2017-11-12T11:20:45Z</time>
      </trkpt>
      <trkpt lat="48.04861" lon="-0.76524">
        <ele>43.9</ele>
        <time>2017-11-12T11:20:49Z</time>
      </trkpt>
      <trkpt lat="48.04844" lon="-0.76537">
        <ele>44.4</ele>
        <time>2017-11-12T11:20:53Z</time>
      </trkpt>
      <trkpt lat="48.04828" lon="-0.76545">
        <ele>44.7</ele>
        <time>2017-11-12T11:20:57Z</time>
      </trkpt>
      <trkpt lat="48.04809" lon="-0.7655">
        <ele>44.7</ele>
        <time>2017-11-12T11:21:01Z</time>
      </trkpt>
      <trkpt lat="48.04789" lon="-0.76555">
        <ele>44.4</ele>
        <time>2017-11-12T11:21:05Z</time>
      </trkpt>
      <trkpt lat="48.04772" lon="-0.76564">
        <ele>44.6</ele>
        <time>2017-11-12T11:21:09Z</time>
      </trkpt>
      <trkpt lat="48.04754" lon="-0.76578">
        <ele>44.9</ele>
        <time>2017-11-12T11:21:13Z</time>
      </trkpt>
      <trkpt lat="48.04735" lon="-0.76589">
        <ele>44.7</ele>
        <time>2017-11-12T11:21:17Z</time>
      </trkpt>
      <trkpt lat="48.04716" lon="-0.76597">
        <ele>44.3</ele>
        <time>2017-11-12T11:21:21Z</time>
      </trkpt>
      <trkpt lat="48.04697" lon="-0.76608">
        <ele>44</ele>
        <time>2017-11-12T11:21:25Z</time>
      </trkpt>
      <trkpt lat="48.04676" lon="-0.76615">
        <ele>44.4</ele>
        <time>2017-11-12T11:21:29Z</time>
      </trkpt>
      <trkpt lat="48.04658" lon="-0.76616">
        <ele>44.6</ele>
        <time>2017-11-12T11:21:33Z</time>
      </trkpt>
      <trkpt lat="48.04641" lon="-0.76618">
        <ele>44.9</ele>
        <time>2017-11-12T11:21:37Z</time>
      </trkpt>
      <trkpt lat="48.04627" lon="-0.76622">
        <ele>46</ele>
        <time>2017-11-12T11:21:41Z</time>
      </trkpt>
      <trkpt lat="48.04614" lon="-0.76622">
        <ele>46.5</ele>
        <time>2017-11-12T11:21:45Z</time>
      </trkpt>
      <trkpt lat="48.046" lon="-0.76621">
        <ele>46.5</ele>
        <time>2017-11-12T11:21:49Z</time>
      </trkpt>
      <trkpt lat="48.04583" lon="-0.7662">
        <ele>46.6</ele>
        <time>2017-11-12T11:21:53Z</time>
      </trkpt>
      <trkpt lat="48.04565" lon="-0.76619">
        <ele>47.2</ele>
        <time>2017-11-12T11:21:57Z</time>
      </trkpt>
      <trkpt lat="48.04542" lon="-0.76617">
        <ele>46.9</ele>
        <time>2017-11-12T11:22:01Z</time>
      </trkpt>
      <trkpt lat="48.04519" lon="-0.76618">
        <ele>46.2</ele>
        <time>2017-11-12T11:22:05Z</time>
      </trkpt>
      <trkpt lat="48.04496" lon="-0.76618">
        <ele>45.5</ele>
        <time>2017-11-12T11:22:09Z</time>
      </trkpt>
      <trkpt lat="48.04473" lon="-0.76616">
        <ele>45.3</ele>
        <time>2017-11-12T11:22:13Z</time>
      </trkpt>
      <trkpt lat="48.04449" lon="-0.76613">
        <ele>45.1</ele>
        <time>2017-11-12T11:22:17Z</time>
      </trkpt>
      <trkpt lat="48.04425" lon="-0.76612">
        <ele>45.1</ele>
        <time>2017-11-12T11:22:21Z</time>
      </trkpt>
      <trkpt lat="48.044" lon="-0.76611">
        <ele>45</ele>
        <time>2017-11-12T11:22:25Z</time>
      </trkpt>
      <trkpt lat="48.04374" lon="-0.7661">
        <ele>45.4</ele>
        <time>2017-11-12T11:22:29Z</time>
      </trkpt>
      <trkpt lat="48.0435" lon="-0.76607">
        <ele>45.6</ele>
        <time>2017-11-12T11:22:33Z</time>
      </trkpt>
      <trkpt lat="48.04326" lon="-0.76604">
        <ele>45.3</ele>
        <time>2017-11-12T11:22:37Z</time>
      </trkpt>
      <trkpt lat="48.04302" lon="-0.766">
        <ele>45</ele>
        <time>2017-11-12T11:22:41Z</time>
      </trkpt>
      <trkpt lat="48.04279" lon="-0.76592">
        <ele>45.2</ele>
        <time>2017-11-12T11:22:45Z</time>
      </trkpt>
      <trkpt lat="48.04258" lon="-0.76581">
        <ele>45.8</ele>
        <time>2017-11-12T11:22:49Z</time>
      </trkpt>
      <trkpt lat="48.04237" lon="-0.76566">
        <ele>45.7</ele>
        <time>2017-11-12T11:22:53Z</time>
      </trkpt>
      <trkpt lat="48.04214" lon="-0.7655">
        <ele>45.4</ele>
        <time>2017-11-12T11:22:57Z</time>
      </trkpt>
      <trkpt lat="48.0419" lon="-0.76534">
        <ele>45.5</ele>
        <time>2017-11-12T11:23:01Z</time>
      </trkpt>
      <trkpt lat="48.04164" lon="-0.76518">
        <ele>45.2</ele>
        <time>2017-11-12T11:23:05Z</time>
      </trkpt>
      <trkpt lat="48.0414" lon="-0.765">
        <ele>45</ele>
        <time>2017-11-12T11:23:09Z</time>
      </trkpt>
      <trkpt lat="48.04116" lon="-0.76485">
        <ele>44.3</ele>
        <time>2017-11-12T11:23:13Z</time>
      </trkpt>
      <trkpt lat="48.04092" lon="-0.76468">
        <ele>44.8</ele>
        <time>2017-11-12T11:23:17Z</time>
      </trkpt>
      <trkpt lat="48.04069" lon="-0.76452">
        <ele>44.6</ele>
        <time>2017-11-12T11:23:21Z</time>
      </trkpt>
      <trkpt lat="48.04046" lon="-0.76436">
        <ele>44.6</ele>
        <time>2017-11-12T11:23:25Z</time>
      </trkpt>
      <trkpt lat="48.04023" lon="-0.76422">
        <ele>44.1</ele>
        <time>2017-11-12T11:23:29Z</time>
      </trkpt>
      <trkpt lat="48.04" lon="-0.76409">
        <ele>45.2</ele>
        <time>2017-11-12T11:23:33Z</time>
      </trkpt>
      <trkpt lat="48.03979" lon="-0.76394">
        <ele>44.2</ele>
        <time>2017-11-12T11:23:37Z</time>
      </trkpt>
      <trkpt lat="48.03959" lon="-0.76381">
        <ele>44.4</ele>
        <time>2017-11-12T11:23:41Z</time>
      </trkpt>
      <trkpt lat="48.03939" lon="-0.7637">
        <ele>44.4</ele>
        <time>2017-11-12T11:23:45Z</time>
      </trkpt>
      <trkpt lat="48.03921" lon="-0.76354">
        <ele>44.9</ele>
        <time>2017-11-12T11:23:49Z</time>
      </trkpt>
      <trkpt lat="48.03906" lon="-0.76337">
        <ele>44.5</ele>
        <time>2017-11-12T11:23:53Z</time>
      </trkpt>
      <trkpt lat="48.03893" lon="-0.76316">
        <ele>44.5</ele>
        <time>2017-11-12T11:23:57Z</time>
      </trkpt>
      <trkpt lat="48.03881" lon="-0.76296">
        <ele>44.2</ele>
        <time>2017-11-12T11:24:01Z</time>
      </trkpt>
      <trkpt lat="48.0387" lon="-0.76275">
        <ele>44.2</ele>
        <time>2017-11-12T11:24:05Z</time>
      </trkpt>
      <trkpt lat="48.03857" lon="-0.76255">
        <ele>44.6</ele>
        <time>2017-11-12T11:24:09Z</time>
      </trkpt>
      <trkpt lat="48.03844" lon="-0.76236">
        <ele>45.6</ele>
        <time>2017-11-12T11:24:13Z</time>
      </trkpt>
      <trkpt lat="48.03833" lon="-0.76216">
        <ele>45</ele>
        <time>2017-11-12T11:24:17Z</time>
      </trkpt>
      <trkpt lat="48.03824" lon="-0.762">
        <ele>46.4</ele>
        <time>2017-11-12T11:24:21Z</time>
      </trkpt>
      <trkpt lat="48.03813" lon="-0.76185">
        <ele>44.3</ele>
        <time>2017-11-12T11:24:25Z</time>
      </trkpt>
      <trkpt lat="48.03803" lon="-0.76169">
        <ele>43.2</ele>
        <time>2017-11-12T11:24:29Z</time>
      </trkpt>
      <trkpt lat="48.03792" lon="-0.7615">
        <ele>44.2</ele>
        <time>2017-11-12T11:24:33Z</time>
      </trkpt>
      <trkpt lat="48.03781" lon="-0.76132">
        <ele>43.7</ele>
        <time>2017-11-12T11:24:37Z</time>
      </trkpt>
      <trkpt lat="48.03768" lon="-0.76114">
        <ele>43.8</ele>
        <time>2017-11-12T11:24:41Z</time>
      </trkpt>
      <trkpt lat="48.03755" lon="-0.76094">
        <ele>44</ele>
        <time>2017-11-12T11:24:45Z</time>
      </trkpt>
      <trkpt lat="48.03742" lon="-0.76074">
        <ele>44</ele>
        <time>2017-11-12T11:24:49Z</time>
      </trkpt>
      <trkpt lat="48.03731" lon="-0.76055">
        <ele>43.7</ele>
        <time>2017-11-12T11:24:53Z</time>
      </trkpt>
      <trkpt lat="48.03719" lon="-0.76036">
        <ele>43.4</ele>
        <time>2017-11-12T11:24:57Z</time>
      </trkpt>
      <trkpt lat="48.03708" lon="-0.76013">
        <ele>43.1</ele>
        <time>2017-11-12T11:25:01Z</time>
      </trkpt>
      <trkpt lat="48.03694" lon="-0.75991">
        <ele>43.3</ele>
        <time>2017-11-12T11:25:05Z</time>
      </trkpt>
      <trkpt lat="48.03681" lon="-0.7597">
        <ele>43.3</ele>
        <time>2017-11-12T11:25:09Z</time>
      </trkpt>
      <trkpt lat="48.03668" lon="-0.7595">
        <ele>43.3</ele>
        <time>2017-11-12T11:25:13Z</time>
      </trkpt>
      <trkpt lat="48.03653" lon="-0.75929">
        <ele>43.6</ele>
        <time>2017-11-12T11:25:17Z</time>
      </trkpt>
      <trkpt lat="48.03638" lon="-0.75912">
        <ele>44.4</ele>
        <time>2017-11-12T11:25:21Z</time>
      </trkpt>
      <trkpt lat="48.03621" lon="-0.75897">
        <ele>44.8</ele>
        <time>2017-11-12T11:25:25Z</time>
      </trkpt>
      <trkpt lat="48.03606" lon="-0.75883">
        <ele>45.4</ele>
        <time>2017-11-12T11:25:29Z</time>
      </trkpt>
      <trkpt lat="48.03592" lon="-0.75869">
        <ele>45.3</ele>
        <time>2017-11-12T11:25:33Z</time>
      </trkpt>
      <trkpt lat="48.03581" lon="-0.75854">
        <ele>45.2</ele>
        <time>2017-11-12T11:25:37Z</time>
      </trkpt>
      <trkpt lat="48.03566" lon="-0.75835">
        <ele>44.6</ele>
        <time>2017-11-12T11:25:41Z</time>
      </trkpt>
      <trkpt lat="48.03551" lon="-0.75818">
        <ele>44.2</ele>
        <time>2017-11-12T11:25:45Z</time>
      </trkpt>
      <trkpt lat="48.03537" lon="-0.75801">
        <ele>44.2</ele>
        <time>2017-11-12T11:25:49Z</time>
      </trkpt>
      <trkpt lat="48.03522" lon="-0.75788">
        <ele>43.8</ele>
        <time>2017-11-12T11:25:53Z</time>
      </trkpt>
      <trkpt lat="48.03509" lon="-0.75776">
        <ele>43.9</ele>
        <time>2017-11-12T11:25:57Z</time>
      </trkpt>
      <trkpt lat="48.03494" lon="-0.75762">
        <ele>43.6</ele>
        <time>2017-11-12T11:26:01Z</time>
      </trkpt>
      <trkpt lat="48.03477" lon="-0.75752">
        <ele>43.8</ele>
        <time>2017-11-12T11:26:05Z</time>
      </trkpt>
      <trkpt lat="48.0346" lon="-0.75741">
        <ele>43.5</ele>
        <time>2017-11-12T11:26:09Z</time>
      </trkpt>
      <trkpt lat="48.03439" lon="-0.75729">
        <ele>43</ele>
        <time>2017-11-12T11:26:13Z</time>
      </trkpt>
      <trkpt lat="48.03419" lon="-0.75719">
        <ele>43.6</ele>
        <time>2017-11-12T11:26:17Z</time>
      </trkpt>
      <trkpt lat="48.03397" lon="-0.75714">
        <ele>43.1</ele>
        <time>2017-11-12T11:26:21Z</time>
      </trkpt>
      <trkpt lat="48.03376" lon="-0.75707">
        <ele>42.3</ele>
        <time>2017-11-12T11:26:25Z</time>
      </trkpt>
      <trkpt lat="48.03355" lon="-0.7571">
        <ele>42.7</ele>
        <time>2017-11-12T11:26:29Z</time>
      </trkpt>
      <trkpt lat="48.03337" lon="-0.75721">
        <ele>43.9</ele>
        <time>2017-11-12T11:26:33Z</time>
      </trkpt>
      <trkpt lat="48.0332" lon="-0.75739">
        <ele>43.2</ele>
        <time>2017-11-12T11:26:37Z</time>
      </trkpt>
      <trkpt lat="48.03305" lon="-0.75764">
        <ele>43.4</ele>
        <time>2017-11-12T11:26:41Z</time>
      </trkpt>
      <trkpt lat="48.03292" lon="-0.75788">
        <ele>42.9</ele>
        <time>2017-11-12T11:26:45Z</time>
      </trkpt>
      <trkpt lat="48.0328" lon="-0.7581">
        <ele>43.2</ele>
        <time>2017-11-12T11:26:49Z</time>
      </trkpt>
      <trkpt lat="48.03266" lon="-0.75832">
        <ele>43.1</ele>
        <time>2017-11-12T11:26:53Z</time>
      </trkpt>
      <trkpt lat="48.0325" lon="-0.75852">
        <ele>43.4</ele>
        <time>2017-11-12T11:26:57Z</time>
      </trkpt>
      <trkpt lat="48.03232" lon="-0.75868">
        <ele>42.6</ele>
        <time>2017-11-12T11:27:01Z</time>
      </trkpt>
      <trkpt lat="48.03213" lon="-0.75884">
        <ele>43</ele>
        <time>2017-11-12T11:27:05Z</time>
      </trkpt>
      <trkpt lat="48.03194" lon="-0.75901">
        <ele>42.9</ele>
        <time>2017-11-12T11:27:09Z</time>
      </trkpt>
      <trkpt lat="48.03174" lon="-0.75915">
        <ele>43.8</ele>
        <time>2017-11-12T11:27:13Z</time>
      </trkpt>
      <trkpt lat="48.03153" lon="-0.75926">
        <ele>43.7</ele>
        <time>2017-11-12T11:27:17Z</time>
      </trkpt>
      <trkpt lat="48.03132" lon="-0.75931">
        <ele>43.4</ele>
        <time>2017-11-12T11:27:21Z</time>
      </trkpt>
      <trkpt lat="48.0311" lon="-0.75935">
        <ele>43.6</ele>
        <time>2017-11-12T11:27:25Z</time>
      </trkpt>
      <trkpt lat="48.0309" lon="-0.7593">
        <ele>42.9</ele>
        <time>2017-11-12T11:27:29Z</time>
      </trkpt>
      <trkpt lat="48.03072" lon="-0.75922">
        <ele>42.9</ele>
        <time>2017-11-12T11:27:34Z</time>
      </trkpt>
      <trkpt lat="48.03055" lon="-0.75903">
        <ele>42.6</ele>
        <time>2017-11-12T11:27:37Z</time>
      </trkpt>
      <trkpt lat="48.0304" lon="-0.75885">
        <ele>43.5</ele>
        <time>2017-11-12T11:27:41Z</time>
      </trkpt>
      <trkpt lat="48.03026" lon="-0.75864">
        <ele>41.8</ele>
        <time>2017-11-12T11:27:45Z</time>
      </trkpt>
      <trkpt lat="48.03005" lon="-0.75833">
        <ele>41.8</ele>
        <time>2017-11-12T11:27:49Z</time>
      </trkpt>
      <trkpt lat="48.02987" lon="-0.75802">
        <ele>41.8</ele>
        <time>2017-11-12T11:27:53Z</time>
      </trkpt>
      <trkpt lat="48.02982" lon="-0.75776">
        <ele>41</ele>
        <time>2017-11-12T11:27:57Z</time>
      </trkpt>
      <trkpt lat="48.02973" lon="-0.75755">
        <ele>41</ele>
        <time>2017-11-12T11:28:01Z</time>
      </trkpt>
      <trkpt lat="48.02957" lon="-0.75733">
        <ele>41.6</ele>
        <time>2017-11-12T11:28:05Z</time>
      </trkpt>
      <trkpt lat="48.02947" lon="-0.75726">
        <ele>41.4</ele>
        <time>2017-11-12T11:28:09Z</time>
      </trkpt>
      <trkpt lat="48.0293" lon="-0.75707">
        <ele>42.5</ele>
        <time>2017-11-12T11:28:13Z</time>
      </trkpt>
      <trkpt lat="48.02915" lon="-0.75689">
        <ele>42.3</ele>
        <time>2017-11-12T11:28:17Z</time>
      </trkpt>
      <trkpt lat="48.02897" lon="-0.75666">
        <ele>42.4</ele>
        <time>2017-11-12T11:28:21Z</time>
      </trkpt>
      <trkpt lat="48.02878" lon="-0.75643">
        <ele>43.5</ele>
        <time>2017-11-12T11:28:25Z</time>
      </trkpt>
      <trkpt lat="48.02861" lon="-0.75622">
        <ele>42.6</ele>
        <time>2017-11-12T11:28:29Z</time>
      </trkpt>
      <trkpt lat="48.02847" lon="-0.75602">
        <ele>44.5</ele>
        <time>2017-11-12T11:28:33Z</time>
      </trkpt>
      <trkpt lat="48.02833" lon="-0.75579">
        <ele>42</ele>
        <time>2017-11-12T11:28:37Z</time>
      </trkpt>
      <trkpt lat="48.0282" lon="-0.75563">
        <ele>45.3</ele>
        <time>2017-11-12T11:28:41Z</time>
      </trkpt>
      <trkpt lat="48.02804" lon="-0.75538">
        <ele>44.5</ele>
        <time>2017-11-12T11:28:45Z</time>
      </trkpt>
      <trkpt lat="48.02791" lon="-0.75519">
        <ele>45.6</ele>
        <time>2017-11-12T11:28:49Z</time>
      </trkpt>
      <trkpt lat="48.02783" lon="-0.75505">
        <ele>44.1</ele>
        <time>2017-11-12T11:28:53Z</time>
      </trkpt>
      <trkpt lat="48.02769" lon="-0.75478">
        <ele>43.3</ele>
        <time>2017-11-12T11:28:57Z</time>
      </trkpt>
      <trkpt lat="48.02753" lon="-0.75458">
        <ele>43.2</ele>
        <time>2017-11-12T11:29:01Z</time>
      </trkpt>
      <trkpt lat="48.0274" lon="-0.75443">
        <ele>43.6</ele>
        <time>2017-11-12T11:29:05Z</time>
      </trkpt>
      <trkpt lat="48.02724" lon="-0.75421">
        <ele>42.8</ele>
        <time>2017-11-12T11:29:09Z</time>
      </trkpt>
      <trkpt lat="48.02712" lon="-0.75401">
        <ele>44</ele>
        <time>2017-11-12T11:29:13Z</time>
      </trkpt>
      <trkpt lat="48.02704" lon="-0.75369">
        <ele>42.4</ele>
        <time>2017-11-12T11:29:17Z</time>
      </trkpt>
      <trkpt lat="48.02697" lon="-0.75341">
        <ele>41.3</ele>
        <time>2017-11-12T11:29:21Z</time>
      </trkpt>
      <trkpt lat="48.02685" lon="-0.75314">
        <ele>43.9</ele>
        <time>2017-11-12T11:29:25Z</time>
      </trkpt>
      <trkpt lat="48.0267" lon="-0.75288">
        <ele>43.8</ele>
        <time>2017-11-12T11:29:29Z</time>
      </trkpt>
      <trkpt lat="48.02659" lon="-0.75261">
        <ele>45.2</ele>
        <time>2017-11-12T11:29:33Z</time>
      </trkpt>
      <trkpt lat="48.02644" lon="-0.75227">
        <ele>44.8</ele>
        <time>2017-11-12T11:29:37Z</time>
      </trkpt>
      <trkpt lat="48.02631" lon="-0.75204">
        <ele>42.8</ele>
        <time>2017-11-12T11:29:41Z</time>
      </trkpt>
      <trkpt lat="48.02621" lon="-0.75183">
        <ele>42.4</ele>
        <time>2017-11-12T11:29:45Z</time>
      </trkpt>
      <trkpt lat="48.02608" lon="-0.75162">
        <ele>42</ele>
        <time>2017-11-12T11:29:49Z</time>
      </trkpt>
      <trkpt lat="48.02592" lon="-0.75139">
        <ele>42.3</ele>
        <time>2017-11-12T11:29:53Z</time>
      </trkpt>
      <trkpt lat="48.02575" lon="-0.75112">
        <ele>41.7</ele>
        <time>2017-11-12T11:29:57Z</time>
      </trkpt>
      <trkpt lat="48.02558" lon="-0.7509">
        <ele>41.4</ele>
        <time>2017-11-12T11:30:01Z</time>
      </trkpt>
      <trkpt lat="48.02533" lon="-0.75064">
        <ele>42.1</ele>
        <time>2017-11-12T11:30:05Z</time>
      </trkpt>
      <trkpt lat="48.02517" lon="-0.75043">
        <ele>42</ele>
        <time>2017-11-12T11:30:09Z</time>
      </trkpt>
      <trkpt lat="48.02495" lon="-0.75025">
        <ele>42.2</ele>
        <time>2017-11-12T11:30:13Z</time>
      </trkpt>
      <trkpt lat="48.02477" lon="-0.75006">
        <ele>42.2</ele>
        <time>2017-11-12T11:30:17Z</time>
      </trkpt>
      <trkpt lat="48.02456" lon="-0.74985">
        <ele>42.6</ele>
        <time>2017-11-12T11:30:21Z</time>
      </trkpt>
      <trkpt lat="48.02436" lon="-0.74965">
        <ele>42.8</ele>
        <time>2017-11-12T11:30:25Z</time>
      </trkpt>
      <trkpt lat="48.02417" lon="-0.74945">
        <ele>42</ele>
        <time>2017-11-12T11:30:29Z</time>
      </trkpt>
      <trkpt lat="48.02398" lon="-0.74926">
        <ele>42.2</ele>
        <time>2017-11-12T11:30:33Z</time>
      </trkpt>
      <trkpt lat="48.0238" lon="-0.74909">
        <ele>42.6</ele>
        <time>2017-11-12T11:30:37Z</time>
      </trkpt>
      <trkpt lat="48.02362" lon="-0.74892">
        <ele>43.2</ele>
        <time>2017-11-12T11:30:41Z</time>
      </trkpt>
      <trkpt lat="48.02342" lon="-0.74876">
        <ele>42.7</ele>
        <time>2017-11-12T11:30:45Z</time>
      </trkpt>
      <trkpt lat="48.02321" lon="-0.74858">
        <ele>42.3</ele>
        <time>2017-11-12T11:30:49Z</time>
      </trkpt>
      <trkpt lat="48.02298" lon="-0.74837">
        <ele>42.4</ele>
        <time>2017-11-12T11:30:53Z</time>
      </trkpt>
      <trkpt lat="48.02275" lon="-0.74819">
        <ele>42.5</ele>
        <time>2017-11-12T11:30:57Z</time>
      </trkpt>
      <trkpt lat="48.02254" lon="-0.74802">
        <ele>42.7</ele>
        <time>2017-11-12T11:31:01Z</time>
      </trkpt>
      <trkpt lat="48.02232" lon="-0.74785">
        <ele>42</ele>
        <time>2017-11-12T11:31:05Z</time>
      </trkpt>
      <trkpt lat="48.02211" lon="-0.74767">
        <ele>42</ele>
        <time>2017-11-12T11:31:09Z</time>
      </trkpt>
      <trkpt lat="48.0219" lon="-0.7475">
        <ele>42.1</ele>
        <time>2017-11-12T11:31:13Z</time>
      </trkpt>
      <trkpt lat="48.0217" lon="-0.74731">
        <ele>42.2</ele>
        <time>2017-11-12T11:31:17Z</time>
      </trkpt>
      <trkpt lat="48.02149" lon="-0.74711">
        <ele>42.5</ele>
        <time>2017-11-12T11:31:21Z</time>
      </trkpt>
      <trkpt lat="48.02132" lon="-0.74683">
        <ele>42.4</ele>
        <time>2017-11-12T11:31:25Z</time>
      </trkpt>
      <trkpt lat="48.02113" lon="-0.7466">
        <ele>42.4</ele>
        <time>2017-11-12T11:31:29Z</time>
      </trkpt>
      <trkpt lat="48.02092" lon="-0.74638">
        <ele>42.4</ele>
        <time>2017-11-12T11:31:33Z</time>
      </trkpt>
      <trkpt lat="48.02069" lon="-0.74618">
        <ele>42.3</ele>
        <time>2017-11-12T11:31:37Z</time>
      </trkpt>
      <trkpt lat="48.02047" lon="-0.74599">
        <ele>42.4</ele>
        <time>2017-11-12T11:31:41Z</time>
      </trkpt>
      <trkpt lat="48.02028" lon="-0.74577">
        <ele>42.6</ele>
        <time>2017-11-12T11:31:45Z</time>
      </trkpt>
      <trkpt lat="48.02006" lon="-0.74558">
        <ele>42.6</ele>
        <time>2017-11-12T11:31:49Z</time>
      </trkpt>
      <trkpt lat="48.01984" lon="-0.7454">
        <ele>42.2</ele>
        <time>2017-11-12T11:31:53Z</time>
      </trkpt>
      <trkpt lat="48.01963" lon="-0.74521">
        <ele>42.1</ele>
        <time>2017-11-12T11:31:57Z</time>
      </trkpt>
      <trkpt lat="48.01941" lon="-0.74505">
        <ele>42.3</ele>
        <time>2017-11-12T11:32:01Z</time>
      </trkpt>
      <trkpt lat="48.01923" lon="-0.74487">
        <ele>42</ele>
        <time>2017-11-12T11:32:05Z</time>
      </trkpt>
      <trkpt lat="48.01902" lon="-0.74473">
        <ele>41.6</ele>
        <time>2017-11-12T11:32:09Z</time>
      </trkpt>
      <trkpt lat="48.0188" lon="-0.7446">
        <ele>41.7</ele>
        <time>2017-11-12T11:32:13Z</time>
      </trkpt>
      <trkpt lat="48.01858" lon="-0.74453">
        <ele>41.7</ele>
        <time>2017-11-12T11:32:17Z</time>
      </trkpt>
      <trkpt lat="48.01838" lon="-0.74446">
        <ele>41.9</ele>
        <time>2017-11-12T11:32:21Z</time>
      </trkpt>
      <trkpt lat="48.01816" lon="-0.74441">
        <ele>41.9</ele>
        <time>2017-11-12T11:32:25Z</time>
      </trkpt>
      <trkpt lat="48.01795" lon="-0.74436">
        <ele>41.9</ele>
        <time>2017-11-12T11:32:29Z</time>
      </trkpt>
      <trkpt lat="48.01774" lon="-0.7443">
        <ele>42</ele>
        <time>2017-11-12T11:32:33Z</time>
      </trkpt>
      <trkpt lat="48.01752" lon="-0.74425">
        <ele>42.2</ele>
        <time>2017-11-12T11:32:37Z</time>
      </trkpt>
      <trkpt lat="48.0173" lon="-0.74419">
        <ele>42.2</ele>
        <time>2017-11-12T11:32:41Z</time>
      </trkpt>
      <trkpt lat="48.01709" lon="-0.74413">
        <ele>42.3</ele>
        <time>2017-11-12T11:32:45Z</time>
      </trkpt>
      <trkpt lat="48.01686" lon="-0.74405">
        <ele>42.5</ele>
        <time>2017-11-12T11:32:49Z</time>
      </trkpt>
      <trkpt lat="48.01664" lon="-0.74395">
        <ele>42.5</ele>
        <time>2017-11-12T11:32:53Z</time>
      </trkpt>
      <trkpt lat="48.0164" lon="-0.74385">
        <ele>41.9</ele>
        <time>2017-11-12T11:32:57Z</time>
      </trkpt>
      <trkpt lat="48.01617" lon="-0.74374">
        <ele>43.4</ele>
        <time>2017-11-12T11:33:01Z</time>
      </trkpt>
      <trkpt lat="48.01594" lon="-0.74359">
        <ele>43.1</ele>
        <time>2017-11-12T11:33:05Z</time>
      </trkpt>
      <trkpt lat="48.01572" lon="-0.74344">
        <ele>43.3</ele>
        <time>2017-11-12T11:33:09Z</time>
      </trkpt>
      <trkpt lat="48.0155" lon="-0.74329">
        <ele>42.7</ele>
        <time>2017-11-12T11:33:13Z</time>
      </trkpt>
      <trkpt lat="48.01531" lon="-0.7431">
        <ele>42.6</ele>
        <time>2017-11-12T11:33:17Z</time>
      </trkpt>
      <trkpt lat="48.01512" lon="-0.74289">
        <ele>42.5</ele>
        <time>2017-11-12T11:33:21Z</time>
      </trkpt>
      <trkpt lat="48.0149" lon="-0.7428">
        <ele>43</ele>
        <time>2017-11-12T11:33:25Z</time>
      </trkpt>
      <trkpt lat="48.01467" lon="-0.74266">
        <ele>43.6</ele>
        <time>2017-11-12T11:33:29Z</time>
      </trkpt>
      <trkpt lat="48.01446" lon="-0.74247">
        <ele>43.5</ele>
        <time>2017-11-12T11:33:33Z</time>
      </trkpt>
      <trkpt lat="48.01427" lon="-0.74228">
        <ele>43.4</ele>
        <time>2017-11-12T11:33:37Z</time>
      </trkpt>
      <trkpt lat="48.01407" lon="-0.74213">
        <ele>43.1</ele>
        <time>2017-11-12T11:33:41Z</time>
      </trkpt>
      <trkpt lat="48.01385" lon="-0.74198">
        <ele>42.8</ele>
        <time>2017-11-12T11:33:45Z</time>
      </trkpt>
      <trkpt lat="48.01364" lon="-0.74186">
        <ele>42.3</ele>
        <time>2017-11-12T11:33:49Z</time>
      </trkpt>
      <trkpt lat="48.01345" lon="-0.74175">
        <ele>43.1</ele>
        <time>2017-11-12T11:33:53Z</time>
      </trkpt>
      <trkpt lat="48.01329" lon="-0.74158">
        <ele>42.8</ele>
        <time>2017-11-12T11:33:57Z</time>
      </trkpt>
      <trkpt lat="48.01315" lon="-0.74143">
        <ele>42.6</ele>
        <time>2017-11-12T11:34:01Z</time>
      </trkpt>
      <trkpt lat="48.013" lon="-0.74133">
        <ele>43.1</ele>
        <time>2017-11-12T11:34:05Z</time>
      </trkpt>
      <trkpt lat="48.01281" lon="-0.74122">
        <ele>43.4</ele>
        <time>2017-11-12T11:34:09Z</time>
      </trkpt>
      <trkpt lat="48.01265" lon="-0.74115">
        <ele>44</ele>
        <time>2017-11-12T11:34:13Z</time>
      </trkpt>
      <trkpt lat="48.01245" lon="-0.74105">
        <ele>44.7</ele>
        <time>2017-11-12T11:34:17Z</time>
      </trkpt>
      <trkpt lat="48.0123" lon="-0.74093">
        <ele>44.3</ele>
        <time>2017-11-12T11:34:21Z</time>
      </trkpt>
      <trkpt lat="48.01218" lon="-0.74086">
        <ele>44.1</ele>
        <time>2017-11-12T11:34:25Z</time>
      </trkpt>
      <trkpt lat="48.01206" lon="-0.7408">
        <ele>43.9</ele>
        <time>2017-11-12T11:34:29Z</time>
      </trkpt>
      <trkpt lat="48.01194" lon="-0.74075">
        <ele>44.4</ele>
        <time>2017-11-12T11:34:33Z</time>
      </trkpt>
      <trkpt lat="48.01183" lon="-0.74071">
        <ele>44.2</ele>
        <time>2017-11-12T11:34:37Z</time>
      </trkpt>
      <trkpt lat="48.01173" lon="-0.74067">
        <ele>43.7</ele>
        <time>2017-11-12T11:34:41Z</time>
      </trkpt>
      <trkpt lat="48.01162" lon="-0.74062">
        <ele>43.1</ele>
        <time>2017-11-12T11:34:45Z</time>
      </trkpt>
      <trkpt lat="48.0115" lon="-0.74061">
        <ele>43.3</ele>
        <time>2017-11-12T11:34:49Z</time>
      </trkpt>
      <trkpt lat="48.01146" lon="-0.74058">
        <ele>43</ele>
        <time>2017-11-12T11:38:57Z</time>
      </trkpt>
      <trkpt lat="48.01141" lon="-0.74053">
        <ele>42.7</ele>
        <time>2017-11-12T11:39:01Z</time>
      </trkpt>
      <trkpt lat="48.01131" lon="-0.74051">
        <ele>42.7</ele>
        <time>2017-11-12T11:39:05Z</time>
      </trkpt>
      <trkpt lat="48.01118" lon="-0.74048">
        <ele>42.7</ele>
        <time>2017-11-12T11:39:09Z</time>
      </trkpt>
      <trkpt lat="48.01101" lon="-0.74043">
        <ele>42.4</ele>
        <time>2017-11-12T11:39:13Z</time>
      </trkpt>
      <trkpt lat="48.01085" lon="-0.74035">
        <ele>41.7</ele>
        <time>2017-11-12T11:39:17Z</time>
      </trkpt>
      <trkpt lat="48.01067" lon="-0.74031">
        <ele>41.9</ele>
        <time>2017-11-12T11:39:21Z</time>
      </trkpt>
      <trkpt lat="48.0105" lon="-0.74025">
        <ele>41.8</ele>
        <time>2017-11-12T11:39:25Z</time>
      </trkpt>
      <trkpt lat="48.01034" lon="-0.7402">
        <ele>41.4</ele>
        <time>2017-11-12T11:39:29Z</time>
      </trkpt>
      <trkpt lat="48.01023" lon="-0.74015">
        <ele>41.2</ele>
        <time>2017-11-12T11:39:33Z</time>
      </trkpt>
      <trkpt lat="48.01008" lon="-0.74011">
        <ele>41.2</ele>
        <time>2017-11-12T11:39:37Z</time>
      </trkpt>
      <trkpt lat="48.0099" lon="-0.74005">
        <ele>41.2</ele>
        <time>2017-11-12T11:39:41Z</time>
      </trkpt>
      <trkpt lat="48.0097" lon="-0.73998">
        <ele>41</ele>
        <time>2017-11-12T11:39:45Z</time>
      </trkpt>
      <trkpt lat="48.00948" lon="-0.73989">
        <ele>41.2</ele>
        <time>2017-11-12T11:39:49Z</time>
      </trkpt>
      <trkpt lat="48.00925" lon="-0.73977">
        <ele>40.9</ele>
        <time>2017-11-12T11:39:53Z</time>
      </trkpt>
      <trkpt lat="48.00902" lon="-0.73963">
        <ele>41.2</ele>
        <time>2017-11-12T11:39:57Z</time>
      </trkpt>
      <trkpt lat="48.00879" lon="-0.7395">
        <ele>41.2</ele>
        <time>2017-11-12T11:40:01Z</time>
      </trkpt>
      <trkpt lat="48.00854" lon="-0.73939">
        <ele>40.8</ele>
        <time>2017-11-12T11:40:05Z</time>
      </trkpt>
      <trkpt lat="48.00829" lon="-0.73929">
        <ele>40.5</ele>
        <time>2017-11-12T11:40:09Z</time>
      </trkpt>
      <trkpt lat="48.00804" lon="-0.73932">
        <ele>40.6</ele>
        <time>2017-11-12T11:40:13Z</time>
      </trkpt>
      <trkpt lat="48.00779" lon="-0.73941">
        <ele>40.9</ele>
        <time>2017-11-12T11:40:17Z</time>
      </trkpt>
      <trkpt lat="48.00755" lon="-0.73946">
        <ele>41.1</ele>
        <time>2017-11-12T11:40:21Z</time>
      </trkpt>
      <trkpt lat="48.0073" lon="-0.73948">
        <ele>41.1</ele>
        <time>2017-11-12T11:40:25Z</time>
      </trkpt>
      <trkpt lat="48.00705" lon="-0.73947">
        <ele>41.1</ele>
        <time>2017-11-12T11:40:29Z</time>
      </trkpt>
      <trkpt lat="48.00681" lon="-0.73947">
        <ele>41.1</ele>
        <time>2017-11-12T11:40:33Z</time>
      </trkpt>
      <trkpt lat="48.00655" lon="-0.73946">
        <ele>41.1</ele>
        <time>2017-11-12T11:40:37Z</time>
      </trkpt>
      <trkpt lat="48.0063" lon="-0.73947">
        <ele>41.1</ele>
        <time>2017-11-12T11:40:41Z</time>
      </trkpt>
      <trkpt lat="48.00604" lon="-0.73948">
        <ele>41.1</ele>
        <time>2017-11-12T11:40:45Z</time>
      </trkpt>
      <trkpt lat="48.00578" lon="-0.73952">
        <ele>41.3</ele>
        <time>2017-11-12T11:40:49Z</time>
      </trkpt>
      <trkpt lat="48.00552" lon="-0.73957">
        <ele>41.4</ele>
        <time>2017-11-12T11:40:53Z</time>
      </trkpt>
      <trkpt lat="48.00527" lon="-0.7396">
        <ele>41.1</ele>
        <time>2017-11-12T11:40:57Z</time>
      </trkpt>
      <trkpt lat="48.00502" lon="-0.73956">
        <ele>40.8</ele>
        <time>2017-11-12T11:41:01Z</time>
      </trkpt>
      <trkpt lat="48.0048" lon="-0.73945">
        <ele>40.7</ele>
        <time>2017-11-12T11:41:05Z</time>
      </trkpt>
      <trkpt lat="48.00457" lon="-0.73934">
        <ele>41</ele>
        <time>2017-11-12T11:41:09Z</time>
      </trkpt>
      <trkpt lat="48.00435" lon="-0.73921">
        <ele>41.2</ele>
        <time>2017-11-12T11:41:13Z</time>
      </trkpt>
      <trkpt lat="48.00415" lon="-0.73907">
        <ele>41.6</ele>
        <time>2017-11-12T11:41:17Z</time>
      </trkpt>
      <trkpt lat="48.00398" lon="-0.73886">
        <ele>41.8</ele>
        <time>2017-11-12T11:41:21Z</time>
      </trkpt>
      <trkpt lat="48.00381" lon="-0.73864">
        <ele>41.2</ele>
        <time>2017-11-12T11:41:25Z</time>
      </trkpt>
      <trkpt lat="48.00359" lon="-0.73843">
        <ele>41.1</ele>
        <time>2017-11-12T11:41:29Z</time>
      </trkpt>
      <trkpt lat="48.00333" lon="-0.73826">
        <ele>41.5</ele>
        <time>2017-11-12T11:41:33Z</time>
      </trkpt>
      <trkpt lat="48.00304" lon="-0.73825">
        <ele>41.4</ele>
        <time>2017-11-12T11:41:37Z</time>
      </trkpt>
      <trkpt lat="48.00279" lon="-0.73834">
        <ele>42</ele>
        <time>2017-11-12T11:41:41Z</time>
      </trkpt>
      <trkpt lat="48.00256" lon="-0.73845">
        <ele>42.5</ele>
        <time>2017-11-12T11:41:45Z</time>
      </trkpt>
      <trkpt lat="48.00233" lon="-0.73853">
        <ele>41.6</ele>
        <time>2017-11-12T11:41:49Z</time>
      </trkpt>
      <trkpt lat="48.0021" lon="-0.73858">
        <ele>40.9</ele>
        <time>2017-11-12T11:41:53Z</time>
      </trkpt>
      <trkpt lat="48.00186" lon="-0.73864">
        <ele>41.1</ele>
        <time>2017-11-12T11:41:57Z</time>
      </trkpt>
      <trkpt lat="48.00163" lon="-0.7387">
        <ele>41.3</ele>
        <time>2017-11-12T11:42:01Z</time>
      </trkpt>
      <trkpt lat="48.00141" lon="-0.73877">
        <ele>42.3</ele>
        <time>2017-11-12T11:42:05Z</time>
      </trkpt>
      <trkpt lat="48.00118" lon="-0.73881">
        <ele>43.4</ele>
        <time>2017-11-12T11:42:09Z</time>
      </trkpt>
      <trkpt lat="48.00098" lon="-0.73886">
        <ele>43.7</ele>
        <time>2017-11-12T11:42:13Z</time>
      </trkpt>
      <trkpt lat="48.0008" lon="-0.73894">
        <ele>44.1</ele>
        <time>2017-11-12T11:42:17Z</time>
      </trkpt>
      <trkpt lat="48.00061" lon="-0.7391">
        <ele>42.4</ele>
        <time>2017-11-12T11:42:21Z</time>
      </trkpt>
      <trkpt lat="48.00041" lon="-0.73929">
        <ele>41.8</ele>
        <time>2017-11-12T11:42:25Z</time>
      </trkpt>
      <trkpt lat="48.00023" lon="-0.73949">
        <ele>41</ele>
        <time>2017-11-12T11:42:29Z</time>
      </trkpt>
      <trkpt lat="48.00004" lon="-0.7397">
        <ele>41.1</ele>
        <time>2017-11-12T11:42:33Z</time>
      </trkpt>
      <trkpt lat="47.99986" lon="-0.73991">
        <ele>40.8</ele>
        <time>2017-11-12T11:42:37Z</time>
      </trkpt>
      <trkpt lat="47.9997" lon="-0.74013">
        <ele>41</ele>
        <time>2017-11-12T11:42:41Z</time>
      </trkpt>
      <trkpt lat="47.99952" lon="-0.74034">
        <ele>41.1</ele>
        <time>2017-11-12T11:42:45Z</time>
      </trkpt>
      <trkpt lat="47.99934" lon="-0.74052">
        <ele>41</ele>
        <time>2017-11-12T11:42:49Z</time>
      </trkpt>
      <trkpt lat="47.99913" lon="-0.74067">
        <ele>40.9</ele>
        <time>2017-11-12T11:42:53Z</time>
      </trkpt>
      <trkpt lat="47.99892" lon="-0.74077">
        <ele>40.8</ele>
        <time>2017-11-12T11:42:57Z</time>
      </trkpt>
      <trkpt lat="47.99869" lon="-0.74085">
        <ele>41</ele>
        <time>2017-11-12T11:43:01Z</time>
      </trkpt>
      <trkpt lat="47.99848" lon="-0.74092">
        <ele>41</ele>
        <time>2017-11-12T11:43:05Z</time>
      </trkpt>
      <trkpt lat="47.99828" lon="-0.74099">
        <ele>41</ele>
        <time>2017-11-12T11:43:09Z</time>
      </trkpt>
      <trkpt lat="47.99808" lon="-0.74104">
        <ele>41</ele>
        <time>2017-11-12T11:43:13Z</time>
      </trkpt>
      <trkpt lat="47.99788" lon="-0.7411">
        <ele>40.3</ele>
        <time>2017-11-12T11:43:17Z</time>
      </trkpt>
      <trkpt lat="47.99767" lon="-0.74119">
        <ele>39.3</ele>
        <time>2017-11-12T11:43:21Z</time>
      </trkpt>
      <trkpt lat="47.99745" lon="-0.74127">
        <ele>38.7</ele>
        <time>2017-11-12T11:43:25Z</time>
      </trkpt>
      <trkpt lat="47.99722" lon="-0.74134">
        <ele>39.6</ele>
        <time>2017-11-12T11:43:29Z</time>
      </trkpt>
      <trkpt lat="47.99699" lon="-0.74143">
        <ele>39.5</ele>
        <time>2017-11-12T11:43:33Z</time>
      </trkpt>
      <trkpt lat="47.99676" lon="-0.74144">
        <ele>39</ele>
        <time>2017-11-12T11:43:37Z</time>
      </trkpt>
      <trkpt lat="47.99662" lon="-0.7416">
        <ele>40.7</ele>
        <time>2017-11-12T11:43:41Z</time>
      </trkpt>
      <trkpt lat="47.9966" lon="-0.74178">
        <ele>41.4</ele>
        <time>2017-11-12T11:43:45Z</time>
      </trkpt>
      <trkpt lat="47.99663" lon="-0.742">
        <ele>41.9</ele>
        <time>2017-11-12T11:43:49Z</time>
      </trkpt>
      <trkpt lat="47.99665" lon="-0.74225">
        <ele>43.2</ele>
        <time>2017-11-12T11:43:53Z</time>
      </trkpt>
      <trkpt lat="47.99668" lon="-0.74251">
        <ele>46.1</ele>
        <time>2017-11-12T11:43:57Z</time>
      </trkpt>
      <trkpt lat="47.99671" lon="-0.74277">
        <ele>47.3</ele>
        <time>2017-11-12T11:44:01Z</time>
      </trkpt>
      <trkpt lat="47.99681" lon="-0.74293">
        <ele>49.1</ele>
        <time>2017-11-12T11:44:05Z</time>
      </trkpt>
      <trkpt lat="47.99685" lon="-0.74282">
        <ele>48.6</ele>
        <time>2017-11-12T11:44:09Z</time>
      </trkpt>
      <trkpt lat="47.99684" lon="-0.74264">
        <ele>47.8</ele>
        <time>2017-11-12T11:44:13Z</time>
      </trkpt>
      <trkpt lat="47.99683" lon="-0.74241">
        <ele>46.4</ele>
        <time>2017-11-12T11:44:17Z</time>
      </trkpt>
      <trkpt lat="47.99681" lon="-0.74216">
        <ele>44.3</ele>
        <time>2017-11-12T11:44:21Z</time>
      </trkpt>
      <trkpt lat="47.99679" lon="-0.74188">
        <ele>42.7</ele>
        <time>2017-11-12T11:44:25Z</time>
      </trkpt>
      <trkpt lat="47.99675" lon="-0.74159">
        <ele>41</ele>
        <time>2017-11-12T11:44:29Z</time>
      </trkpt>
      <trkpt lat="47.99671" lon="-0.74127">
        <ele>38.1</ele>
        <time>2017-11-12T11:44:33Z</time>
      </trkpt>
      <trkpt lat="47.99666" lon="-0.74095">
        <ele>38</ele>
        <time>2017-11-12T11:44:37Z</time>
      </trkpt>
      <trkpt lat="47.99662" lon="-0.74062">
        <ele>38</ele>
        <time>2017-11-12T11:44:41Z</time>
      </trkpt>
      <trkpt lat="47.99657" lon="-0.74029">
        <ele>39.5</ele>
        <time>2017-11-12T11:44:45Z</time>
      </trkpt>
      <trkpt lat="47.9965" lon="-0.73998">
        <ele>41.6</ele>
        <time>2017-11-12T11:44:49Z</time>
      </trkpt>
      <trkpt lat="47.99647" lon="-0.73967">
        <ele>44.1</ele>
        <time>2017-11-12T11:44:53Z</time>
      </trkpt>
      <trkpt lat="47.99644" lon="-0.73937">
        <ele>45.9</ele>
        <time>2017-11-12T11:44:57Z</time>
      </trkpt>
      <trkpt lat="47.99642" lon="-0.73908">
        <ele>47.2</ele>
        <time>2017-11-12T11:45:01Z</time>
      </trkpt>
      <trkpt lat="47.99633" lon="-0.73888">
        <ele>47.8</ele>
        <time>2017-11-12T11:45:05Z</time>
      </trkpt>
      <trkpt lat="47.99625" lon="-0.73868">
        <ele>48.3</ele>
        <time>2017-11-12T11:45:09Z</time>
      </trkpt>
      <trkpt lat="47.99632" lon="-0.73853">
        <ele>48.8</ele>
        <time>2017-11-12T11:45:13Z</time>
      </trkpt>
      <trkpt lat="47.99641" lon="-0.7384">
        <ele>49.1</ele>
        <time>2017-11-12T11:45:17Z</time>
      </trkpt>
      <trkpt lat="47.99648" lon="-0.73818">
        <ele>50.2</ele>
        <time>2017-11-12T11:45:21Z</time>
      </trkpt>
      <trkpt lat="47.99656" lon="-0.73797">
        <ele>51.4</ele>
        <time>2017-11-12T11:45:25Z</time>
      </trkpt>
      <trkpt lat="47.99668" lon="-0.73776">
        <ele>52.1</ele>
        <time>2017-11-12T11:45:29Z</time>
      </trkpt>
      <trkpt lat="47.99679" lon="-0.73756">
        <ele>53.5</ele>
        <time>2017-11-12T11:45:33Z</time>
      </trkpt>
      <trkpt lat="47.9969" lon="-0.73736">
        <ele>54.5</ele>
        <time>2017-11-12T11:45:37Z</time>
      </trkpt>
      <trkpt lat="47.99701" lon="-0.73715">
        <ele>55.1</ele>
        <time>2017-11-12T11:45:41Z</time>
      </trkpt>
      <trkpt lat="47.99712" lon="-0.73694">
        <ele>56</ele>
        <time>2017-11-12T11:45:45Z</time>
      </trkpt>
      <trkpt lat="47.99723" lon="-0.73674">
        <ele>56.7</ele>
        <time>2017-11-12T11:45:49Z</time>
      </trkpt>
      <trkpt lat="47.99734" lon="-0.73654">
        <ele>57.5</ele>
        <time>2017-11-12T11:45:53Z</time>
      </trkpt>
      <trkpt lat="47.99744" lon="-0.73637">
        <ele>58.1</ele>
        <time>2017-11-12T11:45:57Z</time>
      </trkpt>
      <trkpt lat="47.99755" lon="-0.73621">
        <ele>58.7</ele>
        <time>2017-11-12T11:46:01Z</time>
      </trkpt>
      <trkpt lat="47.99764" lon="-0.73607">
        <ele>59.1</ele>
        <time>2017-11-12T11:46:05Z</time>
      </trkpt>
      <trkpt lat="47.99773" lon="-0.73593">
        <ele>59.6</ele>
        <time>2017-11-12T11:46:09Z</time>
      </trkpt>
      <trkpt lat="47.99781" lon="-0.7358">
        <ele>60.3</ele>
        <time>2017-11-12T11:46:13Z</time>
      </trkpt>
      <trkpt lat="47.99789" lon="-0.73567">
        <ele>61.4</ele>
        <time>2017-11-12T11:46:17Z</time>
      </trkpt>
      <trkpt lat="47.99797" lon="-0.73554">
        <ele>62</ele>
        <time>2017-11-12T11:46:21Z</time>
      </trkpt>
      <trkpt lat="47.99805" lon="-0.73542">
        <ele>62.5</ele>
        <time>2017-11-12T11:46:25Z</time>
      </trkpt>
      <trkpt lat="47.99811" lon="-0.73528">
        <ele>63.2</ele>
        <time>2017-11-12T11:46:29Z</time>
      </trkpt>
      <trkpt lat="47.99817" lon="-0.73514">
        <ele>63.7</ele>
        <time>2017-11-12T11:46:33Z</time>
      </trkpt>
      <trkpt lat="47.99824" lon="-0.735">
        <ele>64</ele>
        <time>2017-11-12T11:46:37Z</time>
      </trkpt>
      <trkpt lat="47.99831" lon="-0.73487">
        <ele>64.5</ele>
        <time>2017-11-12T11:46:41Z</time>
      </trkpt>
      <trkpt lat="47.99838" lon="-0.73473">
        <ele>65.1</ele>
        <time>2017-11-12T11:46:45Z</time>
      </trkpt>
      <trkpt lat="47.99844" lon="-0.73458">
        <ele>65.4</ele>
        <time>2017-11-12T11:46:49Z</time>
      </trkpt>
      <trkpt lat="47.99849" lon="-0.73442">
        <ele>65.6</ele>
        <time>2017-11-12T11:46:53Z</time>
      </trkpt>
      <trkpt lat="47.99853" lon="-0.73425">
        <ele>66.4</ele>
        <time>2017-11-12T11:46:57Z</time>
      </trkpt>
      <trkpt lat="47.99858" lon="-0.73409">
        <ele>67.2</ele>
        <time>2017-11-12T11:47:01Z</time>
      </trkpt>
      <trkpt lat="47.99862" lon="-0.73391">
        <ele>67.9</ele>
        <time>2017-11-12T11:47:05Z</time>
      </trkpt>
      <trkpt lat="47.99866" lon="-0.73373">
        <ele>68.2</ele>
        <time>2017-11-12T11:47:09Z</time>
      </trkpt>
      <trkpt lat="47.99871" lon="-0.73355">
        <ele>68.6</ele>
        <time>2017-11-12T11:47:13Z</time>
      </trkpt>
      <trkpt lat="47.99876" lon="-0.73336">
        <ele>69.4</ele>
        <time>2017-11-12T11:47:17Z</time>
      </trkpt>
      <trkpt lat="47.9988" lon="-0.73317">
        <ele>70.3</ele>
        <time>2017-11-12T11:47:21Z</time>
      </trkpt>
      <trkpt lat="47.99885" lon="-0.73299">
        <ele>70.9</ele>
        <time>2017-11-12T11:47:25Z</time>
      </trkpt>
      <trkpt lat="47.99889" lon="-0.7328">
        <ele>71</ele>
        <time>2017-11-12T11:47:29Z</time>
      </trkpt>
      <trkpt lat="47.99894" lon="-0.73262">
        <ele>71.2</ele>
        <time>2017-11-12T11:47:34Z</time>
      </trkpt>
      <trkpt lat="47.999" lon="-0.73243">
        <ele>71.8</ele>
        <time>2017-11-12T11:47:37Z</time>
      </trkpt>
      <trkpt lat="47.99908" lon="-0.73224">
        <ele>72.9</ele>
        <time>2017-11-12T11:47:41Z</time>
      </trkpt>
      <trkpt lat="47.99917" lon="-0.73202">
        <ele>73.7</ele>
        <time>2017-11-12T11:47:45Z</time>
      </trkpt>
      <trkpt lat="47.99925" lon="-0.73182">
        <ele>74.9</ele>
        <time>2017-11-12T11:47:49Z</time>
      </trkpt>
      <trkpt lat="47.99931" lon="-0.73164">
        <ele>75.6</ele>
        <time>2017-11-12T11:47:53Z</time>
      </trkpt>
      <trkpt lat="47.99938" lon="-0.73145">
        <ele>76</ele>
        <time>2017-11-12T11:47:57Z</time>
      </trkpt>
      <trkpt lat="47.99947" lon="-0.73125">
        <ele>76.5</ele>
        <time>2017-11-12T11:48:01Z</time>
      </trkpt>
      <trkpt lat="47.99956" lon="-0.73103">
        <ele>76.7</ele>
        <time>2017-11-12T11:48:05Z</time>
      </trkpt>
      <trkpt lat="47.99966" lon="-0.73078">
        <ele>76.6</ele>
        <time>2017-11-12T11:48:09Z</time>
      </trkpt>
      <trkpt lat="47.99976" lon="-0.73052">
        <ele>77.1</ele>
        <time>2017-11-12T11:48:13Z</time>
      </trkpt>
      <trkpt lat="47.99987" lon="-0.73028">
        <ele>76.9</ele>
        <time>2017-11-12T11:48:17Z</time>
      </trkpt>
      <trkpt lat="47.99997" lon="-0.73006">
        <ele>76.1</ele>
        <time>2017-11-12T11:48:21Z</time>
      </trkpt>
      <trkpt lat="48.00006" lon="-0.72984">
        <ele>76.5</ele>
        <time>2017-11-12T11:48:25Z</time>
      </trkpt>
      <trkpt lat="48.00015" lon="-0.72961">
        <ele>76</ele>
        <time>2017-11-12T11:48:29Z</time>
      </trkpt>
      <trkpt lat="48.00025" lon="-0.72938">
        <ele>75.1</ele>
        <time>2017-11-12T11:48:33Z</time>
      </trkpt>
      <trkpt lat="48.00034" lon="-0.72913">
        <ele>74.6</ele>
        <time>2017-11-12T11:48:37Z</time>
      </trkpt>
      <trkpt lat="48.00045" lon="-0.7289">
        <ele>73.4</ele>
        <time>2017-11-12T11:48:41Z</time>
      </trkpt>
      <trkpt lat="48.00055" lon="-0.72865">
        <ele>72.2</ele>
        <time>2017-11-12T11:48:45Z</time>
      </trkpt>
      <trkpt lat="48.00065" lon="-0.7284">
        <ele>72.1</ele>
        <time>2017-11-12T11:48:49Z</time>
      </trkpt>
      <trkpt lat="48.00075" lon="-0.72815">
        <ele>70.3</ele>
        <time>2017-11-12T11:48:53Z</time>
      </trkpt>
      <trkpt lat="48.00086" lon="-0.72784">
        <ele>68.1</ele>
        <time>2017-11-12T11:48:57Z</time>
      </trkpt>
      <trkpt lat="48.00101" lon="-0.72745">
        <ele>65.6</ele>
        <time>2017-11-12T11:49:01Z</time>
      </trkpt>
      <trkpt lat="48.0011" lon="-0.72695">
        <ele>63</ele>
        <time>2017-11-12T11:49:05Z</time>
      </trkpt>
      <trkpt lat="48.00112" lon="-0.72649">
        <ele>61.1</ele>
        <time>2017-11-12T11:49:09Z</time>
      </trkpt>
      <trkpt lat="48.00125" lon="-0.72615">
        <ele>61.5</ele>
        <time>2017-11-12T11:49:13Z</time>
      </trkpt>
      <trkpt lat="48.0014" lon="-0.72589">
        <ele>62.1</ele>
        <time>2017-11-12T11:49:17Z</time>
      </trkpt>
      <trkpt lat="48.00153" lon="-0.72564">
        <ele>62</ele>
        <time>2017-11-12T11:49:21Z</time>
      </trkpt>
      <trkpt lat="48.00172" lon="-0.72553">
        <ele>62.1</ele>
        <time>2017-11-12T11:49:25Z</time>
      </trkpt>
      <trkpt lat="48.00173" lon="-0.72542">
        <ele>61.6</ele>
        <time>2017-11-12T11:49:29Z</time>
      </trkpt>
      <trkpt lat="48.00163" lon="-0.72524">
        <ele>60.9</ele>
        <time>2017-11-12T11:49:33Z</time>
      </trkpt>
      <trkpt lat="48.00148" lon="-0.72503">
        <ele>60.1</ele>
        <time>2017-11-12T11:49:37Z</time>
      </trkpt>
      <trkpt lat="48.00133" lon="-0.72476">
        <ele>58</ele>
        <time>2017-11-12T11:49:41Z</time>
      </trkpt>
      <trkpt lat="48.00118" lon="-0.72451">
        <ele>58.3</ele>
        <time>2017-11-12T11:49:45Z</time>
      </trkpt>
      <trkpt lat="48.00111" lon="-0.72431">
        <ele>56.5</ele>
        <time>2017-11-12T11:49:49Z</time>
      </trkpt>
      <trkpt lat="48.00106" lon="-0.72408">
        <ele>54</ele>
        <time>2017-11-12T11:49:53Z</time>
      </trkpt>
      <trkpt lat="48.00092" lon="-0.72399">
        <ele>52.5</ele>
        <time>2017-11-12T11:49:57Z</time>
      </trkpt>
      <trkpt lat="48.00071" lon="-0.72404">
        <ele>52</ele>
        <time>2017-11-12T11:50:01Z</time>
      </trkpt>
      <trkpt lat="48.00072" lon="-0.72381">
        <ele>51.3</ele>
        <time>2017-11-12T11:50:05Z</time>
      </trkpt>
      <trkpt lat="48.00079" lon="-0.72357">
        <ele>50.6</ele>
        <time>2017-11-12T11:50:09Z</time>
      </trkpt>
      <trkpt lat="48.00083" lon="-0.72328">
        <ele>48.9</ele>
        <time>2017-11-12T11:50:13Z</time>
      </trkpt>
      <trkpt lat="48.00073" lon="-0.72303">
        <ele>48.7</ele>
        <time>2017-11-12T11:50:17Z</time>
      </trkpt>
      <trkpt lat="48.0006" lon="-0.72287">
        <ele>48.6</ele>
        <time>2017-11-12T11:50:21Z</time>
      </trkpt>
      <trkpt lat="48.00046" lon="-0.72271">
        <ele>47.5</ele>
        <time>2017-11-12T11:50:25Z</time>
      </trkpt>
      <trkpt lat="48.00034" lon="-0.72254">
        <ele>47</ele>
        <time>2017-11-12T11:50:29Z</time>
      </trkpt>
      <trkpt lat="48.00024" lon="-0.72232">
        <ele>46.5</ele>
        <time>2017-11-12T11:50:33Z</time>
      </trkpt>
      <trkpt lat="48.00013" lon="-0.72212">
        <ele>46</ele>
        <time>2017-11-12T11:50:37Z</time>
      </trkpt>
      <trkpt lat="48.00002" lon="-0.72194">
        <ele>47</ele>
        <time>2017-11-12T11:50:41Z</time>
      </trkpt>
      <trkpt lat="47.99993" lon="-0.72176">
        <ele>45.7</ele>
        <time>2017-11-12T11:50:45Z</time>
      </trkpt>
      <trkpt lat="47.99986" lon="-0.72159">
        <ele>43.8</ele>
        <time>2017-11-12T11:50:49Z</time>
      </trkpt>
      <trkpt lat="47.99978" lon="-0.72142">
        <ele>44.6</ele>
        <time>2017-11-12T11:50:53Z</time>
      </trkpt>
      <trkpt lat="47.9997" lon="-0.72124">
        <ele>46</ele>
        <time>2017-11-12T11:50:57Z</time>
      </trkpt>
      <trkpt lat="47.99962" lon="-0.72108">
        <ele>45.9</ele>
        <time>2017-11-12T11:51:01Z</time>
      </trkpt>
      <trkpt lat="47.99955" lon="-0.72093">
        <ele>45.4</ele>
        <time>2017-11-12T11:51:05Z</time>
      </trkpt>
      <trkpt lat="47.99949" lon="-0.72082">
        <ele>45.1</ele>
        <time>2017-11-12T11:51:09Z</time>
      </trkpt>
      <trkpt lat="47.99943" lon="-0.72068">
        <ele>46</ele>
        <time>2017-11-12T11:51:13Z</time>
      </trkpt>
      <trkpt lat="47.99937" lon="-0.72054">
        <ele>46.2</ele>
        <time>2017-11-12T11:51:17Z</time>
      </trkpt>
      <trkpt lat="47.99932" lon="-0.72039">
        <ele>46.1</ele>
        <time>2017-11-12T11:51:21Z</time>
      </trkpt>
      <trkpt lat="47.99926" lon="-0.72024">
        <ele>46.9</ele>
        <time>2017-11-12T11:51:25Z</time>
      </trkpt>
      <trkpt lat="47.9992" lon="-0.72011">
        <ele>48.1</ele>
        <time>2017-11-12T11:51:29Z</time>
      </trkpt>
      <trkpt lat="47.99915" lon="-0.71998">
        <ele>49</ele>
        <time>2017-11-12T11:51:33Z</time>
      </trkpt>
      <trkpt lat="47.99912" lon="-0.71985">
        <ele>49</ele>
        <time>2017-11-12T11:51:37Z</time>
      </trkpt>
      <trkpt lat="47.99909" lon="-0.71969">
        <ele>49.1</ele>
        <time>2017-11-12T11:51:41Z</time>
      </trkpt>
      <trkpt lat="47.99906" lon="-0.71952">
        <ele>49.7</ele>
        <time>2017-11-12T11:51:45Z</time>
      </trkpt>
      <trkpt lat="47.99903" lon="-0.71933">
        <ele>50.2</ele>
        <time>2017-11-12T11:51:49Z</time>
      </trkpt>
      <trkpt lat="47.99901" lon="-0.71914">
        <ele>50.5</ele>
        <time>2017-11-12T11:51:53Z</time>
      </trkpt>
      <trkpt lat="47.99899" lon="-0.71894">
        <ele>50.9</ele>
        <time>2017-11-12T11:51:57Z</time>
      </trkpt>
      <trkpt lat="47.99897" lon="-0.71875">
        <ele>50.9</ele>
        <time>2017-11-12T11:52:01Z</time>
      </trkpt>
      <trkpt lat="47.99896" lon="-0.71856">
        <ele>50.9</ele>
        <time>2017-11-12T11:52:05Z</time>
      </trkpt>
      <trkpt lat="47.99896" lon="-0.71837">
        <ele>51.6</ele>
        <time>2017-11-12T11:52:09Z</time>
      </trkpt>
      <trkpt lat="47.99896" lon="-0.71818">
        <ele>51.7</ele>
        <time>2017-11-12T11:52:13Z</time>
      </trkpt>
      <trkpt lat="47.99897" lon="-0.71798">
        <ele>51.8</ele>
        <time>2017-11-12T11:52:17Z</time>
      </trkpt>
      <trkpt lat="47.99898" lon="-0.71781">
        <ele>52</ele>
        <time>2017-11-12T11:52:21Z</time>
      </trkpt>
      <trkpt lat="47.99898" lon="-0.71765">
        <ele>52.3</ele>
        <time>2017-11-12T11:52:25Z</time>
      </trkpt>
      <trkpt lat="47.99898" lon="-0.71747">
        <ele>52.7</ele>
        <time>2017-11-12T11:52:29Z</time>
      </trkpt>
      <trkpt lat="47.99899" lon="-0.7173">
        <ele>52.9</ele>
        <time>2017-11-12T11:52:34Z</time>
      </trkpt>
      <trkpt lat="47.999" lon="-0.71711">
        <ele>53.2</ele>
        <time>2017-11-12T11:52:37Z</time>
      </trkpt>
      <trkpt lat="47.99899" lon="-0.71694">
        <ele>53.7</ele>
        <time>2017-11-12T11:52:41Z</time>
      </trkpt>
      <trkpt lat="47.99894" lon="-0.71684">
        <ele>53.8</ele>
        <time>2017-11-12T11:52:45Z</time>
      </trkpt>
      <trkpt lat="47.99888" lon="-0.7168">
        <ele>54</ele>
        <time>2017-11-12T11:53:29Z</time>
      </trkpt>
      <trkpt lat="47.99887" lon="-0.71675">
        <ele>54</ele>
        <time>2017-11-12T11:53:33Z</time>
      </trkpt>
      <trkpt lat="47.99883" lon="-0.71676">
        <ele>54.1</ele>
        <time>2017-11-12T11:53:37Z</time>
      </trkpt>
      <trkpt lat="47.99881" lon="-0.71675">
        <ele>54.1</ele>
        <time>2017-11-12T11:53:41Z</time>
      </trkpt>
    </trkseg>
  </trk>
</gpx>